<?xml version="1.0" encoding="UTF-8" standalone="no" ?>
<gpx xmlns="http://www.topografix.com/GPX/1/1" xmlns:xsi="http://www.w3.org/2001/XMLSchema-instance" xsi:schemaLocation="http://www.topografix.com/GPX/1/1 http://www.topografix.com/GPX/1/1/gpx.xsd" version="1.1" creator="VisuGPX - https://www.visugpx.com">
  <metadata>
    <name>Rando vtt Telethon BC Portois</name>
    <desc><![CDATA[La rando pour le Telethon organisée par le BC Portois : très facile pour faire en famille]]></desc>
  </metadata>
  <trk>
    <name><![CDATA[jef26 telethon portois 2011]]></name>
    <trkseg>
      <trkpt lat="44.8753" lon="4.87796">
        <ele>117.9</ele>
        <time>2011-12-03T12:13:02Z</time>
      </trkpt>
      <trkpt lat="44.87542" lon="4.87814">
        <ele>118.38</ele>
        <time>2011-12-03T12:13:10Z</time>
      </trkpt>
      <trkpt lat="44.8754" lon="4.87843">
        <ele>118.38</ele>
        <time>2011-12-03T12:13:17Z</time>
      </trkpt>
      <trkpt lat="44.87536" lon="4.8787">
        <ele>118.38</ele>
        <time>2011-12-03T12:13:24Z</time>
      </trkpt>
      <trkpt lat="44.87533" lon="4.87897">
        <ele>118.86</ele>
        <time>2011-12-03T12:13:31Z</time>
      </trkpt>
      <trkpt lat="44.87536" lon="4.87924">
        <ele>119.34</ele>
        <time>2011-12-03T12:13:37Z</time>
      </trkpt>
      <trkpt lat="44.87533" lon="4.8795">
        <ele>119.34</ele>
        <time>2011-12-03T12:13:44Z</time>
      </trkpt>
      <trkpt lat="44.87529" lon="4.87973">
        <ele>118.86</ele>
        <time>2011-12-03T12:13:51Z</time>
      </trkpt>
      <trkpt lat="44.87526" lon="4.87994">
        <ele>119.82</ele>
        <time>2011-12-03T12:14:08Z</time>
      </trkpt>
      <trkpt lat="44.87521" lon="4.88023">
        <ele>121.26</ele>
        <time>2011-12-03T12:14:13Z</time>
      </trkpt>
      <trkpt lat="44.87516" lon="4.88052">
        <ele>122.22</ele>
        <time>2011-12-03T12:14:18Z</time>
      </trkpt>
      <trkpt lat="44.87514" lon="4.88078">
        <ele>122.71</ele>
        <time>2011-12-03T12:14:23Z</time>
      </trkpt>
      <trkpt lat="44.87516" lon="4.88109">
        <ele>123.67</ele>
        <time>2011-12-03T12:14:29Z</time>
      </trkpt>
      <trkpt lat="44.87523" lon="4.88138">
        <ele>123.67</ele>
        <time>2011-12-03T12:14:35Z</time>
      </trkpt>
      <trkpt lat="44.87525" lon="4.8817">
        <ele>124.15</ele>
        <time>2011-12-03T12:14:41Z</time>
      </trkpt>
      <trkpt lat="44.87529" lon="4.88196">
        <ele>123.67</ele>
        <time>2011-12-03T12:14:47Z</time>
      </trkpt>
      <trkpt lat="44.8754" lon="4.88223">
        <ele>124.15</ele>
        <time>2011-12-03T12:14:52Z</time>
      </trkpt>
      <trkpt lat="44.87549" lon="4.88253">
        <ele>123.67</ele>
        <time>2011-12-03T12:14:57Z</time>
      </trkpt>
      <trkpt lat="44.8755" lon="4.88278">
        <ele>123.67</ele>
        <time>2011-12-03T12:15:01Z</time>
      </trkpt>
      <trkpt lat="44.87545" lon="4.88304">
        <ele>123.19</ele>
        <time>2011-12-03T12:15:06Z</time>
      </trkpt>
      <trkpt lat="44.87536" lon="4.88325">
        <ele>123.19</ele>
        <time>2011-12-03T12:15:16Z</time>
      </trkpt>
      <trkpt lat="44.87534" lon="4.88357">
        <ele>123.19</ele>
        <time>2011-12-03T12:15:22Z</time>
      </trkpt>
      <trkpt lat="44.87537" lon="4.88389">
        <ele>123.67</ele>
        <time>2011-12-03T12:15:26Z</time>
      </trkpt>
      <trkpt lat="44.87549" lon="4.88405">
        <ele>123.19</ele>
        <time>2011-12-03T12:15:30Z</time>
      </trkpt>
      <trkpt lat="44.87567" lon="4.88412">
        <ele>123.67</ele>
        <time>2011-12-03T12:15:38Z</time>
      </trkpt>
      <trkpt lat="44.87569" lon="4.88438">
        <ele>122.22</ele>
        <time>2011-12-03T12:15:46Z</time>
      </trkpt>
      <trkpt lat="44.87564" lon="4.88469">
        <ele>121.26</ele>
        <time>2011-12-03T12:15:51Z</time>
      </trkpt>
      <trkpt lat="44.87564" lon="4.88498">
        <ele>120.78</ele>
        <time>2011-12-03T12:15:56Z</time>
      </trkpt>
      <trkpt lat="44.87565" lon="4.88524">
        <ele>120.3</ele>
        <time>2011-12-03T12:16:00Z</time>
      </trkpt>
      <trkpt lat="44.87572" lon="4.88549">
        <ele>119.34</ele>
        <time>2011-12-03T12:16:05Z</time>
      </trkpt>
      <trkpt lat="44.87566" lon="4.88572">
        <ele>119.82</ele>
        <time>2011-12-03T12:16:10Z</time>
      </trkpt>
      <trkpt lat="44.87558" lon="4.886">
        <ele>120.3</ele>
        <time>2011-12-03T12:16:14Z</time>
      </trkpt>
      <trkpt lat="44.87551" lon="4.88623">
        <ele>119.82</ele>
        <time>2011-12-03T12:16:18Z</time>
      </trkpt>
      <trkpt lat="44.87546" lon="4.88648">
        <ele>119.82</ele>
        <time>2011-12-03T12:16:23Z</time>
      </trkpt>
      <trkpt lat="44.87544" lon="4.88676">
        <ele>120.3</ele>
        <time>2011-12-03T12:16:28Z</time>
      </trkpt>
      <trkpt lat="44.87529" lon="4.8869">
        <ele>120.78</ele>
        <time>2011-12-03T12:16:35Z</time>
      </trkpt>
      <trkpt lat="44.87523" lon="4.88715">
        <ele>121.26</ele>
        <time>2011-12-03T12:16:40Z</time>
      </trkpt>
      <trkpt lat="44.87518" lon="4.88743">
        <ele>121.74</ele>
        <time>2011-12-03T12:16:45Z</time>
      </trkpt>
      <trkpt lat="44.87515" lon="4.88768">
        <ele>121.26</ele>
        <time>2011-12-03T12:16:51Z</time>
      </trkpt>
      <trkpt lat="44.87511" lon="4.88796">
        <ele>122.22</ele>
        <time>2011-12-03T12:16:56Z</time>
      </trkpt>
      <trkpt lat="44.87499" lon="4.88812">
        <ele>122.22</ele>
        <time>2011-12-03T12:17:01Z</time>
      </trkpt>
      <trkpt lat="44.87476" lon="4.88808">
        <ele>122.71</ele>
        <time>2011-12-03T12:17:06Z</time>
      </trkpt>
      <trkpt lat="44.87455" lon="4.88803">
        <ele>122.71</ele>
        <time>2011-12-03T12:17:10Z</time>
      </trkpt>
      <trkpt lat="44.87433" lon="4.88798">
        <ele>122.71</ele>
        <time>2011-12-03T12:17:14Z</time>
      </trkpt>
      <trkpt lat="44.87413" lon="4.88795">
        <ele>123.67</ele>
        <time>2011-12-03T12:17:18Z</time>
      </trkpt>
      <trkpt lat="44.87391" lon="4.88788">
        <ele>123.67</ele>
        <time>2011-12-03T12:17:23Z</time>
      </trkpt>
      <trkpt lat="44.87372" lon="4.88787">
        <ele>124.15</ele>
        <time>2011-12-03T12:17:27Z</time>
      </trkpt>
      <trkpt lat="44.87351" lon="4.88782">
        <ele>123.67</ele>
        <time>2011-12-03T12:17:31Z</time>
      </trkpt>
      <trkpt lat="44.87332" lon="4.88777">
        <ele>124.15</ele>
        <time>2011-12-03T12:17:35Z</time>
      </trkpt>
      <trkpt lat="44.87311" lon="4.88777">
        <ele>124.15</ele>
        <time>2011-12-03T12:17:39Z</time>
      </trkpt>
      <trkpt lat="44.87293" lon="4.88772">
        <ele>124.63</ele>
        <time>2011-12-03T12:17:43Z</time>
      </trkpt>
      <trkpt lat="44.87272" lon="4.88764">
        <ele>124.63</ele>
        <time>2011-12-03T12:17:47Z</time>
      </trkpt>
      <trkpt lat="44.87249" lon="4.88758">
        <ele>124.15</ele>
        <time>2011-12-03T12:17:51Z</time>
      </trkpt>
      <trkpt lat="44.87227" lon="4.88755">
        <ele>124.63</ele>
        <time>2011-12-03T12:17:55Z</time>
      </trkpt>
      <trkpt lat="44.87204" lon="4.88748">
        <ele>125.11</ele>
        <time>2011-12-03T12:17:59Z</time>
      </trkpt>
      <trkpt lat="44.87183" lon="4.88746">
        <ele>124.63</ele>
        <time>2011-12-03T12:18:03Z</time>
      </trkpt>
      <trkpt lat="44.87159" lon="4.88748">
        <ele>125.11</ele>
        <time>2011-12-03T12:18:07Z</time>
      </trkpt>
      <trkpt lat="44.8714" lon="4.88749">
        <ele>125.11</ele>
        <time>2011-12-03T12:18:10Z</time>
      </trkpt>
      <trkpt lat="44.87117" lon="4.88751">
        <ele>125.11</ele>
        <time>2011-12-03T12:18:14Z</time>
      </trkpt>
      <trkpt lat="44.87095" lon="4.88753">
        <ele>125.59</ele>
        <time>2011-12-03T12:18:18Z</time>
      </trkpt>
      <trkpt lat="44.87075" lon="4.88753">
        <ele>126.07</ele>
        <time>2011-12-03T12:18:22Z</time>
      </trkpt>
      <trkpt lat="44.87059" lon="4.88763">
        <ele>128.47</ele>
        <time>2011-12-03T12:18:27Z</time>
      </trkpt>
      <trkpt lat="44.87053" lon="4.88787">
        <ele>130.4</ele>
        <time>2011-12-03T12:18:37Z</time>
      </trkpt>
      <trkpt lat="44.87069" lon="4.88797">
        <ele>131.36</ele>
        <time>2011-12-03T12:18:47Z</time>
      </trkpt>
      <trkpt lat="44.8709" lon="4.88799">
        <ele>132.32</ele>
        <time>2011-12-03T12:18:54Z</time>
      </trkpt>
      <trkpt lat="44.87109" lon="4.88799">
        <ele>131.84</ele>
        <time>2011-12-03T12:19:01Z</time>
      </trkpt>
      <trkpt lat="44.87129" lon="4.88799">
        <ele>130.4</ele>
        <time>2011-12-03T12:19:08Z</time>
      </trkpt>
      <trkpt lat="44.87151" lon="4.88795">
        <ele>129.92</ele>
        <time>2011-12-03T12:19:17Z</time>
      </trkpt>
      <trkpt lat="44.87172" lon="4.88797">
        <ele>130.88</ele>
        <time>2011-12-03T12:19:23Z</time>
      </trkpt>
      <trkpt lat="44.87195" lon="4.88802">
        <ele>130.88</ele>
        <time>2011-12-03T12:19:32Z</time>
      </trkpt>
      <trkpt lat="44.87218" lon="4.88803">
        <ele>130.4</ele>
        <time>2011-12-03T12:19:39Z</time>
      </trkpt>
      <trkpt lat="44.87238" lon="4.88806">
        <ele>129.92</ele>
        <time>2011-12-03T12:19:47Z</time>
      </trkpt>
      <trkpt lat="44.8726" lon="4.88809">
        <ele>130.4</ele>
        <time>2011-12-03T12:19:55Z</time>
      </trkpt>
      <trkpt lat="44.87281" lon="4.88809">
        <ele>130.4</ele>
        <time>2011-12-03T12:20:02Z</time>
      </trkpt>
      <trkpt lat="44.87304" lon="4.88816">
        <ele>130.88</ele>
        <time>2011-12-03T12:20:10Z</time>
      </trkpt>
      <trkpt lat="44.87325" lon="4.88822">
        <ele>129.92</ele>
        <time>2011-12-03T12:20:17Z</time>
      </trkpt>
      <trkpt lat="44.87345" lon="4.88826">
        <ele>130.88</ele>
        <time>2011-12-03T12:20:24Z</time>
      </trkpt>
      <trkpt lat="44.87371" lon="4.88832">
        <ele>130.4</ele>
        <time>2011-12-03T12:20:30Z</time>
      </trkpt>
      <trkpt lat="44.87393" lon="4.88831">
        <ele>129.92</ele>
        <time>2011-12-03T12:20:36Z</time>
      </trkpt>
      <trkpt lat="44.87415" lon="4.88839">
        <ele>130.88</ele>
        <time>2011-12-03T12:20:43Z</time>
      </trkpt>
      <trkpt lat="44.87445" lon="4.88846">
        <ele>132.32</ele>
        <time>2011-12-03T12:20:48Z</time>
      </trkpt>
      <trkpt lat="44.87468" lon="4.88848">
        <ele>132.32</ele>
        <time>2011-12-03T12:20:51Z</time>
      </trkpt>
      <trkpt lat="44.87489" lon="4.88853">
        <ele>131.84</ele>
        <time>2011-12-03T12:20:54Z</time>
      </trkpt>
      <trkpt lat="44.87509" lon="4.88859">
        <ele>131.84</ele>
        <time>2011-12-03T12:20:57Z</time>
      </trkpt>
      <trkpt lat="44.87534" lon="4.88866">
        <ele>132.32</ele>
        <time>2011-12-03T12:21:01Z</time>
      </trkpt>
      <trkpt lat="44.87558" lon="4.88873">
        <ele>132.8</ele>
        <time>2011-12-03T12:21:05Z</time>
      </trkpt>
      <trkpt lat="44.87582" lon="4.88876">
        <ele>131.36</ele>
        <time>2011-12-03T12:21:09Z</time>
      </trkpt>
      <trkpt lat="44.87608" lon="4.88879">
        <ele>130.88</ele>
        <time>2011-12-03T12:21:13Z</time>
      </trkpt>
      <trkpt lat="44.87627" lon="4.88883">
        <ele>130.4</ele>
        <time>2011-12-03T12:21:16Z</time>
      </trkpt>
      <trkpt lat="44.87649" lon="4.88889">
        <ele>130.4</ele>
        <time>2011-12-03T12:21:20Z</time>
      </trkpt>
      <trkpt lat="44.87673" lon="4.88896">
        <ele>129.92</ele>
        <time>2011-12-03T12:21:24Z</time>
      </trkpt>
      <trkpt lat="44.87696" lon="4.88901">
        <ele>129.43</ele>
        <time>2011-12-03T12:21:28Z</time>
      </trkpt>
      <trkpt lat="44.87721" lon="4.88902">
        <ele>128.95</ele>
        <time>2011-12-03T12:21:32Z</time>
      </trkpt>
      <trkpt lat="44.8774" lon="4.88905">
        <ele>127.99</ele>
        <time>2011-12-03T12:21:35Z</time>
      </trkpt>
      <trkpt lat="44.87761" lon="4.8891">
        <ele>127.03</ele>
        <time>2011-12-03T12:21:39Z</time>
      </trkpt>
      <trkpt lat="44.8778" lon="4.8891">
        <ele>126.07</ele>
        <time>2011-12-03T12:21:43Z</time>
      </trkpt>
      <trkpt lat="44.87801" lon="4.88915">
        <ele>125.11</ele>
        <time>2011-12-03T12:21:48Z</time>
      </trkpt>
      <trkpt lat="44.87819" lon="4.88915">
        <ele>125.59</ele>
        <time>2011-12-03T12:22:02Z</time>
      </trkpt>
      <trkpt lat="44.87832" lon="4.88932">
        <ele>127.51</ele>
        <time>2011-12-03T12:22:12Z</time>
      </trkpt>
      <trkpt lat="44.87821" lon="4.88947">
        <ele>129.92</ele>
        <time>2011-12-03T12:22:24Z</time>
      </trkpt>
      <trkpt lat="44.87801" lon="4.88949">
        <ele>132.32</ele>
        <time>2011-12-03T12:22:32Z</time>
      </trkpt>
      <trkpt lat="44.87783" lon="4.88948">
        <ele>134.24</ele>
        <time>2011-12-03T12:22:40Z</time>
      </trkpt>
      <trkpt lat="44.87763" lon="4.88946">
        <ele>135.68</ele>
        <time>2011-12-03T12:22:47Z</time>
      </trkpt>
      <trkpt lat="44.87741" lon="4.88944">
        <ele>137.61</ele>
        <time>2011-12-03T12:22:54Z</time>
      </trkpt>
      <trkpt lat="44.87721" lon="4.88942">
        <ele>139.53</ele>
        <time>2011-12-03T12:23:02Z</time>
      </trkpt>
      <trkpt lat="44.87702" lon="4.88942">
        <ele>140.49</ele>
        <time>2011-12-03T12:23:09Z</time>
      </trkpt>
      <trkpt lat="44.87687" lon="4.88954">
        <ele>141.93</ele>
        <time>2011-12-03T12:23:15Z</time>
      </trkpt>
      <trkpt lat="44.87687" lon="4.88981">
        <ele>142.89</ele>
        <time>2011-12-03T12:23:22Z</time>
      </trkpt>
      <trkpt lat="44.87692" lon="4.89006">
        <ele>143.37</ele>
        <time>2011-12-03T12:23:29Z</time>
      </trkpt>
      <trkpt lat="44.87689" lon="4.89032">
        <ele>145.3</ele>
        <time>2011-12-03T12:23:36Z</time>
      </trkpt>
      <trkpt lat="44.87687" lon="4.8906">
        <ele>145.78</ele>
        <time>2011-12-03T12:23:42Z</time>
      </trkpt>
      <trkpt lat="44.87684" lon="4.89088">
        <ele>145.78</ele>
        <time>2011-12-03T12:23:46Z</time>
      </trkpt>
      <trkpt lat="44.8768" lon="4.89118">
        <ele>146.26</ele>
        <time>2011-12-03T12:23:50Z</time>
      </trkpt>
      <trkpt lat="44.87677" lon="4.89148">
        <ele>145.78</ele>
        <time>2011-12-03T12:23:54Z</time>
      </trkpt>
      <trkpt lat="44.87674" lon="4.8918">
        <ele>145.78</ele>
        <time>2011-12-03T12:23:58Z</time>
      </trkpt>
      <trkpt lat="44.8767" lon="4.8921">
        <ele>145.3</ele>
        <time>2011-12-03T12:24:02Z</time>
      </trkpt>
      <trkpt lat="44.87667" lon="4.89239">
        <ele>144.82</ele>
        <time>2011-12-03T12:24:06Z</time>
      </trkpt>
      <trkpt lat="44.87664" lon="4.89268">
        <ele>145.3</ele>
        <time>2011-12-03T12:24:10Z</time>
      </trkpt>
      <trkpt lat="44.87661" lon="4.89296">
        <ele>145.3</ele>
        <time>2011-12-03T12:24:14Z</time>
      </trkpt>
      <trkpt lat="44.8766" lon="4.89324">
        <ele>145.3</ele>
        <time>2011-12-03T12:24:18Z</time>
      </trkpt>
      <trkpt lat="44.8766" lon="4.89353">
        <ele>145.3</ele>
        <time>2011-12-03T12:24:22Z</time>
      </trkpt>
      <trkpt lat="44.8767" lon="4.89381">
        <ele>145.3</ele>
        <time>2011-12-03T12:24:26Z</time>
      </trkpt>
      <trkpt lat="44.87688" lon="4.89398">
        <ele>144.34</ele>
        <time>2011-12-03T12:24:30Z</time>
      </trkpt>
      <trkpt lat="44.87705" lon="4.89409">
        <ele>143.85</ele>
        <time>2011-12-03T12:24:34Z</time>
      </trkpt>
      <trkpt lat="44.87724" lon="4.89413">
        <ele>143.85</ele>
        <time>2011-12-03T12:24:42Z</time>
      </trkpt>
      <trkpt lat="44.87745" lon="4.89418">
        <ele>143.85</ele>
        <time>2011-12-03T12:24:47Z</time>
      </trkpt>
      <trkpt lat="44.87766" lon="4.89418">
        <ele>143.85</ele>
        <time>2011-12-03T12:24:51Z</time>
      </trkpt>
      <trkpt lat="44.87782" lon="4.89429">
        <ele>143.37</ele>
        <time>2011-12-03T12:24:55Z</time>
      </trkpt>
      <trkpt lat="44.87781" lon="4.8946">
        <ele>143.85</ele>
        <time>2011-12-03T12:24:59Z</time>
      </trkpt>
      <trkpt lat="44.8778" lon="4.89493">
        <ele>144.34</ele>
        <time>2011-12-03T12:25:03Z</time>
      </trkpt>
      <trkpt lat="44.8778" lon="4.89527">
        <ele>143.85</ele>
        <time>2011-12-03T12:25:07Z</time>
      </trkpt>
      <trkpt lat="44.8778" lon="4.89552">
        <ele>144.82</ele>
        <time>2011-12-03T12:25:10Z</time>
      </trkpt>
      <trkpt lat="44.8778" lon="4.89585">
        <ele>143.85</ele>
        <time>2011-12-03T12:25:14Z</time>
      </trkpt>
      <trkpt lat="44.87779" lon="4.89617">
        <ele>144.34</ele>
        <time>2011-12-03T12:25:18Z</time>
      </trkpt>
      <trkpt lat="44.87779" lon="4.89649">
        <ele>144.34</ele>
        <time>2011-12-03T12:25:22Z</time>
      </trkpt>
      <trkpt lat="44.87779" lon="4.89679">
        <ele>144.82</ele>
        <time>2011-12-03T12:25:26Z</time>
      </trkpt>
      <trkpt lat="44.87778" lon="4.89707">
        <ele>145.3</ele>
        <time>2011-12-03T12:25:30Z</time>
      </trkpt>
      <trkpt lat="44.87778" lon="4.89734">
        <ele>145.78</ele>
        <time>2011-12-03T12:25:34Z</time>
      </trkpt>
      <trkpt lat="44.87778" lon="4.89763">
        <ele>146.74</ele>
        <time>2011-12-03T12:25:39Z</time>
      </trkpt>
      <trkpt lat="44.87775" lon="4.89788">
        <ele>148.18</ele>
        <time>2011-12-03T12:25:44Z</time>
      </trkpt>
      <trkpt lat="44.8777" lon="4.89814">
        <ele>151.06</ele>
        <time>2011-12-03T12:25:50Z</time>
      </trkpt>
      <trkpt lat="44.87764" lon="4.89841">
        <ele>152.99</ele>
        <time>2011-12-03T12:25:57Z</time>
      </trkpt>
      <trkpt lat="44.87753" lon="4.89867">
        <ele>153.47</ele>
        <time>2011-12-03T12:26:03Z</time>
      </trkpt>
      <trkpt lat="44.87742" lon="4.89891">
        <ele>152.99</ele>
        <time>2011-12-03T12:26:07Z</time>
      </trkpt>
      <trkpt lat="44.87731" lon="4.89921">
        <ele>152.03</ele>
        <time>2011-12-03T12:26:11Z</time>
      </trkpt>
      <trkpt lat="44.87722" lon="4.89947">
        <ele>151.06</ele>
        <time>2011-12-03T12:26:14Z</time>
      </trkpt>
      <trkpt lat="44.87713" lon="4.89975">
        <ele>150.1</ele>
        <time>2011-12-03T12:26:17Z</time>
      </trkpt>
      <trkpt lat="44.87703" lon="4.90005">
        <ele>148.66</ele>
        <time>2011-12-03T12:26:20Z</time>
      </trkpt>
      <trkpt lat="44.87697" lon="4.90029">
        <ele>147.7</ele>
        <time>2011-12-03T12:26:23Z</time>
      </trkpt>
      <trkpt lat="44.87706" lon="4.90053">
        <ele>148.18</ele>
        <time>2011-12-03T12:26:27Z</time>
      </trkpt>
      <trkpt lat="44.87724" lon="4.90072">
        <ele>148.66</ele>
        <time>2011-12-03T12:26:31Z</time>
      </trkpt>
      <trkpt lat="44.8774" lon="4.90089">
        <ele>149.14</ele>
        <time>2011-12-03T12:26:35Z</time>
      </trkpt>
      <trkpt lat="44.87756" lon="4.90108">
        <ele>149.14</ele>
        <time>2011-12-03T12:26:39Z</time>
      </trkpt>
      <trkpt lat="44.8777" lon="4.90128">
        <ele>149.62</ele>
        <time>2011-12-03T12:26:43Z</time>
      </trkpt>
      <trkpt lat="44.87783" lon="4.90149">
        <ele>150.58</ele>
        <time>2011-12-03T12:26:47Z</time>
      </trkpt>
      <trkpt lat="44.87796" lon="4.90171">
        <ele>151.06</ele>
        <time>2011-12-03T12:26:51Z</time>
      </trkpt>
      <trkpt lat="44.87807" lon="4.90193">
        <ele>152.03</ele>
        <time>2011-12-03T12:26:55Z</time>
      </trkpt>
      <trkpt lat="44.87819" lon="4.90218">
        <ele>152.03</ele>
        <time>2011-12-03T12:27:00Z</time>
      </trkpt>
      <trkpt lat="44.87832" lon="4.90245">
        <ele>152.51</ele>
        <time>2011-12-03T12:27:05Z</time>
      </trkpt>
      <trkpt lat="44.87843" lon="4.90269">
        <ele>152.99</ele>
        <time>2011-12-03T12:27:10Z</time>
      </trkpt>
      <trkpt lat="44.87854" lon="4.90297">
        <ele>153.95</ele>
        <time>2011-12-03T12:27:15Z</time>
      </trkpt>
      <trkpt lat="44.87864" lon="4.90325">
        <ele>154.43</ele>
        <time>2011-12-03T12:27:20Z</time>
      </trkpt>
      <trkpt lat="44.87861" lon="4.90353">
        <ele>154.43</ele>
        <time>2011-12-03T12:27:25Z</time>
      </trkpt>
      <trkpt lat="44.87842" lon="4.90376">
        <ele>154.43</ele>
        <time>2011-12-03T12:27:30Z</time>
      </trkpt>
      <trkpt lat="44.87824" lon="4.90389">
        <ele>154.91</ele>
        <time>2011-12-03T12:27:34Z</time>
      </trkpt>
      <trkpt lat="44.87806" lon="4.90399">
        <ele>155.39</ele>
        <time>2011-12-03T12:27:38Z</time>
      </trkpt>
      <trkpt lat="44.87788" lon="4.9041">
        <ele>155.39</ele>
        <time>2011-12-03T12:27:42Z</time>
      </trkpt>
      <trkpt lat="44.87774" lon="4.90429">
        <ele>155.87</ele>
        <time>2011-12-03T12:27:46Z</time>
      </trkpt>
      <trkpt lat="44.87769" lon="4.90456">
        <ele>155.87</ele>
        <time>2011-12-03T12:27:50Z</time>
      </trkpt>
      <trkpt lat="44.87774" lon="4.90481">
        <ele>156.83</ele>
        <time>2011-12-03T12:27:54Z</time>
      </trkpt>
      <trkpt lat="44.87786" lon="4.90506">
        <ele>157.31</ele>
        <time>2011-12-03T12:27:59Z</time>
      </trkpt>
      <trkpt lat="44.878" lon="4.90528">
        <ele>157.79</ele>
        <time>2011-12-03T12:28:04Z</time>
      </trkpt>
      <trkpt lat="44.87818" lon="4.90547">
        <ele>157.79</ele>
        <time>2011-12-03T12:28:09Z</time>
      </trkpt>
      <trkpt lat="44.87835" lon="4.90565">
        <ele>157.79</ele>
        <time>2011-12-03T12:28:14Z</time>
      </trkpt>
      <trkpt lat="44.87852" lon="4.90583">
        <ele>157.79</ele>
        <time>2011-12-03T12:28:19Z</time>
      </trkpt>
      <trkpt lat="44.87869" lon="4.90599">
        <ele>158.75</ele>
        <time>2011-12-03T12:28:24Z</time>
      </trkpt>
      <trkpt lat="44.87885" lon="4.90615">
        <ele>159.24</ele>
        <time>2011-12-03T12:28:28Z</time>
      </trkpt>
      <trkpt lat="44.87901" lon="4.90633">
        <ele>159.24</ele>
        <time>2011-12-03T12:28:32Z</time>
      </trkpt>
      <trkpt lat="44.87917" lon="4.90654">
        <ele>159.72</ele>
        <time>2011-12-03T12:28:36Z</time>
      </trkpt>
      <trkpt lat="44.87931" lon="4.90674">
        <ele>159.72</ele>
        <time>2011-12-03T12:28:40Z</time>
      </trkpt>
      <trkpt lat="44.87946" lon="4.90694">
        <ele>159.72</ele>
        <time>2011-12-03T12:28:44Z</time>
      </trkpt>
      <trkpt lat="44.8796" lon="4.90714">
        <ele>160.2</ele>
        <time>2011-12-03T12:28:48Z</time>
      </trkpt>
      <trkpt lat="44.87974" lon="4.90733">
        <ele>160.2</ele>
        <time>2011-12-03T12:28:52Z</time>
      </trkpt>
      <trkpt lat="44.87988" lon="4.90752">
        <ele>161.64</ele>
        <time>2011-12-03T12:28:56Z</time>
      </trkpt>
      <trkpt lat="44.88001" lon="4.90771">
        <ele>161.64</ele>
        <time>2011-12-03T12:29:00Z</time>
      </trkpt>
      <trkpt lat="44.88015" lon="4.90789">
        <ele>162.12</ele>
        <time>2011-12-03T12:29:04Z</time>
      </trkpt>
      <trkpt lat="44.8803" lon="4.90807">
        <ele>162.12</ele>
        <time>2011-12-03T12:29:08Z</time>
      </trkpt>
      <trkpt lat="44.88046" lon="4.90823">
        <ele>162.6</ele>
        <time>2011-12-03T12:29:12Z</time>
      </trkpt>
      <trkpt lat="44.88061" lon="4.90838">
        <ele>163.56</ele>
        <time>2011-12-03T12:29:16Z</time>
      </trkpt>
      <trkpt lat="44.88077" lon="4.90852">
        <ele>163.56</ele>
        <time>2011-12-03T12:29:20Z</time>
      </trkpt>
      <trkpt lat="44.88094" lon="4.90869">
        <ele>164.04</ele>
        <time>2011-12-03T12:29:24Z</time>
      </trkpt>
      <trkpt lat="44.88111" lon="4.90885">
        <ele>164.04</ele>
        <time>2011-12-03T12:29:28Z</time>
      </trkpt>
      <trkpt lat="44.88128" lon="4.90902">
        <ele>164.52</ele>
        <time>2011-12-03T12:29:32Z</time>
      </trkpt>
      <trkpt lat="44.88143" lon="4.90918">
        <ele>164.52</ele>
        <time>2011-12-03T12:29:36Z</time>
      </trkpt>
      <trkpt lat="44.88157" lon="4.90936">
        <ele>165</ele>
        <time>2011-12-03T12:29:40Z</time>
      </trkpt>
      <trkpt lat="44.88173" lon="4.90958">
        <ele>165.48</ele>
        <time>2011-12-03T12:29:45Z</time>
      </trkpt>
      <trkpt lat="44.88189" lon="4.90976">
        <ele>165.96</ele>
        <time>2011-12-03T12:29:50Z</time>
      </trkpt>
      <trkpt lat="44.88203" lon="4.90999">
        <ele>165.96</ele>
        <time>2011-12-03T12:29:55Z</time>
      </trkpt>
      <trkpt lat="44.88216" lon="4.91026">
        <ele>166.45</ele>
        <time>2011-12-03T12:30:00Z</time>
      </trkpt>
      <trkpt lat="44.88228" lon="4.91051">
        <ele>166.93</ele>
        <time>2011-12-03T12:30:05Z</time>
      </trkpt>
      <trkpt lat="44.8824" lon="4.91075">
        <ele>167.89</ele>
        <time>2011-12-03T12:30:10Z</time>
      </trkpt>
      <trkpt lat="44.88238" lon="4.911">
        <ele>168.85</ele>
        <time>2011-12-03T12:30:17Z</time>
      </trkpt>
      <trkpt lat="44.88219" lon="4.9111">
        <ele>170.29</ele>
        <time>2011-12-03T12:30:24Z</time>
      </trkpt>
      <trkpt lat="44.88201" lon="4.91119">
        <ele>172.21</ele>
        <time>2011-12-03T12:30:31Z</time>
      </trkpt>
      <trkpt lat="44.88181" lon="4.91131">
        <ele>174.14</ele>
        <time>2011-12-03T12:30:39Z</time>
      </trkpt>
      <trkpt lat="44.88164" lon="4.9114">
        <ele>176.06</ele>
        <time>2011-12-03T12:30:47Z</time>
      </trkpt>
      <trkpt lat="44.88145" lon="4.91144">
        <ele>177.98</ele>
        <time>2011-12-03T12:30:54Z</time>
      </trkpt>
      <trkpt lat="44.88125" lon="4.91145">
        <ele>178.46</ele>
        <time>2011-12-03T12:31:00Z</time>
      </trkpt>
      <trkpt lat="44.88102" lon="4.91145">
        <ele>178.46</ele>
        <time>2011-12-03T12:31:05Z</time>
      </trkpt>
      <trkpt lat="44.88082" lon="4.91143">
        <ele>178.46</ele>
        <time>2011-12-03T12:31:09Z</time>
      </trkpt>
      <trkpt lat="44.88061" lon="4.91142">
        <ele>178.46</ele>
        <time>2011-12-03T12:31:13Z</time>
      </trkpt>
      <trkpt lat="44.88039" lon="4.91142">
        <ele>178.94</ele>
        <time>2011-12-03T12:31:17Z</time>
      </trkpt>
      <trkpt lat="44.88016" lon="4.91141">
        <ele>178.46</ele>
        <time>2011-12-03T12:31:21Z</time>
      </trkpt>
      <trkpt lat="44.87993" lon="4.91141">
        <ele>178.94</ele>
        <time>2011-12-03T12:31:25Z</time>
      </trkpt>
      <trkpt lat="44.87969" lon="4.9114">
        <ele>178.94</ele>
        <time>2011-12-03T12:31:29Z</time>
      </trkpt>
      <trkpt lat="44.87945" lon="4.9114">
        <ele>178.46</ele>
        <time>2011-12-03T12:31:33Z</time>
      </trkpt>
      <trkpt lat="44.87926" lon="4.91139">
        <ele>178.46</ele>
        <time>2011-12-03T12:31:36Z</time>
      </trkpt>
      <trkpt lat="44.87906" lon="4.91137">
        <ele>178.94</ele>
        <time>2011-12-03T12:31:39Z</time>
      </trkpt>
      <trkpt lat="44.87887" lon="4.91137">
        <ele>178.46</ele>
        <time>2011-12-03T12:31:42Z</time>
      </trkpt>
      <trkpt lat="44.87869" lon="4.91135">
        <ele>178.94</ele>
        <time>2011-12-03T12:31:45Z</time>
      </trkpt>
      <trkpt lat="44.8785" lon="4.91134">
        <ele>178.46</ele>
        <time>2011-12-03T12:31:48Z</time>
      </trkpt>
      <trkpt lat="44.87831" lon="4.91134">
        <ele>178.46</ele>
        <time>2011-12-03T12:31:51Z</time>
      </trkpt>
      <trkpt lat="44.87812" lon="4.91133">
        <ele>178.46</ele>
        <time>2011-12-03T12:31:54Z</time>
      </trkpt>
      <trkpt lat="44.87793" lon="4.91132">
        <ele>178.46</ele>
        <time>2011-12-03T12:31:57Z</time>
      </trkpt>
      <trkpt lat="44.87773" lon="4.91131">
        <ele>177.98</ele>
        <time>2011-12-03T12:32:00Z</time>
      </trkpt>
      <trkpt lat="44.87753" lon="4.91131">
        <ele>177.5</ele>
        <time>2011-12-03T12:32:03Z</time>
      </trkpt>
      <trkpt lat="44.87734" lon="4.9113">
        <ele>177.98</ele>
        <time>2011-12-03T12:32:06Z</time>
      </trkpt>
      <trkpt lat="44.87714" lon="4.91129">
        <ele>177.5</ele>
        <time>2011-12-03T12:32:09Z</time>
      </trkpt>
      <trkpt lat="44.87691" lon="4.91129">
        <ele>177.5</ele>
        <time>2011-12-03T12:32:13Z</time>
      </trkpt>
      <trkpt lat="44.87669" lon="4.91128">
        <ele>177.02</ele>
        <time>2011-12-03T12:32:17Z</time>
      </trkpt>
      <trkpt lat="44.8765" lon="4.91134">
        <ele>177.02</ele>
        <time>2011-12-03T12:32:21Z</time>
      </trkpt>
      <trkpt lat="44.87634" lon="4.91151">
        <ele>176.54</ele>
        <time>2011-12-03T12:32:25Z</time>
      </trkpt>
      <trkpt lat="44.87639" lon="4.91179">
        <ele>175.58</ele>
        <time>2011-12-03T12:32:30Z</time>
      </trkpt>
      <trkpt lat="44.87643" lon="4.91206">
        <ele>176.06</ele>
        <time>2011-12-03T12:32:34Z</time>
      </trkpt>
      <trkpt lat="44.87646" lon="4.91237">
        <ele>174.62</ele>
        <time>2011-12-03T12:32:38Z</time>
      </trkpt>
      <trkpt lat="44.87641" lon="4.91269">
        <ele>174.62</ele>
        <time>2011-12-03T12:32:42Z</time>
      </trkpt>
      <trkpt lat="44.87624" lon="4.91283">
        <ele>172.69</ele>
        <time>2011-12-03T12:32:45Z</time>
      </trkpt>
      <trkpt lat="44.87604" lon="4.91274">
        <ele>170.77</ele>
        <time>2011-12-03T12:32:48Z</time>
      </trkpt>
      <trkpt lat="44.87583" lon="4.91252">
        <ele>169.33</ele>
        <time>2011-12-03T12:32:51Z</time>
      </trkpt>
      <trkpt lat="44.87562" lon="4.9123">
        <ele>167.89</ele>
        <time>2011-12-03T12:32:54Z</time>
      </trkpt>
      <trkpt lat="44.87542" lon="4.9121">
        <ele>167.89</ele>
        <time>2011-12-03T12:32:57Z</time>
      </trkpt>
      <trkpt lat="44.87521" lon="4.91192">
        <ele>167.41</ele>
        <time>2011-12-03T12:33:00Z</time>
      </trkpt>
      <trkpt lat="44.875" lon="4.91174">
        <ele>166.93</ele>
        <time>2011-12-03T12:33:03Z</time>
      </trkpt>
      <trkpt lat="44.87478" lon="4.91156">
        <ele>166.45</ele>
        <time>2011-12-03T12:33:06Z</time>
      </trkpt>
      <trkpt lat="44.87458" lon="4.9114">
        <ele>165.96</ele>
        <time>2011-12-03T12:33:09Z</time>
      </trkpt>
      <trkpt lat="44.87435" lon="4.91127">
        <ele>164.04</ele>
        <time>2011-12-03T12:33:12Z</time>
      </trkpt>
      <trkpt lat="44.87409" lon="4.9112">
        <ele>163.56</ele>
        <time>2011-12-03T12:33:15Z</time>
      </trkpt>
      <trkpt lat="44.87382" lon="4.91117">
        <ele>163.08</ele>
        <time>2011-12-03T12:33:18Z</time>
      </trkpt>
      <trkpt lat="44.87364" lon="4.91113">
        <ele>163.08</ele>
        <time>2011-12-03T12:33:20Z</time>
      </trkpt>
      <trkpt lat="44.87345" lon="4.91108">
        <ele>162.12</ele>
        <time>2011-12-03T12:33:22Z</time>
      </trkpt>
      <trkpt lat="44.87326" lon="4.911">
        <ele>161.16</ele>
        <time>2011-12-03T12:33:24Z</time>
      </trkpt>
      <trkpt lat="44.87307" lon="4.91089">
        <ele>160.68</ele>
        <time>2011-12-03T12:33:26Z</time>
      </trkpt>
      <trkpt lat="44.87288" lon="4.91077">
        <ele>159.24</ele>
        <time>2011-12-03T12:33:28Z</time>
      </trkpt>
      <trkpt lat="44.87269" lon="4.91066">
        <ele>158.27</ele>
        <time>2011-12-03T12:33:30Z</time>
      </trkpt>
      <trkpt lat="44.8725" lon="4.91057">
        <ele>158.27</ele>
        <time>2011-12-03T12:33:32Z</time>
      </trkpt>
      <trkpt lat="44.8723" lon="4.9105">
        <ele>157.79</ele>
        <time>2011-12-03T12:33:34Z</time>
      </trkpt>
      <trkpt lat="44.87209" lon="4.91048">
        <ele>155.87</ele>
        <time>2011-12-03T12:33:36Z</time>
      </trkpt>
      <trkpt lat="44.87187" lon="4.91048">
        <ele>155.39</ele>
        <time>2011-12-03T12:33:38Z</time>
      </trkpt>
      <trkpt lat="44.87166" lon="4.91052">
        <ele>154.91</ele>
        <time>2011-12-03T12:33:40Z</time>
      </trkpt>
      <trkpt lat="44.87145" lon="4.91056">
        <ele>153.47</ele>
        <time>2011-12-03T12:33:42Z</time>
      </trkpt>
      <trkpt lat="44.87128" lon="4.91065">
        <ele>152.03</ele>
        <time>2011-12-03T12:33:44Z</time>
      </trkpt>
      <trkpt lat="44.87109" lon="4.91088">
        <ele>151.54</ele>
        <time>2011-12-03T12:33:47Z</time>
      </trkpt>
      <trkpt lat="44.8709" lon="4.91115">
        <ele>152.51</ele>
        <time>2011-12-03T12:33:50Z</time>
      </trkpt>
      <trkpt lat="44.87074" lon="4.91136">
        <ele>150.58</ele>
        <time>2011-12-03T12:33:53Z</time>
      </trkpt>
      <trkpt lat="44.87059" lon="4.9115">
        <ele>149.62</ele>
        <time>2011-12-03T12:33:56Z</time>
      </trkpt>
      <trkpt lat="44.87041" lon="4.91169">
        <ele>149.14</ele>
        <time>2011-12-03T12:33:59Z</time>
      </trkpt>
      <trkpt lat="44.87022" lon="4.91193">
        <ele>149.62</ele>
        <time>2011-12-03T12:34:02Z</time>
      </trkpt>
      <trkpt lat="44.87004" lon="4.9122">
        <ele>148.18</ele>
        <time>2011-12-03T12:34:05Z</time>
      </trkpt>
      <trkpt lat="44.86993" lon="4.91241">
        <ele>147.7</ele>
        <time>2011-12-03T12:34:07Z</time>
      </trkpt>
      <trkpt lat="44.86981" lon="4.91264">
        <ele>147.22</ele>
        <time>2011-12-03T12:34:09Z</time>
      </trkpt>
      <trkpt lat="44.86971" lon="4.9129">
        <ele>147.22</ele>
        <time>2011-12-03T12:34:11Z</time>
      </trkpt>
      <trkpt lat="44.86963" lon="4.91318">
        <ele>147.22</ele>
        <time>2011-12-03T12:34:13Z</time>
      </trkpt>
      <trkpt lat="44.86953" lon="4.91343">
        <ele>145.78</ele>
        <time>2011-12-03T12:34:15Z</time>
      </trkpt>
      <trkpt lat="44.86943" lon="4.91368">
        <ele>144.34</ele>
        <time>2011-12-03T12:34:17Z</time>
      </trkpt>
      <trkpt lat="44.86934" lon="4.91392">
        <ele>144.34</ele>
        <time>2011-12-03T12:34:19Z</time>
      </trkpt>
      <trkpt lat="44.86926" lon="4.91416">
        <ele>143.85</ele>
        <time>2011-12-03T12:34:21Z</time>
      </trkpt>
      <trkpt lat="44.86914" lon="4.9145">
        <ele>143.85</ele>
        <time>2011-12-03T12:34:24Z</time>
      </trkpt>
      <trkpt lat="44.8691" lon="4.91484">
        <ele>143.85</ele>
        <time>2011-12-03T12:34:27Z</time>
      </trkpt>
      <trkpt lat="44.86913" lon="4.91517">
        <ele>142.89</ele>
        <time>2011-12-03T12:34:30Z</time>
      </trkpt>
      <trkpt lat="44.86916" lon="4.91547">
        <ele>142.41</ele>
        <time>2011-12-03T12:34:33Z</time>
      </trkpt>
      <trkpt lat="44.86919" lon="4.91576">
        <ele>142.41</ele>
        <time>2011-12-03T12:34:36Z</time>
      </trkpt>
      <trkpt lat="44.86922" lon="4.91604">
        <ele>142.41</ele>
        <time>2011-12-03T12:34:39Z</time>
      </trkpt>
      <trkpt lat="44.86925" lon="4.91631">
        <ele>142.89</ele>
        <time>2011-12-03T12:34:42Z</time>
      </trkpt>
      <trkpt lat="44.86928" lon="4.91659">
        <ele>143.37</ele>
        <time>2011-12-03T12:34:45Z</time>
      </trkpt>
      <trkpt lat="44.86931" lon="4.91686">
        <ele>142.89</ele>
        <time>2011-12-03T12:34:48Z</time>
      </trkpt>
      <trkpt lat="44.86935" lon="4.91714">
        <ele>143.37</ele>
        <time>2011-12-03T12:34:51Z</time>
      </trkpt>
      <trkpt lat="44.86938" lon="4.91741">
        <ele>142.89</ele>
        <time>2011-12-03T12:34:54Z</time>
      </trkpt>
      <trkpt lat="44.86941" lon="4.91768">
        <ele>142.89</ele>
        <time>2011-12-03T12:34:57Z</time>
      </trkpt>
      <trkpt lat="44.86939" lon="4.91796">
        <ele>141.93</ele>
        <time>2011-12-03T12:35:01Z</time>
      </trkpt>
      <trkpt lat="44.86918" lon="4.91803">
        <ele>142.41</ele>
        <time>2011-12-03T12:35:05Z</time>
      </trkpt>
      <trkpt lat="44.86895" lon="4.91808">
        <ele>142.41</ele>
        <time>2011-12-03T12:35:09Z</time>
      </trkpt>
      <trkpt lat="44.86871" lon="4.91815">
        <ele>142.89</ele>
        <time>2011-12-03T12:35:13Z</time>
      </trkpt>
      <trkpt lat="44.86848" lon="4.91823">
        <ele>142.89</ele>
        <time>2011-12-03T12:35:17Z</time>
      </trkpt>
      <trkpt lat="44.8683" lon="4.91828">
        <ele>142.89</ele>
        <time>2011-12-03T12:35:20Z</time>
      </trkpt>
      <trkpt lat="44.86808" lon="4.91835">
        <ele>142.41</ele>
        <time>2011-12-03T12:35:24Z</time>
      </trkpt>
      <trkpt lat="44.86788" lon="4.91839">
        <ele>140.49</ele>
        <time>2011-12-03T12:35:27Z</time>
      </trkpt>
      <trkpt lat="44.86765" lon="4.91845">
        <ele>135.2</ele>
        <time>2011-12-03T12:35:31Z</time>
      </trkpt>
      <trkpt lat="44.86763" lon="4.91866">
        <ele>135.2</ele>
        <time>2011-12-03T12:35:36Z</time>
      </trkpt>
      <trkpt lat="44.86771" lon="4.9189">
        <ele>135.68</ele>
        <time>2011-12-03T12:35:40Z</time>
      </trkpt>
      <trkpt lat="44.86777" lon="4.91916">
        <ele>136.16</ele>
        <time>2011-12-03T12:35:44Z</time>
      </trkpt>
      <trkpt lat="44.86785" lon="4.9194">
        <ele>136.16</ele>
        <time>2011-12-03T12:35:48Z</time>
      </trkpt>
      <trkpt lat="44.86797" lon="4.91962">
        <ele>137.61</ele>
        <time>2011-12-03T12:35:52Z</time>
      </trkpt>
      <trkpt lat="44.86809" lon="4.91982">
        <ele>138.09</ele>
        <time>2011-12-03T12:35:56Z</time>
      </trkpt>
      <trkpt lat="44.86821" lon="4.92003">
        <ele>137.61</ele>
        <time>2011-12-03T12:36:00Z</time>
      </trkpt>
      <trkpt lat="44.86834" lon="4.92027">
        <ele>137.13</ele>
        <time>2011-12-03T12:36:04Z</time>
      </trkpt>
      <trkpt lat="44.86839" lon="4.9206">
        <ele>137.13</ele>
        <time>2011-12-03T12:36:08Z</time>
      </trkpt>
      <trkpt lat="44.86841" lon="4.9209">
        <ele>136.16</ele>
        <time>2011-12-03T12:36:12Z</time>
      </trkpt>
      <trkpt lat="44.86844" lon="4.9212">
        <ele>136.16</ele>
        <time>2011-12-03T12:36:16Z</time>
      </trkpt>
      <trkpt lat="44.86832" lon="4.92142">
        <ele>135.2</ele>
        <time>2011-12-03T12:36:20Z</time>
      </trkpt>
      <trkpt lat="44.86813" lon="4.92147">
        <ele>135.68</ele>
        <time>2011-12-03T12:36:23Z</time>
      </trkpt>
      <trkpt lat="44.86794" lon="4.92156">
        <ele>135.2</ele>
        <time>2011-12-03T12:36:26Z</time>
      </trkpt>
      <trkpt lat="44.86773" lon="4.92166">
        <ele>135.68</ele>
        <time>2011-12-03T12:36:29Z</time>
      </trkpt>
      <trkpt lat="44.86754" lon="4.92177">
        <ele>135.68</ele>
        <time>2011-12-03T12:36:32Z</time>
      </trkpt>
      <trkpt lat="44.86734" lon="4.92188">
        <ele>135.68</ele>
        <time>2011-12-03T12:36:35Z</time>
      </trkpt>
      <trkpt lat="44.86717" lon="4.92199">
        <ele>134.24</ele>
        <time>2011-12-03T12:36:38Z</time>
      </trkpt>
      <trkpt lat="44.86699" lon="4.92211">
        <ele>134.24</ele>
        <time>2011-12-03T12:36:41Z</time>
      </trkpt>
      <trkpt lat="44.86681" lon="4.92221">
        <ele>134.24</ele>
        <time>2011-12-03T12:36:44Z</time>
      </trkpt>
      <trkpt lat="44.86671" lon="4.92239">
        <ele>133.28</ele>
        <time>2011-12-03T12:36:49Z</time>
      </trkpt>
      <trkpt lat="44.86676" lon="4.92265">
        <ele>134.24</ele>
        <time>2011-12-03T12:36:54Z</time>
      </trkpt>
      <trkpt lat="44.86689" lon="4.92283">
        <ele>134.24</ele>
        <time>2011-12-03T12:36:59Z</time>
      </trkpt>
      <trkpt lat="44.86711" lon="4.92293">
        <ele>135.2</ele>
        <time>2011-12-03T12:37:04Z</time>
      </trkpt>
      <trkpt lat="44.86729" lon="4.92307">
        <ele>135.68</ele>
        <time>2011-12-03T12:37:08Z</time>
      </trkpt>
      <trkpt lat="44.86745" lon="4.92327">
        <ele>135.2</ele>
        <time>2011-12-03T12:37:12Z</time>
      </trkpt>
      <trkpt lat="44.86761" lon="4.92348">
        <ele>135.2</ele>
        <time>2011-12-03T12:37:16Z</time>
      </trkpt>
      <trkpt lat="44.86779" lon="4.92362">
        <ele>134.72</ele>
        <time>2011-12-03T12:37:20Z</time>
      </trkpt>
      <trkpt lat="44.86797" lon="4.9237">
        <ele>135.2</ele>
        <time>2011-12-03T12:37:24Z</time>
      </trkpt>
      <trkpt lat="44.8682" lon="4.92382">
        <ele>135.68</ele>
        <time>2011-12-03T12:37:29Z</time>
      </trkpt>
      <trkpt lat="44.86835" lon="4.924">
        <ele>135.68</ele>
        <time>2011-12-03T12:37:33Z</time>
      </trkpt>
      <trkpt lat="44.86847" lon="4.92423">
        <ele>135.68</ele>
        <time>2011-12-03T12:37:37Z</time>
      </trkpt>
      <trkpt lat="44.86859" lon="4.92447">
        <ele>135.2</ele>
        <time>2011-12-03T12:37:41Z</time>
      </trkpt>
      <trkpt lat="44.86872" lon="4.92469">
        <ele>135.2</ele>
        <time>2011-12-03T12:37:45Z</time>
      </trkpt>
      <trkpt lat="44.86883" lon="4.92495">
        <ele>135.68</ele>
        <time>2011-12-03T12:37:49Z</time>
      </trkpt>
      <trkpt lat="44.86894" lon="4.92523">
        <ele>135.68</ele>
        <time>2011-12-03T12:37:53Z</time>
      </trkpt>
      <trkpt lat="44.86905" lon="4.9255">
        <ele>135.68</ele>
        <time>2011-12-03T12:37:57Z</time>
      </trkpt>
      <trkpt lat="44.86917" lon="4.92574">
        <ele>136.16</ele>
        <time>2011-12-03T12:38:01Z</time>
      </trkpt>
      <trkpt lat="44.86928" lon="4.92598">
        <ele>136.16</ele>
        <time>2011-12-03T12:38:05Z</time>
      </trkpt>
      <trkpt lat="44.86937" lon="4.92623">
        <ele>135.68</ele>
        <time>2011-12-03T12:38:09Z</time>
      </trkpt>
      <trkpt lat="44.86946" lon="4.92649">
        <ele>136.16</ele>
        <time>2011-12-03T12:38:13Z</time>
      </trkpt>
      <trkpt lat="44.86951" lon="4.92676">
        <ele>135.68</ele>
        <time>2011-12-03T12:38:17Z</time>
      </trkpt>
      <trkpt lat="44.86958" lon="4.92706">
        <ele>136.64</ele>
        <time>2011-12-03T12:38:22Z</time>
      </trkpt>
      <trkpt lat="44.86964" lon="4.92737">
        <ele>137.61</ele>
        <time>2011-12-03T12:38:27Z</time>
      </trkpt>
      <trkpt lat="44.86971" lon="4.92764">
        <ele>136.64</ele>
        <time>2011-12-03T12:38:31Z</time>
      </trkpt>
      <trkpt lat="44.8698" lon="4.92789">
        <ele>137.13</ele>
        <time>2011-12-03T12:38:35Z</time>
      </trkpt>
      <trkpt lat="44.86987" lon="4.92817">
        <ele>137.13</ele>
        <time>2011-12-03T12:38:39Z</time>
      </trkpt>
      <trkpt lat="44.86989" lon="4.92847">
        <ele>137.61</ele>
        <time>2011-12-03T12:38:43Z</time>
      </trkpt>
      <trkpt lat="44.86986" lon="4.92877">
        <ele>137.13</ele>
        <time>2011-12-03T12:38:47Z</time>
      </trkpt>
      <trkpt lat="44.86981" lon="4.92905">
        <ele>137.13</ele>
        <time>2011-12-03T12:38:51Z</time>
      </trkpt>
      <trkpt lat="44.86974" lon="4.92932">
        <ele>137.61</ele>
        <time>2011-12-03T12:38:55Z</time>
      </trkpt>
      <trkpt lat="44.86968" lon="4.92959">
        <ele>137.61</ele>
        <time>2011-12-03T12:38:59Z</time>
      </trkpt>
      <trkpt lat="44.86964" lon="4.92988">
        <ele>138.09</ele>
        <time>2011-12-03T12:39:03Z</time>
      </trkpt>
      <trkpt lat="44.8696" lon="4.93019">
        <ele>138.57</ele>
        <time>2011-12-03T12:39:07Z</time>
      </trkpt>
      <trkpt lat="44.86955" lon="4.9305">
        <ele>138.57</ele>
        <time>2011-12-03T12:39:11Z</time>
      </trkpt>
      <trkpt lat="44.86948" lon="4.9308">
        <ele>138.57</ele>
        <time>2011-12-03T12:39:15Z</time>
      </trkpt>
      <trkpt lat="44.86942" lon="4.93111">
        <ele>138.57</ele>
        <time>2011-12-03T12:39:19Z</time>
      </trkpt>
      <trkpt lat="44.86942" lon="4.9314">
        <ele>138.57</ele>
        <time>2011-12-03T12:39:23Z</time>
      </trkpt>
      <trkpt lat="44.86947" lon="4.93166">
        <ele>138.57</ele>
        <time>2011-12-03T12:39:27Z</time>
      </trkpt>
      <trkpt lat="44.86953" lon="4.93189">
        <ele>138.09</ele>
        <time>2011-12-03T12:39:32Z</time>
      </trkpt>
      <trkpt lat="44.8694" lon="4.93215">
        <ele>138.09</ele>
        <time>2011-12-03T12:39:40Z</time>
      </trkpt>
      <trkpt lat="44.86952" lon="4.93216">
        <ele>136.16</ele>
        <time>2011-12-03T12:39:47Z</time>
      </trkpt>
      <trkpt lat="44.86966" lon="4.93203">
        <ele>136.64</ele>
        <time>2011-12-03T12:40:00Z</time>
      </trkpt>
      <trkpt lat="44.86981" lon="4.93215">
        <ele>138.09</ele>
        <time>2011-12-03T12:40:29Z</time>
      </trkpt>
      <trkpt lat="44.86997" lon="4.93232">
        <ele>139.05</ele>
        <time>2011-12-03T12:40:35Z</time>
      </trkpt>
      <trkpt lat="44.87011" lon="4.93256">
        <ele>139.05</ele>
        <time>2011-12-03T12:40:40Z</time>
      </trkpt>
      <trkpt lat="44.87022" lon="4.93284">
        <ele>139.05</ele>
        <time>2011-12-03T12:40:45Z</time>
      </trkpt>
      <trkpt lat="44.8703" lon="4.93309">
        <ele>139.05</ele>
        <time>2011-12-03T12:40:49Z</time>
      </trkpt>
      <trkpt lat="44.87035" lon="4.93334">
        <ele>139.53</ele>
        <time>2011-12-03T12:40:53Z</time>
      </trkpt>
      <trkpt lat="44.8704" lon="4.9336">
        <ele>139.53</ele>
        <time>2011-12-03T12:40:57Z</time>
      </trkpt>
      <trkpt lat="44.87046" lon="4.93385">
        <ele>139.53</ele>
        <time>2011-12-03T12:41:01Z</time>
      </trkpt>
      <trkpt lat="44.87057" lon="4.93409">
        <ele>139.53</ele>
        <time>2011-12-03T12:41:05Z</time>
      </trkpt>
      <trkpt lat="44.87066" lon="4.93431">
        <ele>139.53</ele>
        <time>2011-12-03T12:41:09Z</time>
      </trkpt>
      <trkpt lat="44.8708" lon="4.93453">
        <ele>139.53</ele>
        <time>2011-12-03T12:41:14Z</time>
      </trkpt>
      <trkpt lat="44.87094" lon="4.93472">
        <ele>140.01</ele>
        <time>2011-12-03T12:41:19Z</time>
      </trkpt>
      <trkpt lat="44.87114" lon="4.93485">
        <ele>140.01</ele>
        <time>2011-12-03T12:41:24Z</time>
      </trkpt>
      <trkpt lat="44.87133" lon="4.93491">
        <ele>140.01</ele>
        <time>2011-12-03T12:41:28Z</time>
      </trkpt>
      <trkpt lat="44.87153" lon="4.93494">
        <ele>140.01</ele>
        <time>2011-12-03T12:41:32Z</time>
      </trkpt>
      <trkpt lat="44.87174" lon="4.93494">
        <ele>140.49</ele>
        <time>2011-12-03T12:41:36Z</time>
      </trkpt>
      <trkpt lat="44.87195" lon="4.93491">
        <ele>140.49</ele>
        <time>2011-12-03T12:41:40Z</time>
      </trkpt>
      <trkpt lat="44.87215" lon="4.93486">
        <ele>140.97</ele>
        <time>2011-12-03T12:41:44Z</time>
      </trkpt>
      <trkpt lat="44.87237" lon="4.9348">
        <ele>141.45</ele>
        <time>2011-12-03T12:41:48Z</time>
      </trkpt>
      <trkpt lat="44.87257" lon="4.93477">
        <ele>140.97</ele>
        <time>2011-12-03T12:41:52Z</time>
      </trkpt>
      <trkpt lat="44.87278" lon="4.9348">
        <ele>140.97</ele>
        <time>2011-12-03T12:41:56Z</time>
      </trkpt>
      <trkpt lat="44.87297" lon="4.93492">
        <ele>140.97</ele>
        <time>2011-12-03T12:42:00Z</time>
      </trkpt>
      <trkpt lat="44.87315" lon="4.93505">
        <ele>140.97</ele>
        <time>2011-12-03T12:42:04Z</time>
      </trkpt>
      <trkpt lat="44.87333" lon="4.93516">
        <ele>140.97</ele>
        <time>2011-12-03T12:42:08Z</time>
      </trkpt>
      <trkpt lat="44.8735" lon="4.93529">
        <ele>141.45</ele>
        <time>2011-12-03T12:42:12Z</time>
      </trkpt>
      <trkpt lat="44.87368" lon="4.9354">
        <ele>141.45</ele>
        <time>2011-12-03T12:42:16Z</time>
      </trkpt>
      <trkpt lat="44.87386" lon="4.93552">
        <ele>140.97</ele>
        <time>2011-12-03T12:42:20Z</time>
      </trkpt>
      <trkpt lat="44.87406" lon="4.93563">
        <ele>140.97</ele>
        <time>2011-12-03T12:42:24Z</time>
      </trkpt>
      <trkpt lat="44.87426" lon="4.93569">
        <ele>140.01</ele>
        <time>2011-12-03T12:42:28Z</time>
      </trkpt>
      <trkpt lat="44.87445" lon="4.93575">
        <ele>140.97</ele>
        <time>2011-12-03T12:42:32Z</time>
      </trkpt>
      <trkpt lat="44.87465" lon="4.9358">
        <ele>140.49</ele>
        <time>2011-12-03T12:42:36Z</time>
      </trkpt>
      <trkpt lat="44.87484" lon="4.93585">
        <ele>140.97</ele>
        <time>2011-12-03T12:42:40Z</time>
      </trkpt>
      <trkpt lat="44.87502" lon="4.93589">
        <ele>140.97</ele>
        <time>2011-12-03T12:42:44Z</time>
      </trkpt>
      <trkpt lat="44.87521" lon="4.93596">
        <ele>140.97</ele>
        <time>2011-12-03T12:42:48Z</time>
      </trkpt>
      <trkpt lat="44.8754" lon="4.93605">
        <ele>140.97</ele>
        <time>2011-12-03T12:42:52Z</time>
      </trkpt>
      <trkpt lat="44.87559" lon="4.93616">
        <ele>140.97</ele>
        <time>2011-12-03T12:42:56Z</time>
      </trkpt>
      <trkpt lat="44.87578" lon="4.93626">
        <ele>140.97</ele>
        <time>2011-12-03T12:43:00Z</time>
      </trkpt>
      <trkpt lat="44.87597" lon="4.93637">
        <ele>140.97</ele>
        <time>2011-12-03T12:43:04Z</time>
      </trkpt>
      <trkpt lat="44.87614" lon="4.93648">
        <ele>141.45</ele>
        <time>2011-12-03T12:43:08Z</time>
      </trkpt>
      <trkpt lat="44.87633" lon="4.9366">
        <ele>140.97</ele>
        <time>2011-12-03T12:43:12Z</time>
      </trkpt>
      <trkpt lat="44.87651" lon="4.9367">
        <ele>140.97</ele>
        <time>2011-12-03T12:43:16Z</time>
      </trkpt>
      <trkpt lat="44.87669" lon="4.93681">
        <ele>140.97</ele>
        <time>2011-12-03T12:43:20Z</time>
      </trkpt>
      <trkpt lat="44.87686" lon="4.9369">
        <ele>141.45</ele>
        <time>2011-12-03T12:43:24Z</time>
      </trkpt>
      <trkpt lat="44.87702" lon="4.93702">
        <ele>141.93</ele>
        <time>2011-12-03T12:43:29Z</time>
      </trkpt>
      <trkpt lat="44.87698" lon="4.93725">
        <ele>142.41</ele>
        <time>2011-12-03T12:43:34Z</time>
      </trkpt>
      <trkpt lat="44.87688" lon="4.93752">
        <ele>141.93</ele>
        <time>2011-12-03T12:43:38Z</time>
      </trkpt>
      <trkpt lat="44.87678" lon="4.93781">
        <ele>141.45</ele>
        <time>2011-12-03T12:43:42Z</time>
      </trkpt>
      <trkpt lat="44.87668" lon="4.93809">
        <ele>141.93</ele>
        <time>2011-12-03T12:43:46Z</time>
      </trkpt>
      <trkpt lat="44.87658" lon="4.93836">
        <ele>141.45</ele>
        <time>2011-12-03T12:43:50Z</time>
      </trkpt>
      <trkpt lat="44.87646" lon="4.9386">
        <ele>140.97</ele>
        <time>2011-12-03T12:43:54Z</time>
      </trkpt>
      <trkpt lat="44.87636" lon="4.93886">
        <ele>141.45</ele>
        <time>2011-12-03T12:43:58Z</time>
      </trkpt>
      <trkpt lat="44.87626" lon="4.9391">
        <ele>141.93</ele>
        <time>2011-12-03T12:44:02Z</time>
      </trkpt>
      <trkpt lat="44.87618" lon="4.93939">
        <ele>142.89</ele>
        <time>2011-12-03T12:44:07Z</time>
      </trkpt>
      <trkpt lat="44.87619" lon="4.9397">
        <ele>143.37</ele>
        <time>2011-12-03T12:44:12Z</time>
      </trkpt>
      <trkpt lat="44.87623" lon="4.94001">
        <ele>142.89</ele>
        <time>2011-12-03T12:44:16Z</time>
      </trkpt>
      <trkpt lat="44.87627" lon="4.94033">
        <ele>142.41</ele>
        <time>2011-12-03T12:44:20Z</time>
      </trkpt>
      <trkpt lat="44.87632" lon="4.94064">
        <ele>142.41</ele>
        <time>2011-12-03T12:44:24Z</time>
      </trkpt>
      <trkpt lat="44.87635" lon="4.94094">
        <ele>142.41</ele>
        <time>2011-12-03T12:44:28Z</time>
      </trkpt>
      <trkpt lat="44.87638" lon="4.94127">
        <ele>141.93</ele>
        <time>2011-12-03T12:44:32Z</time>
      </trkpt>
      <trkpt lat="44.87635" lon="4.94159">
        <ele>141.93</ele>
        <time>2011-12-03T12:44:36Z</time>
      </trkpt>
      <trkpt lat="44.87633" lon="4.94189">
        <ele>142.41</ele>
        <time>2011-12-03T12:44:40Z</time>
      </trkpt>
      <trkpt lat="44.87635" lon="4.94199">
        <ele>142.41</ele>
        <time>2011-12-03T12:45:00Z</time>
      </trkpt>
      <trkpt lat="44.87616" lon="4.94201">
        <ele>143.37</ele>
        <time>2011-12-03T12:45:07Z</time>
      </trkpt>
      <trkpt lat="44.87605" lon="4.94224">
        <ele>143.85</ele>
        <time>2011-12-03T12:45:13Z</time>
      </trkpt>
      <trkpt lat="44.87601" lon="4.94251">
        <ele>144.34</ele>
        <time>2011-12-03T12:45:18Z</time>
      </trkpt>
      <trkpt lat="44.87595" lon="4.94278">
        <ele>144.34</ele>
        <time>2011-12-03T12:45:23Z</time>
      </trkpt>
      <trkpt lat="44.87588" lon="4.94303">
        <ele>144.34</ele>
        <time>2011-12-03T12:45:27Z</time>
      </trkpt>
      <trkpt lat="44.87582" lon="4.9433">
        <ele>144.34</ele>
        <time>2011-12-03T12:45:31Z</time>
      </trkpt>
      <trkpt lat="44.87578" lon="4.94357">
        <ele>145.3</ele>
        <time>2011-12-03T12:45:35Z</time>
      </trkpt>
      <trkpt lat="44.87573" lon="4.94385">
        <ele>145.3</ele>
        <time>2011-12-03T12:45:39Z</time>
      </trkpt>
      <trkpt lat="44.87568" lon="4.94411">
        <ele>145.78</ele>
        <time>2011-12-03T12:45:43Z</time>
      </trkpt>
      <trkpt lat="44.87558" lon="4.94436">
        <ele>145.78</ele>
        <time>2011-12-03T12:45:47Z</time>
      </trkpt>
      <trkpt lat="44.87547" lon="4.94458">
        <ele>145.78</ele>
        <time>2011-12-03T12:45:51Z</time>
      </trkpt>
      <trkpt lat="44.87538" lon="4.9448">
        <ele>145.78</ele>
        <time>2011-12-03T12:45:55Z</time>
      </trkpt>
      <trkpt lat="44.87526" lon="4.94506">
        <ele>146.26</ele>
        <time>2011-12-03T12:46:00Z</time>
      </trkpt>
      <trkpt lat="44.87514" lon="4.94534">
        <ele>146.74</ele>
        <time>2011-12-03T12:46:05Z</time>
      </trkpt>
      <trkpt lat="44.87507" lon="4.94549">
        <ele>144.34</ele>
        <time>2011-12-03T12:46:13Z</time>
      </trkpt>
      <trkpt lat="44.875" lon="4.94527">
        <ele>142.89</ele>
        <time>2011-12-03T12:46:27Z</time>
      </trkpt>
      <trkpt lat="44.87491" lon="4.94534">
        <ele>144.34</ele>
        <time>2011-12-03T12:46:45Z</time>
      </trkpt>
      <trkpt lat="44.87486" lon="4.94539">
        <ele>145.78</ele>
        <time>2011-12-03T12:47:27Z</time>
      </trkpt>
      <trkpt lat="44.87491" lon="4.94566">
        <ele>146.26</ele>
        <time>2011-12-03T12:47:39Z</time>
      </trkpt>
      <trkpt lat="44.87495" lon="4.94596">
        <ele>145.78</ele>
        <time>2011-12-03T12:47:45Z</time>
      </trkpt>
      <trkpt lat="44.87503" lon="4.94624">
        <ele>146.74</ele>
        <time>2011-12-03T12:47:50Z</time>
      </trkpt>
      <trkpt lat="44.87513" lon="4.94652">
        <ele>146.74</ele>
        <time>2011-12-03T12:47:55Z</time>
      </trkpt>
      <trkpt lat="44.87519" lon="4.94681">
        <ele>147.22</ele>
        <time>2011-12-03T12:48:00Z</time>
      </trkpt>
      <trkpt lat="44.87523" lon="4.94712">
        <ele>147.7</ele>
        <time>2011-12-03T12:48:05Z</time>
      </trkpt>
      <trkpt lat="44.87532" lon="4.9474">
        <ele>148.18</ele>
        <time>2011-12-03T12:48:10Z</time>
      </trkpt>
      <trkpt lat="44.87545" lon="4.94766">
        <ele>148.66</ele>
        <time>2011-12-03T12:48:15Z</time>
      </trkpt>
      <trkpt lat="44.87558" lon="4.94785">
        <ele>148.66</ele>
        <time>2011-12-03T12:48:19Z</time>
      </trkpt>
      <trkpt lat="44.87576" lon="4.94799">
        <ele>149.14</ele>
        <time>2011-12-03T12:48:23Z</time>
      </trkpt>
      <trkpt lat="44.87593" lon="4.94813">
        <ele>148.66</ele>
        <time>2011-12-03T12:48:27Z</time>
      </trkpt>
      <trkpt lat="44.8761" lon="4.9483">
        <ele>148.66</ele>
        <time>2011-12-03T12:48:31Z</time>
      </trkpt>
      <trkpt lat="44.87626" lon="4.9485">
        <ele>148.66</ele>
        <time>2011-12-03T12:48:35Z</time>
      </trkpt>
      <trkpt lat="44.8764" lon="4.9487">
        <ele>148.66</ele>
        <time>2011-12-03T12:48:39Z</time>
      </trkpt>
      <trkpt lat="44.87654" lon="4.94891">
        <ele>149.14</ele>
        <time>2011-12-03T12:48:43Z</time>
      </trkpt>
      <trkpt lat="44.87669" lon="4.9491">
        <ele>148.66</ele>
        <time>2011-12-03T12:48:47Z</time>
      </trkpt>
      <trkpt lat="44.87684" lon="4.94929">
        <ele>148.66</ele>
        <time>2011-12-03T12:48:51Z</time>
      </trkpt>
      <trkpt lat="44.87699" lon="4.94949">
        <ele>148.66</ele>
        <time>2011-12-03T12:48:55Z</time>
      </trkpt>
      <trkpt lat="44.87713" lon="4.94966">
        <ele>149.62</ele>
        <time>2011-12-03T12:48:59Z</time>
      </trkpt>
      <trkpt lat="44.87728" lon="4.94983">
        <ele>149.62</ele>
        <time>2011-12-03T12:49:03Z</time>
      </trkpt>
      <trkpt lat="44.87745" lon="4.94999">
        <ele>149.62</ele>
        <time>2011-12-03T12:49:07Z</time>
      </trkpt>
      <trkpt lat="44.87761" lon="4.95014">
        <ele>150.58</ele>
        <time>2011-12-03T12:49:11Z</time>
      </trkpt>
      <trkpt lat="44.87776" lon="4.95031">
        <ele>150.58</ele>
        <time>2011-12-03T12:49:15Z</time>
      </trkpt>
      <trkpt lat="44.87789" lon="4.95051">
        <ele>150.58</ele>
        <time>2011-12-03T12:49:19Z</time>
      </trkpt>
      <trkpt lat="44.878" lon="4.95078">
        <ele>150.1</ele>
        <time>2011-12-03T12:49:24Z</time>
      </trkpt>
      <trkpt lat="44.87809" lon="4.95107">
        <ele>150.58</ele>
        <time>2011-12-03T12:49:29Z</time>
      </trkpt>
      <trkpt lat="44.87818" lon="4.9513">
        <ele>150.58</ele>
        <time>2011-12-03T12:49:33Z</time>
      </trkpt>
      <trkpt lat="44.87828" lon="4.95158">
        <ele>151.06</ele>
        <time>2011-12-03T12:49:38Z</time>
      </trkpt>
      <trkpt lat="44.87838" lon="4.95186">
        <ele>151.06</ele>
        <time>2011-12-03T12:49:43Z</time>
      </trkpt>
      <trkpt lat="44.87851" lon="4.95213">
        <ele>151.54</ele>
        <time>2011-12-03T12:49:48Z</time>
      </trkpt>
      <trkpt lat="44.87864" lon="4.95232">
        <ele>151.06</ele>
        <time>2011-12-03T12:49:52Z</time>
      </trkpt>
      <trkpt lat="44.8788" lon="4.95245">
        <ele>151.06</ele>
        <time>2011-12-03T12:49:56Z</time>
      </trkpt>
      <trkpt lat="44.87896" lon="4.95257">
        <ele>151.54</ele>
        <time>2011-12-03T12:50:00Z</time>
      </trkpt>
      <trkpt lat="44.87914" lon="4.95275">
        <ele>151.54</ele>
        <time>2011-12-03T12:50:05Z</time>
      </trkpt>
      <trkpt lat="44.87931" lon="4.95294">
        <ele>152.03</ele>
        <time>2011-12-03T12:50:10Z</time>
      </trkpt>
      <trkpt lat="44.8794" lon="4.95318">
        <ele>151.54</ele>
        <time>2011-12-03T12:50:14Z</time>
      </trkpt>
      <trkpt lat="44.87946" lon="4.95347">
        <ele>151.54</ele>
        <time>2011-12-03T12:50:18Z</time>
      </trkpt>
      <trkpt lat="44.87952" lon="4.95375">
        <ele>152.51</ele>
        <time>2011-12-03T12:50:22Z</time>
      </trkpt>
      <trkpt lat="44.87956" lon="4.95402">
        <ele>152.51</ele>
        <time>2011-12-03T12:50:26Z</time>
      </trkpt>
      <trkpt lat="44.87959" lon="4.9543">
        <ele>152.51</ele>
        <time>2011-12-03T12:50:30Z</time>
      </trkpt>
      <trkpt lat="44.87963" lon="4.95456">
        <ele>152.51</ele>
        <time>2011-12-03T12:50:34Z</time>
      </trkpt>
      <trkpt lat="44.87969" lon="4.95488">
        <ele>152.51</ele>
        <time>2011-12-03T12:50:39Z</time>
      </trkpt>
      <trkpt lat="44.87973" lon="4.95513">
        <ele>152.51</ele>
        <time>2011-12-03T12:50:43Z</time>
      </trkpt>
      <trkpt lat="44.87978" lon="4.95543">
        <ele>152.51</ele>
        <time>2011-12-03T12:50:48Z</time>
      </trkpt>
      <trkpt lat="44.87985" lon="4.95573">
        <ele>152.99</ele>
        <time>2011-12-03T12:50:53Z</time>
      </trkpt>
      <trkpt lat="44.87991" lon="4.95597">
        <ele>152.99</ele>
        <time>2011-12-03T12:50:57Z</time>
      </trkpt>
      <trkpt lat="44.87997" lon="4.95621">
        <ele>152.99</ele>
        <time>2011-12-03T12:51:01Z</time>
      </trkpt>
      <trkpt lat="44.88006" lon="4.95648">
        <ele>153.47</ele>
        <time>2011-12-03T12:51:06Z</time>
      </trkpt>
      <trkpt lat="44.88016" lon="4.95674">
        <ele>153.95</ele>
        <time>2011-12-03T12:51:11Z</time>
      </trkpt>
      <trkpt lat="44.88024" lon="4.95701">
        <ele>153.95</ele>
        <time>2011-12-03T12:51:16Z</time>
      </trkpt>
      <trkpt lat="44.88031" lon="4.95728">
        <ele>154.43</ele>
        <time>2011-12-03T12:51:21Z</time>
      </trkpt>
      <trkpt lat="44.88035" lon="4.95756">
        <ele>154.43</ele>
        <time>2011-12-03T12:51:26Z</time>
      </trkpt>
      <trkpt lat="44.88038" lon="4.95782">
        <ele>153.95</ele>
        <time>2011-12-03T12:51:31Z</time>
      </trkpt>
      <trkpt lat="44.88039" lon="4.95807">
        <ele>153.95</ele>
        <time>2011-12-03T12:51:36Z</time>
      </trkpt>
      <trkpt lat="44.88041" lon="4.95836">
        <ele>154.43</ele>
        <time>2011-12-03T12:51:41Z</time>
      </trkpt>
      <trkpt lat="44.88041" lon="4.95865">
        <ele>154.43</ele>
        <time>2011-12-03T12:51:46Z</time>
      </trkpt>
      <trkpt lat="44.8804" lon="4.95893">
        <ele>154.43</ele>
        <time>2011-12-03T12:51:51Z</time>
      </trkpt>
      <trkpt lat="44.88039" lon="4.95921">
        <ele>154.91</ele>
        <time>2011-12-03T12:51:56Z</time>
      </trkpt>
      <trkpt lat="44.88038" lon="4.95949">
        <ele>154.91</ele>
        <time>2011-12-03T12:52:01Z</time>
      </trkpt>
      <trkpt lat="44.88037" lon="4.95977">
        <ele>154.91</ele>
        <time>2011-12-03T12:52:06Z</time>
      </trkpt>
      <trkpt lat="44.88036" lon="4.96006">
        <ele>154.91</ele>
        <time>2011-12-03T12:52:11Z</time>
      </trkpt>
      <trkpt lat="44.88034" lon="4.96036">
        <ele>154.91</ele>
        <time>2011-12-03T12:52:16Z</time>
      </trkpt>
      <trkpt lat="44.88032" lon="4.96063">
        <ele>155.39</ele>
        <time>2011-12-03T12:52:21Z</time>
      </trkpt>
      <trkpt lat="44.8803" lon="4.9609">
        <ele>156.35</ele>
        <time>2011-12-03T12:52:26Z</time>
      </trkpt>
      <trkpt lat="44.88026" lon="4.96117">
        <ele>155.87</ele>
        <time>2011-12-03T12:52:31Z</time>
      </trkpt>
      <trkpt lat="44.88019" lon="4.96144">
        <ele>155.87</ele>
        <time>2011-12-03T12:52:37Z</time>
      </trkpt>
      <trkpt lat="44.88012" lon="4.96169">
        <ele>156.35</ele>
        <time>2011-12-03T12:52:45Z</time>
      </trkpt>
      <trkpt lat="44.88008" lon="4.96199">
        <ele>156.83</ele>
        <time>2011-12-03T12:52:51Z</time>
      </trkpt>
      <trkpt lat="44.88002" lon="4.96226">
        <ele>156.83</ele>
        <time>2011-12-03T12:52:56Z</time>
      </trkpt>
      <trkpt lat="44.87997" lon="4.96255">
        <ele>156.83</ele>
        <time>2011-12-03T12:53:01Z</time>
      </trkpt>
      <trkpt lat="44.87992" lon="4.96282">
        <ele>156.83</ele>
        <time>2011-12-03T12:53:06Z</time>
      </trkpt>
      <trkpt lat="44.87988" lon="4.96309">
        <ele>156.83</ele>
        <time>2011-12-03T12:53:11Z</time>
      </trkpt>
      <trkpt lat="44.87986" lon="4.96336">
        <ele>157.31</ele>
        <time>2011-12-03T12:53:16Z</time>
      </trkpt>
      <trkpt lat="44.87984" lon="4.96364">
        <ele>157.79</ele>
        <time>2011-12-03T12:53:21Z</time>
      </trkpt>
      <trkpt lat="44.87983" lon="4.96391">
        <ele>157.31</ele>
        <time>2011-12-03T12:53:26Z</time>
      </trkpt>
      <trkpt lat="44.87982" lon="4.9642">
        <ele>157.79</ele>
        <time>2011-12-03T12:53:31Z</time>
      </trkpt>
      <trkpt lat="44.87981" lon="4.96448">
        <ele>158.27</ele>
        <time>2011-12-03T12:53:36Z</time>
      </trkpt>
      <trkpt lat="44.87981" lon="4.96476">
        <ele>157.79</ele>
        <time>2011-12-03T12:53:41Z</time>
      </trkpt>
      <trkpt lat="44.87981" lon="4.96506">
        <ele>157.79</ele>
        <time>2011-12-03T12:53:46Z</time>
      </trkpt>
      <trkpt lat="44.87979" lon="4.96535">
        <ele>158.27</ele>
        <time>2011-12-03T12:53:51Z</time>
      </trkpt>
      <trkpt lat="44.87979" lon="4.96565">
        <ele>158.27</ele>
        <time>2011-12-03T12:53:56Z</time>
      </trkpt>
      <trkpt lat="44.87979" lon="4.96594">
        <ele>158.27</ele>
        <time>2011-12-03T12:54:01Z</time>
      </trkpt>
      <trkpt lat="44.87978" lon="4.96621">
        <ele>158.27</ele>
        <time>2011-12-03T12:54:06Z</time>
      </trkpt>
      <trkpt lat="44.87978" lon="4.96648">
        <ele>159.24</ele>
        <time>2011-12-03T12:54:11Z</time>
      </trkpt>
      <trkpt lat="44.87977" lon="4.96675">
        <ele>158.75</ele>
        <time>2011-12-03T12:54:16Z</time>
      </trkpt>
      <trkpt lat="44.87978" lon="4.96701">
        <ele>158.75</ele>
        <time>2011-12-03T12:54:21Z</time>
      </trkpt>
      <trkpt lat="44.87977" lon="4.96728">
        <ele>158.75</ele>
        <time>2011-12-03T12:54:25Z</time>
      </trkpt>
      <trkpt lat="44.87975" lon="4.96757">
        <ele>159.72</ele>
        <time>2011-12-03T12:54:29Z</time>
      </trkpt>
      <trkpt lat="44.87975" lon="4.96785">
        <ele>159.24</ele>
        <time>2011-12-03T12:54:33Z</time>
      </trkpt>
      <trkpt lat="44.87975" lon="4.96812">
        <ele>159.72</ele>
        <time>2011-12-03T12:54:37Z</time>
      </trkpt>
      <trkpt lat="44.87974" lon="4.96839">
        <ele>159.72</ele>
        <time>2011-12-03T12:54:41Z</time>
      </trkpt>
      <trkpt lat="44.87973" lon="4.96864">
        <ele>160.2</ele>
        <time>2011-12-03T12:54:45Z</time>
      </trkpt>
      <trkpt lat="44.87972" lon="4.96894">
        <ele>160.68</ele>
        <time>2011-12-03T12:54:50Z</time>
      </trkpt>
      <trkpt lat="44.87969" lon="4.96924">
        <ele>160.2</ele>
        <time>2011-12-03T12:54:55Z</time>
      </trkpt>
      <trkpt lat="44.87961" lon="4.96953">
        <ele>161.16</ele>
        <time>2011-12-03T12:55:00Z</time>
      </trkpt>
      <trkpt lat="44.87954" lon="4.96978">
        <ele>161.16</ele>
        <time>2011-12-03T12:55:04Z</time>
      </trkpt>
      <trkpt lat="44.87947" lon="4.97009">
        <ele>161.64</ele>
        <time>2011-12-03T12:55:09Z</time>
      </trkpt>
      <trkpt lat="44.87943" lon="4.97037">
        <ele>161.64</ele>
        <time>2011-12-03T12:55:13Z</time>
      </trkpt>
      <trkpt lat="44.87939" lon="4.97066">
        <ele>161.64</ele>
        <time>2011-12-03T12:55:17Z</time>
      </trkpt>
      <trkpt lat="44.87934" lon="4.97093">
        <ele>162.12</ele>
        <time>2011-12-03T12:55:21Z</time>
      </trkpt>
      <trkpt lat="44.87932" lon="4.9712">
        <ele>162.12</ele>
        <time>2011-12-03T12:55:25Z</time>
      </trkpt>
      <trkpt lat="44.87933" lon="4.97149">
        <ele>162.12</ele>
        <time>2011-12-03T12:55:29Z</time>
      </trkpt>
      <trkpt lat="44.87938" lon="4.97175">
        <ele>162.12</ele>
        <time>2011-12-03T12:55:33Z</time>
      </trkpt>
      <trkpt lat="44.87946" lon="4.97199">
        <ele>162.6</ele>
        <time>2011-12-03T12:55:37Z</time>
      </trkpt>
      <trkpt lat="44.87955" lon="4.97221">
        <ele>162.6</ele>
        <time>2011-12-03T12:55:41Z</time>
      </trkpt>
      <trkpt lat="44.87964" lon="4.97246">
        <ele>162.6</ele>
        <time>2011-12-03T12:55:45Z</time>
      </trkpt>
      <trkpt lat="44.87967" lon="4.97273">
        <ele>162.12</ele>
        <time>2011-12-03T12:55:49Z</time>
      </trkpt>
      <trkpt lat="44.87968" lon="4.97306">
        <ele>162.6</ele>
        <time>2011-12-03T12:55:54Z</time>
      </trkpt>
      <trkpt lat="44.87968" lon="4.97338">
        <ele>162.6</ele>
        <time>2011-12-03T12:55:59Z</time>
      </trkpt>
      <trkpt lat="44.87969" lon="4.97366">
        <ele>163.08</ele>
        <time>2011-12-03T12:56:03Z</time>
      </trkpt>
      <trkpt lat="44.87971" lon="4.97393">
        <ele>162.6</ele>
        <time>2011-12-03T12:56:07Z</time>
      </trkpt>
      <trkpt lat="44.87971" lon="4.97419">
        <ele>163.08</ele>
        <time>2011-12-03T12:56:11Z</time>
      </trkpt>
      <trkpt lat="44.87971" lon="4.97447">
        <ele>163.08</ele>
        <time>2011-12-03T12:56:15Z</time>
      </trkpt>
      <trkpt lat="44.87972" lon="4.97475">
        <ele>163.08</ele>
        <time>2011-12-03T12:56:19Z</time>
      </trkpt>
      <trkpt lat="44.87973" lon="4.97506">
        <ele>163.56</ele>
        <time>2011-12-03T12:56:24Z</time>
      </trkpt>
      <trkpt lat="44.87973" lon="4.97532">
        <ele>163.56</ele>
        <time>2011-12-03T12:56:29Z</time>
      </trkpt>
      <trkpt lat="44.87979" lon="4.97556">
        <ele>164.04</ele>
        <time>2011-12-03T12:56:35Z</time>
      </trkpt>
      <trkpt lat="44.8798" lon="4.97583">
        <ele>164.04</ele>
        <time>2011-12-03T12:56:40Z</time>
      </trkpt>
      <trkpt lat="44.8798" lon="4.9761">
        <ele>164.04</ele>
        <time>2011-12-03T12:56:45Z</time>
      </trkpt>
      <trkpt lat="44.8798" lon="4.97637">
        <ele>164.52</ele>
        <time>2011-12-03T12:56:50Z</time>
      </trkpt>
      <trkpt lat="44.8798" lon="4.97664">
        <ele>164.52</ele>
        <time>2011-12-03T12:56:55Z</time>
      </trkpt>
      <trkpt lat="44.87978" lon="4.97692">
        <ele>164.52</ele>
        <time>2011-12-03T12:57:00Z</time>
      </trkpt>
      <trkpt lat="44.87978" lon="4.9772">
        <ele>165</ele>
        <time>2011-12-03T12:57:05Z</time>
      </trkpt>
      <trkpt lat="44.87978" lon="4.97752">
        <ele>165.48</ele>
        <time>2011-12-03T12:57:10Z</time>
      </trkpt>
      <trkpt lat="44.87979" lon="4.97778">
        <ele>165.48</ele>
        <time>2011-12-03T12:57:14Z</time>
      </trkpt>
      <trkpt lat="44.87981" lon="4.97804">
        <ele>165</ele>
        <time>2011-12-03T12:57:18Z</time>
      </trkpt>
      <trkpt lat="44.87983" lon="4.97836">
        <ele>165.48</ele>
        <time>2011-12-03T12:57:23Z</time>
      </trkpt>
      <trkpt lat="44.87989" lon="4.97861">
        <ele>165.48</ele>
        <time>2011-12-03T12:57:27Z</time>
      </trkpt>
      <trkpt lat="44.88001" lon="4.97887">
        <ele>165.96</ele>
        <time>2011-12-03T12:57:32Z</time>
      </trkpt>
      <trkpt lat="44.8801" lon="4.9791">
        <ele>166.45</ele>
        <time>2011-12-03T12:57:36Z</time>
      </trkpt>
      <trkpt lat="44.88018" lon="4.97937">
        <ele>166.45</ele>
        <time>2011-12-03T12:57:41Z</time>
      </trkpt>
      <trkpt lat="44.88024" lon="4.97964">
        <ele>166.93</ele>
        <time>2011-12-03T12:57:46Z</time>
      </trkpt>
      <trkpt lat="44.8803" lon="4.97995">
        <ele>167.41</ele>
        <time>2011-12-03T12:57:51Z</time>
      </trkpt>
      <trkpt lat="44.88034" lon="4.98021">
        <ele>167.89</ele>
        <time>2011-12-03T12:57:55Z</time>
      </trkpt>
      <trkpt lat="44.88038" lon="4.98046">
        <ele>167.41</ele>
        <time>2011-12-03T12:57:59Z</time>
      </trkpt>
      <trkpt lat="44.88046" lon="4.98075">
        <ele>167.89</ele>
        <time>2011-12-03T12:58:04Z</time>
      </trkpt>
      <trkpt lat="44.88058" lon="4.98097">
        <ele>167.89</ele>
        <time>2011-12-03T12:58:09Z</time>
      </trkpt>
      <trkpt lat="44.8807" lon="4.98118">
        <ele>168.37</ele>
        <time>2011-12-03T12:58:14Z</time>
      </trkpt>
      <trkpt lat="44.88086" lon="4.98144">
        <ele>167.41</ele>
        <time>2011-12-03T12:58:19Z</time>
      </trkpt>
      <trkpt lat="44.881" lon="4.98164">
        <ele>167.89</ele>
        <time>2011-12-03T12:58:23Z</time>
      </trkpt>
      <trkpt lat="44.88115" lon="4.98183">
        <ele>167.89</ele>
        <time>2011-12-03T12:58:27Z</time>
      </trkpt>
      <trkpt lat="44.88131" lon="4.98202">
        <ele>167.89</ele>
        <time>2011-12-03T12:58:31Z</time>
      </trkpt>
      <trkpt lat="44.88147" lon="4.98223">
        <ele>168.37</ele>
        <time>2011-12-03T12:58:36Z</time>
      </trkpt>
      <trkpt lat="44.88162" lon="4.98247">
        <ele>168.37</ele>
        <time>2011-12-03T12:58:41Z</time>
      </trkpt>
      <trkpt lat="44.88168" lon="4.98274">
        <ele>168.85</ele>
        <time>2011-12-03T12:58:45Z</time>
      </trkpt>
      <trkpt lat="44.8817" lon="4.98304">
        <ele>168.37</ele>
        <time>2011-12-03T12:58:49Z</time>
      </trkpt>
      <trkpt lat="44.88174" lon="4.98331">
        <ele>168.85</ele>
        <time>2011-12-03T12:58:53Z</time>
      </trkpt>
      <trkpt lat="44.88178" lon="4.98358">
        <ele>168.85</ele>
        <time>2011-12-03T12:58:57Z</time>
      </trkpt>
      <trkpt lat="44.88182" lon="4.98384">
        <ele>169.33</ele>
        <time>2011-12-03T12:59:01Z</time>
      </trkpt>
      <trkpt lat="44.88181" lon="4.98411">
        <ele>168.85</ele>
        <time>2011-12-03T12:59:05Z</time>
      </trkpt>
      <trkpt lat="44.88177" lon="4.98439">
        <ele>169.33</ele>
        <time>2011-12-03T12:59:09Z</time>
      </trkpt>
      <trkpt lat="44.88171" lon="4.98464">
        <ele>169.33</ele>
        <time>2011-12-03T12:59:13Z</time>
      </trkpt>
      <trkpt lat="44.88166" lon="4.98494">
        <ele>169.81</ele>
        <time>2011-12-03T12:59:18Z</time>
      </trkpt>
      <trkpt lat="44.88165" lon="4.98521">
        <ele>169.33</ele>
        <time>2011-12-03T12:59:22Z</time>
      </trkpt>
      <trkpt lat="44.88166" lon="4.98547">
        <ele>169.33</ele>
        <time>2011-12-03T12:59:26Z</time>
      </trkpt>
      <trkpt lat="44.88168" lon="4.98574">
        <ele>169.81</ele>
        <time>2011-12-03T12:59:30Z</time>
      </trkpt>
      <trkpt lat="44.88168" lon="4.986">
        <ele>169.81</ele>
        <time>2011-12-03T12:59:34Z</time>
      </trkpt>
      <trkpt lat="44.88168" lon="4.98627">
        <ele>169.81</ele>
        <time>2011-12-03T12:59:38Z</time>
      </trkpt>
      <trkpt lat="44.88167" lon="4.98653">
        <ele>170.29</ele>
        <time>2011-12-03T12:59:42Z</time>
      </trkpt>
      <trkpt lat="44.88167" lon="4.98679">
        <ele>170.77</ele>
        <time>2011-12-03T12:59:46Z</time>
      </trkpt>
      <trkpt lat="44.88169" lon="4.98709">
        <ele>170.77</ele>
        <time>2011-12-03T12:59:51Z</time>
      </trkpt>
      <trkpt lat="44.8818" lon="4.98734">
        <ele>171.25</ele>
        <time>2011-12-03T12:59:56Z</time>
      </trkpt>
      <trkpt lat="44.88197" lon="4.98752">
        <ele>170.77</ele>
        <time>2011-12-03T13:00:01Z</time>
      </trkpt>
      <trkpt lat="44.8821" lon="4.98771">
        <ele>171.25</ele>
        <time>2011-12-03T13:00:05Z</time>
      </trkpt>
      <trkpt lat="44.88219" lon="4.988">
        <ele>171.25</ele>
        <time>2011-12-03T13:00:10Z</time>
      </trkpt>
      <trkpt lat="44.88223" lon="4.98827">
        <ele>171.73</ele>
        <time>2011-12-03T13:00:14Z</time>
      </trkpt>
      <trkpt lat="44.88227" lon="4.98854">
        <ele>171.25</ele>
        <time>2011-12-03T13:00:18Z</time>
      </trkpt>
      <trkpt lat="44.88231" lon="4.98879">
        <ele>171.73</ele>
        <time>2011-12-03T13:00:22Z</time>
      </trkpt>
      <trkpt lat="44.88237" lon="4.98904">
        <ele>172.21</ele>
        <time>2011-12-03T13:00:26Z</time>
      </trkpt>
      <trkpt lat="44.88246" lon="4.98927">
        <ele>171.25</ele>
        <time>2011-12-03T13:00:31Z</time>
      </trkpt>
      <trkpt lat="44.88255" lon="4.98943">
        <ele>171.25</ele>
        <time>2011-12-03T13:01:26Z</time>
      </trkpt>
      <trkpt lat="44.88268" lon="4.98965">
        <ele>171.73</ele>
        <time>2011-12-03T13:01:34Z</time>
      </trkpt>
      <trkpt lat="44.88285" lon="4.98984">
        <ele>172.21</ele>
        <time>2011-12-03T13:01:39Z</time>
      </trkpt>
      <trkpt lat="44.883" lon="4.99002">
        <ele>172.21</ele>
        <time>2011-12-03T13:01:44Z</time>
      </trkpt>
      <trkpt lat="44.88315" lon="4.99024">
        <ele>172.69</ele>
        <time>2011-12-03T13:01:50Z</time>
      </trkpt>
      <trkpt lat="44.8832" lon="4.99048">
        <ele>173.17</ele>
        <time>2011-12-03T13:01:56Z</time>
      </trkpt>
      <trkpt lat="44.88303" lon="4.99076">
        <ele>173.66</ele>
        <time>2011-12-03T13:02:02Z</time>
      </trkpt>
      <trkpt lat="44.88288" lon="4.99098">
        <ele>172.69</ele>
        <time>2011-12-03T13:02:06Z</time>
      </trkpt>
      <trkpt lat="44.88273" lon="4.9912">
        <ele>173.17</ele>
        <time>2011-12-03T13:02:10Z</time>
      </trkpt>
      <trkpt lat="44.88258" lon="4.99142">
        <ele>173.17</ele>
        <time>2011-12-03T13:02:14Z</time>
      </trkpt>
      <trkpt lat="44.88243" lon="4.99165">
        <ele>172.69</ele>
        <time>2011-12-03T13:02:18Z</time>
      </trkpt>
      <trkpt lat="44.88229" lon="4.99187">
        <ele>172.69</ele>
        <time>2011-12-03T13:02:22Z</time>
      </trkpt>
      <trkpt lat="44.88216" lon="4.99213">
        <ele>173.17</ele>
        <time>2011-12-03T13:02:26Z</time>
      </trkpt>
      <trkpt lat="44.88207" lon="4.99242">
        <ele>173.66</ele>
        <time>2011-12-03T13:02:30Z</time>
      </trkpt>
      <trkpt lat="44.88201" lon="4.99272">
        <ele>173.66</ele>
        <time>2011-12-03T13:02:34Z</time>
      </trkpt>
      <trkpt lat="44.88192" lon="4.99297">
        <ele>172.69</ele>
        <time>2011-12-03T13:02:38Z</time>
      </trkpt>
      <trkpt lat="44.88171" lon="4.99298">
        <ele>173.17</ele>
        <time>2011-12-03T13:02:42Z</time>
      </trkpt>
      <trkpt lat="44.88153" lon="4.99289">
        <ele>172.69</ele>
        <time>2011-12-03T13:02:45Z</time>
      </trkpt>
      <trkpt lat="44.88133" lon="4.99278">
        <ele>172.69</ele>
        <time>2011-12-03T13:02:48Z</time>
      </trkpt>
      <trkpt lat="44.88113" lon="4.99267">
        <ele>172.21</ele>
        <time>2011-12-03T13:02:51Z</time>
      </trkpt>
      <trkpt lat="44.88093" lon="4.99257">
        <ele>171.73</ele>
        <time>2011-12-03T13:02:54Z</time>
      </trkpt>
      <trkpt lat="44.88073" lon="4.99248">
        <ele>171.73</ele>
        <time>2011-12-03T13:02:57Z</time>
      </trkpt>
      <trkpt lat="44.88054" lon="4.99238">
        <ele>171.25</ele>
        <time>2011-12-03T13:03:00Z</time>
      </trkpt>
      <trkpt lat="44.88035" lon="4.99229">
        <ele>170.77</ele>
        <time>2011-12-03T13:03:03Z</time>
      </trkpt>
      <trkpt lat="44.88015" lon="4.99219">
        <ele>170.77</ele>
        <time>2011-12-03T13:03:06Z</time>
      </trkpt>
      <trkpt lat="44.87994" lon="4.99209">
        <ele>170.29</ele>
        <time>2011-12-03T13:03:09Z</time>
      </trkpt>
      <trkpt lat="44.87974" lon="4.99198">
        <ele>170.29</ele>
        <time>2011-12-03T13:03:12Z</time>
      </trkpt>
      <trkpt lat="44.87954" lon="4.99189">
        <ele>170.29</ele>
        <time>2011-12-03T13:03:15Z</time>
      </trkpt>
      <trkpt lat="44.87934" lon="4.99178">
        <ele>169.33</ele>
        <time>2011-12-03T13:03:18Z</time>
      </trkpt>
      <trkpt lat="44.87914" lon="4.99169">
        <ele>169.81</ele>
        <time>2011-12-03T13:03:21Z</time>
      </trkpt>
      <trkpt lat="44.87893" lon="4.99159">
        <ele>169.81</ele>
        <time>2011-12-03T13:03:24Z</time>
      </trkpt>
      <trkpt lat="44.87873" lon="4.99149">
        <ele>169.81</ele>
        <time>2011-12-03T13:03:27Z</time>
      </trkpt>
      <trkpt lat="44.87853" lon="4.99138">
        <ele>169.81</ele>
        <time>2011-12-03T13:03:30Z</time>
      </trkpt>
      <trkpt lat="44.87832" lon="4.99128">
        <ele>169.81</ele>
        <time>2011-12-03T13:03:33Z</time>
      </trkpt>
      <trkpt lat="44.87812" lon="4.99118">
        <ele>169.33</ele>
        <time>2011-12-03T13:03:36Z</time>
      </trkpt>
      <trkpt lat="44.87791" lon="4.99108">
        <ele>169.81</ele>
        <time>2011-12-03T13:03:39Z</time>
      </trkpt>
      <trkpt lat="44.87771" lon="4.99097">
        <ele>169.33</ele>
        <time>2011-12-03T13:03:42Z</time>
      </trkpt>
      <trkpt lat="44.8775" lon="4.99087">
        <ele>168.85</ele>
        <time>2011-12-03T13:03:45Z</time>
      </trkpt>
      <trkpt lat="44.87729" lon="4.99078">
        <ele>169.33</ele>
        <time>2011-12-03T13:03:48Z</time>
      </trkpt>
      <trkpt lat="44.87708" lon="4.99068">
        <ele>168.37</ele>
        <time>2011-12-03T13:03:51Z</time>
      </trkpt>
      <trkpt lat="44.87687" lon="4.99058">
        <ele>168.37</ele>
        <time>2011-12-03T13:03:54Z</time>
      </trkpt>
      <trkpt lat="44.87666" lon="4.99048">
        <ele>167.89</ele>
        <time>2011-12-03T13:03:57Z</time>
      </trkpt>
      <trkpt lat="44.87645" lon="4.99037">
        <ele>167.41</ele>
        <time>2011-12-03T13:04:00Z</time>
      </trkpt>
      <trkpt lat="44.87623" lon="4.99027">
        <ele>167.41</ele>
        <time>2011-12-03T13:04:03Z</time>
      </trkpt>
      <trkpt lat="44.87602" lon="4.99017">
        <ele>166.93</ele>
        <time>2011-12-03T13:04:06Z</time>
      </trkpt>
      <trkpt lat="44.87581" lon="4.99007">
        <ele>165.96</ele>
        <time>2011-12-03T13:04:09Z</time>
      </trkpt>
      <trkpt lat="44.87559" lon="4.98996">
        <ele>166.93</ele>
        <time>2011-12-03T13:04:12Z</time>
      </trkpt>
      <trkpt lat="44.87538" lon="4.98985">
        <ele>166.45</ele>
        <time>2011-12-03T13:04:15Z</time>
      </trkpt>
      <trkpt lat="44.87516" lon="4.98975">
        <ele>165.96</ele>
        <time>2011-12-03T13:04:18Z</time>
      </trkpt>
      <trkpt lat="44.87495" lon="4.98964">
        <ele>165</ele>
        <time>2011-12-03T13:04:21Z</time>
      </trkpt>
      <trkpt lat="44.87474" lon="4.98954">
        <ele>165</ele>
        <time>2011-12-03T13:04:24Z</time>
      </trkpt>
      <trkpt lat="44.87453" lon="4.98944">
        <ele>165</ele>
        <time>2011-12-03T13:04:27Z</time>
      </trkpt>
      <trkpt lat="44.87431" lon="4.98934">
        <ele>164.52</ele>
        <time>2011-12-03T13:04:30Z</time>
      </trkpt>
      <trkpt lat="44.8741" lon="4.98923">
        <ele>164.04</ele>
        <time>2011-12-03T13:04:33Z</time>
      </trkpt>
      <trkpt lat="44.87389" lon="4.9891">
        <ele>164.52</ele>
        <time>2011-12-03T13:04:36Z</time>
      </trkpt>
      <trkpt lat="44.87369" lon="4.98895">
        <ele>164.04</ele>
        <time>2011-12-03T13:04:39Z</time>
      </trkpt>
      <trkpt lat="44.87349" lon="4.9888">
        <ele>163.56</ele>
        <time>2011-12-03T13:04:42Z</time>
      </trkpt>
      <trkpt lat="44.8733" lon="4.98864">
        <ele>164.04</ele>
        <time>2011-12-03T13:04:45Z</time>
      </trkpt>
      <trkpt lat="44.8731" lon="4.98849">
        <ele>164.04</ele>
        <time>2011-12-03T13:04:48Z</time>
      </trkpt>
      <trkpt lat="44.87291" lon="4.98834">
        <ele>164.52</ele>
        <time>2011-12-03T13:04:51Z</time>
      </trkpt>
      <trkpt lat="44.87273" lon="4.98819">
        <ele>163.56</ele>
        <time>2011-12-03T13:04:54Z</time>
      </trkpt>
      <trkpt lat="44.87254" lon="4.98805">
        <ele>164.52</ele>
        <time>2011-12-03T13:04:57Z</time>
      </trkpt>
      <trkpt lat="44.87236" lon="4.98791">
        <ele>164.04</ele>
        <time>2011-12-03T13:05:00Z</time>
      </trkpt>
      <trkpt lat="44.87219" lon="4.98777">
        <ele>164.04</ele>
        <time>2011-12-03T13:05:03Z</time>
      </trkpt>
      <trkpt lat="44.87201" lon="4.98765">
        <ele>164.04</ele>
        <time>2011-12-03T13:05:06Z</time>
      </trkpt>
      <trkpt lat="44.87182" lon="4.98752">
        <ele>164.04</ele>
        <time>2011-12-03T13:05:09Z</time>
      </trkpt>
      <trkpt lat="44.87165" lon="4.98739">
        <ele>164.04</ele>
        <time>2011-12-03T13:05:12Z</time>
      </trkpt>
      <trkpt lat="44.87146" lon="4.98727">
        <ele>164.04</ele>
        <time>2011-12-03T13:05:15Z</time>
      </trkpt>
      <trkpt lat="44.87126" lon="4.98717">
        <ele>164.04</ele>
        <time>2011-12-03T13:05:18Z</time>
      </trkpt>
      <trkpt lat="44.87106" lon="4.98708">
        <ele>163.56</ele>
        <time>2011-12-03T13:05:21Z</time>
      </trkpt>
      <trkpt lat="44.87085" lon="4.987">
        <ele>163.08</ele>
        <time>2011-12-03T13:05:24Z</time>
      </trkpt>
      <trkpt lat="44.87065" lon="4.98692">
        <ele>162.6</ele>
        <time>2011-12-03T13:05:27Z</time>
      </trkpt>
      <trkpt lat="44.87045" lon="4.98684">
        <ele>162.6</ele>
        <time>2011-12-03T13:05:30Z</time>
      </trkpt>
      <trkpt lat="44.87024" lon="4.98675">
        <ele>162.12</ele>
        <time>2011-12-03T13:05:33Z</time>
      </trkpt>
      <trkpt lat="44.87005" lon="4.98667">
        <ele>162.6</ele>
        <time>2011-12-03T13:05:36Z</time>
      </trkpt>
      <trkpt lat="44.86985" lon="4.98659">
        <ele>162.6</ele>
        <time>2011-12-03T13:05:39Z</time>
      </trkpt>
      <trkpt lat="44.86966" lon="4.98651">
        <ele>162.6</ele>
        <time>2011-12-03T13:05:42Z</time>
      </trkpt>
      <trkpt lat="44.86947" lon="4.98643">
        <ele>162.12</ele>
        <time>2011-12-03T13:05:45Z</time>
      </trkpt>
      <trkpt lat="44.86927" lon="4.98635">
        <ele>162.6</ele>
        <time>2011-12-03T13:05:48Z</time>
      </trkpt>
      <trkpt lat="44.86908" lon="4.98627">
        <ele>162.6</ele>
        <time>2011-12-03T13:05:51Z</time>
      </trkpt>
      <trkpt lat="44.86888" lon="4.98618">
        <ele>162.12</ele>
        <time>2011-12-03T13:05:54Z</time>
      </trkpt>
      <trkpt lat="44.86869" lon="4.98608">
        <ele>162.12</ele>
        <time>2011-12-03T13:05:57Z</time>
      </trkpt>
      <trkpt lat="44.8685" lon="4.98599">
        <ele>162.6</ele>
        <time>2011-12-03T13:06:00Z</time>
      </trkpt>
      <trkpt lat="44.86831" lon="4.98588">
        <ele>161.64</ele>
        <time>2011-12-03T13:06:03Z</time>
      </trkpt>
      <trkpt lat="44.86811" lon="4.98578">
        <ele>161.64</ele>
        <time>2011-12-03T13:06:06Z</time>
      </trkpt>
      <trkpt lat="44.86792" lon="4.98567">
        <ele>161.16</ele>
        <time>2011-12-03T13:06:09Z</time>
      </trkpt>
      <trkpt lat="44.86772" lon="4.98557">
        <ele>161.16</ele>
        <time>2011-12-03T13:06:12Z</time>
      </trkpt>
      <trkpt lat="44.86752" lon="4.98548">
        <ele>161.64</ele>
        <time>2011-12-03T13:06:15Z</time>
      </trkpt>
      <trkpt lat="44.86731" lon="4.98545">
        <ele>161.16</ele>
        <time>2011-12-03T13:06:18Z</time>
      </trkpt>
      <trkpt lat="44.8671" lon="4.98544">
        <ele>160.68</ele>
        <time>2011-12-03T13:06:21Z</time>
      </trkpt>
      <trkpt lat="44.8669" lon="4.98544">
        <ele>161.16</ele>
        <time>2011-12-03T13:06:24Z</time>
      </trkpt>
      <trkpt lat="44.86669" lon="4.98544">
        <ele>161.16</ele>
        <time>2011-12-03T13:06:27Z</time>
      </trkpt>
      <trkpt lat="44.86649" lon="4.98543">
        <ele>161.16</ele>
        <time>2011-12-03T13:06:30Z</time>
      </trkpt>
      <trkpt lat="44.86629" lon="4.98543">
        <ele>161.64</ele>
        <time>2011-12-03T13:06:33Z</time>
      </trkpt>
      <trkpt lat="44.86611" lon="4.98543">
        <ele>162.12</ele>
        <time>2011-12-03T13:06:36Z</time>
      </trkpt>
      <trkpt lat="44.86588" lon="4.98541">
        <ele>163.56</ele>
        <time>2011-12-03T13:06:40Z</time>
      </trkpt>
      <trkpt lat="44.86569" lon="4.9854">
        <ele>164.52</ele>
        <time>2011-12-03T13:06:44Z</time>
      </trkpt>
      <trkpt lat="44.86547" lon="4.98539">
        <ele>165.96</ele>
        <time>2011-12-03T13:06:49Z</time>
      </trkpt>
      <trkpt lat="44.86527" lon="4.98539">
        <ele>166.93</ele>
        <time>2011-12-03T13:06:54Z</time>
      </trkpt>
      <trkpt lat="44.86508" lon="4.98539">
        <ele>168.37</ele>
        <time>2011-12-03T13:06:59Z</time>
      </trkpt>
      <trkpt lat="44.86488" lon="4.98539">
        <ele>168.85</ele>
        <time>2011-12-03T13:07:04Z</time>
      </trkpt>
      <trkpt lat="44.86467" lon="4.98538">
        <ele>168.37</ele>
        <time>2011-12-03T13:07:09Z</time>
      </trkpt>
      <trkpt lat="44.86448" lon="4.98536">
        <ele>167.41</ele>
        <time>2011-12-03T13:07:13Z</time>
      </trkpt>
      <trkpt lat="44.86426" lon="4.98533">
        <ele>166.45</ele>
        <time>2011-12-03T13:07:18Z</time>
      </trkpt>
      <trkpt lat="44.86412" lon="4.98555">
        <ele>167.89</ele>
        <time>2011-12-03T13:07:23Z</time>
      </trkpt>
      <trkpt lat="44.86405" lon="4.9858">
        <ele>168.37</ele>
        <time>2011-12-03T13:07:27Z</time>
      </trkpt>
      <trkpt lat="44.864" lon="4.98607">
        <ele>168.85</ele>
        <time>2011-12-03T13:07:31Z</time>
      </trkpt>
      <trkpt lat="44.86393" lon="4.98634">
        <ele>169.33</ele>
        <time>2011-12-03T13:07:35Z</time>
      </trkpt>
      <trkpt lat="44.86388" lon="4.98661">
        <ele>169.33</ele>
        <time>2011-12-03T13:07:39Z</time>
      </trkpt>
      <trkpt lat="44.86382" lon="4.98688">
        <ele>169.81</ele>
        <time>2011-12-03T13:07:43Z</time>
      </trkpt>
      <trkpt lat="44.86377" lon="4.98713">
        <ele>169.81</ele>
        <time>2011-12-03T13:07:47Z</time>
      </trkpt>
      <trkpt lat="44.8636" lon="4.98724">
        <ele>170.29</ele>
        <time>2011-12-03T13:07:52Z</time>
      </trkpt>
      <trkpt lat="44.8634" lon="4.98714">
        <ele>170.77</ele>
        <time>2011-12-03T13:07:56Z</time>
      </trkpt>
      <trkpt lat="44.86319" lon="4.98701">
        <ele>170.29</ele>
        <time>2011-12-03T13:08:00Z</time>
      </trkpt>
      <trkpt lat="44.86296" lon="4.98689">
        <ele>170.29</ele>
        <time>2011-12-03T13:08:04Z</time>
      </trkpt>
      <trkpt lat="44.86279" lon="4.98679">
        <ele>169.33</ele>
        <time>2011-12-03T13:08:07Z</time>
      </trkpt>
      <trkpt lat="44.86261" lon="4.9867">
        <ele>169.81</ele>
        <time>2011-12-03T13:08:10Z</time>
      </trkpt>
      <trkpt lat="44.86243" lon="4.98659">
        <ele>169.33</ele>
        <time>2011-12-03T13:08:13Z</time>
      </trkpt>
      <trkpt lat="44.86225" lon="4.98649">
        <ele>169.33</ele>
        <time>2011-12-03T13:08:16Z</time>
      </trkpt>
      <trkpt lat="44.86206" lon="4.98639">
        <ele>168.37</ele>
        <time>2011-12-03T13:08:19Z</time>
      </trkpt>
      <trkpt lat="44.86188" lon="4.98629">
        <ele>168.37</ele>
        <time>2011-12-03T13:08:22Z</time>
      </trkpt>
      <trkpt lat="44.86169" lon="4.98618">
        <ele>168.37</ele>
        <time>2011-12-03T13:08:25Z</time>
      </trkpt>
      <trkpt lat="44.86151" lon="4.98608">
        <ele>167.89</ele>
        <time>2011-12-03T13:08:28Z</time>
      </trkpt>
      <trkpt lat="44.86132" lon="4.98597">
        <ele>167.41</ele>
        <time>2011-12-03T13:08:31Z</time>
      </trkpt>
      <trkpt lat="44.86114" lon="4.98587">
        <ele>167.41</ele>
        <time>2011-12-03T13:08:34Z</time>
      </trkpt>
      <trkpt lat="44.86095" lon="4.98575">
        <ele>167.89</ele>
        <time>2011-12-03T13:08:37Z</time>
      </trkpt>
      <trkpt lat="44.86077" lon="4.98564">
        <ele>167.41</ele>
        <time>2011-12-03T13:08:40Z</time>
      </trkpt>
      <trkpt lat="44.86059" lon="4.98553">
        <ele>166.93</ele>
        <time>2011-12-03T13:08:43Z</time>
      </trkpt>
      <trkpt lat="44.86041" lon="4.98541">
        <ele>166.93</ele>
        <time>2011-12-03T13:08:46Z</time>
      </trkpt>
      <trkpt lat="44.86024" lon="4.9853">
        <ele>165.96</ele>
        <time>2011-12-03T13:08:49Z</time>
      </trkpt>
      <trkpt lat="44.86006" lon="4.9852">
        <ele>166.45</ele>
        <time>2011-12-03T13:08:52Z</time>
      </trkpt>
      <trkpt lat="44.85988" lon="4.98509">
        <ele>166.93</ele>
        <time>2011-12-03T13:08:55Z</time>
      </trkpt>
      <trkpt lat="44.8597" lon="4.98499">
        <ele>166.93</ele>
        <time>2011-12-03T13:08:58Z</time>
      </trkpt>
      <trkpt lat="44.85954" lon="4.98489">
        <ele>166.93</ele>
        <time>2011-12-03T13:09:01Z</time>
      </trkpt>
      <trkpt lat="44.85933" lon="4.98477">
        <ele>166.45</ele>
        <time>2011-12-03T13:09:05Z</time>
      </trkpt>
      <trkpt lat="44.85917" lon="4.98463">
        <ele>165.96</ele>
        <time>2011-12-03T13:09:12Z</time>
      </trkpt>
      <trkpt lat="44.85921" lon="4.98436">
        <ele>165.48</ele>
        <time>2011-12-03T13:09:17Z</time>
      </trkpt>
      <trkpt lat="44.85928" lon="4.98406">
        <ele>165.48</ele>
        <time>2011-12-03T13:09:22Z</time>
      </trkpt>
      <trkpt lat="44.85935" lon="4.98379">
        <ele>165.48</ele>
        <time>2011-12-03T13:09:26Z</time>
      </trkpt>
      <trkpt lat="44.85941" lon="4.98352">
        <ele>164.52</ele>
        <time>2011-12-03T13:09:30Z</time>
      </trkpt>
      <trkpt lat="44.85947" lon="4.98324">
        <ele>164.52</ele>
        <time>2011-12-03T13:09:34Z</time>
      </trkpt>
      <trkpt lat="44.85954" lon="4.98294">
        <ele>164.04</ele>
        <time>2011-12-03T13:09:38Z</time>
      </trkpt>
      <trkpt lat="44.8596" lon="4.98264">
        <ele>163.56</ele>
        <time>2011-12-03T13:09:42Z</time>
      </trkpt>
      <trkpt lat="44.85967" lon="4.98235">
        <ele>163.56</ele>
        <time>2011-12-03T13:09:46Z</time>
      </trkpt>
      <trkpt lat="44.85959" lon="4.98211">
        <ele>162.12</ele>
        <time>2011-12-03T13:09:52Z</time>
      </trkpt>
      <trkpt lat="44.85941" lon="4.982">
        <ele>162.12</ele>
        <time>2011-12-03T13:09:56Z</time>
      </trkpt>
      <trkpt lat="44.85922" lon="4.98188">
        <ele>162.12</ele>
        <time>2011-12-03T13:10:00Z</time>
      </trkpt>
      <trkpt lat="44.85902" lon="4.98176">
        <ele>161.64</ele>
        <time>2011-12-03T13:10:04Z</time>
      </trkpt>
      <trkpt lat="44.85882" lon="4.98163">
        <ele>161.64</ele>
        <time>2011-12-03T13:10:08Z</time>
      </trkpt>
      <trkpt lat="44.85862" lon="4.98151">
        <ele>161.16</ele>
        <time>2011-12-03T13:10:12Z</time>
      </trkpt>
      <trkpt lat="44.85842" lon="4.98138">
        <ele>161.16</ele>
        <time>2011-12-03T13:10:16Z</time>
      </trkpt>
      <trkpt lat="44.85823" lon="4.98126">
        <ele>161.16</ele>
        <time>2011-12-03T13:10:20Z</time>
      </trkpt>
      <trkpt lat="44.85806" lon="4.98111">
        <ele>161.16</ele>
        <time>2011-12-03T13:10:25Z</time>
      </trkpt>
      <trkpt lat="44.85812" lon="4.98082">
        <ele>161.16</ele>
        <time>2011-12-03T13:10:30Z</time>
      </trkpt>
      <trkpt lat="44.85818" lon="4.98057">
        <ele>160.68</ele>
        <time>2011-12-03T13:10:34Z</time>
      </trkpt>
      <trkpt lat="44.85825" lon="4.98032">
        <ele>160.68</ele>
        <time>2011-12-03T13:10:38Z</time>
      </trkpt>
      <trkpt lat="44.85838" lon="4.98012">
        <ele>160.68</ele>
        <time>2011-12-03T13:10:42Z</time>
      </trkpt>
      <trkpt lat="44.85855" lon="4.97994">
        <ele>160.2</ele>
        <time>2011-12-03T13:10:46Z</time>
      </trkpt>
      <trkpt lat="44.85872" lon="4.97975">
        <ele>160.2</ele>
        <time>2011-12-03T13:10:50Z</time>
      </trkpt>
      <trkpt lat="44.85888" lon="4.97957">
        <ele>160.2</ele>
        <time>2011-12-03T13:10:54Z</time>
      </trkpt>
      <trkpt lat="44.85898" lon="4.97934">
        <ele>159.24</ele>
        <time>2011-12-03T13:10:59Z</time>
      </trkpt>
      <trkpt lat="44.85883" lon="4.97917">
        <ele>159.24</ele>
        <time>2011-12-03T13:11:05Z</time>
      </trkpt>
      <trkpt lat="44.85861" lon="4.97909">
        <ele>159.72</ele>
        <time>2011-12-03T13:11:12Z</time>
      </trkpt>
      <trkpt lat="44.85842" lon="4.97901">
        <ele>160.2</ele>
        <time>2011-12-03T13:11:18Z</time>
      </trkpt>
      <trkpt lat="44.85822" lon="4.97892">
        <ele>160.2</ele>
        <time>2011-12-03T13:11:24Z</time>
      </trkpt>
      <trkpt lat="44.8582" lon="4.97877">
        <ele>160.68</ele>
        <time>2011-12-03T13:11:33Z</time>
      </trkpt>
      <trkpt lat="44.85836" lon="4.97861">
        <ele>160.2</ele>
        <time>2011-12-03T13:11:39Z</time>
      </trkpt>
      <trkpt lat="44.85852" lon="4.97839">
        <ele>160.2</ele>
        <time>2011-12-03T13:11:44Z</time>
      </trkpt>
      <trkpt lat="44.85869" lon="4.97817">
        <ele>159.72</ele>
        <time>2011-12-03T13:11:49Z</time>
      </trkpt>
      <trkpt lat="44.85886" lon="4.97793">
        <ele>160.2</ele>
        <time>2011-12-03T13:11:54Z</time>
      </trkpt>
      <trkpt lat="44.85905" lon="4.97766">
        <ele>160.2</ele>
        <time>2011-12-03T13:11:59Z</time>
      </trkpt>
      <trkpt lat="44.8592" lon="4.9774">
        <ele>159.24</ele>
        <time>2011-12-03T13:12:04Z</time>
      </trkpt>
      <trkpt lat="44.85932" lon="4.97717">
        <ele>158.75</ele>
        <time>2011-12-03T13:12:09Z</time>
      </trkpt>
      <trkpt lat="44.85931" lon="4.97718">
        <ele>159.24</ele>
        <time>2011-12-03T13:12:21Z</time>
      </trkpt>
      <trkpt lat="44.85931" lon="4.97695">
        <ele>159.24</ele>
        <time>2011-12-03T13:12:32Z</time>
      </trkpt>
      <trkpt lat="44.85939" lon="4.97664">
        <ele>159.24</ele>
        <time>2011-12-03T13:12:39Z</time>
      </trkpt>
      <trkpt lat="44.85946" lon="4.97635">
        <ele>159.24</ele>
        <time>2011-12-03T13:12:45Z</time>
      </trkpt>
      <trkpt lat="44.85947" lon="4.97603">
        <ele>159.24</ele>
        <time>2011-12-03T13:12:51Z</time>
      </trkpt>
      <trkpt lat="44.85943" lon="4.97571">
        <ele>159.24</ele>
        <time>2011-12-03T13:12:57Z</time>
      </trkpt>
      <trkpt lat="44.85938" lon="4.97541">
        <ele>159.24</ele>
        <time>2011-12-03T13:13:03Z</time>
      </trkpt>
      <trkpt lat="44.85943" lon="4.97514">
        <ele>158.75</ele>
        <time>2011-12-03T13:13:09Z</time>
      </trkpt>
      <trkpt lat="44.85951" lon="4.97487">
        <ele>158.75</ele>
        <time>2011-12-03T13:13:15Z</time>
      </trkpt>
      <trkpt lat="44.85962" lon="4.97458">
        <ele>158.27</ele>
        <time>2011-12-03T13:13:22Z</time>
      </trkpt>
      <trkpt lat="44.8598" lon="4.97435">
        <ele>158.27</ele>
        <time>2011-12-03T13:13:30Z</time>
      </trkpt>
      <trkpt lat="44.86003" lon="4.97425">
        <ele>157.79</ele>
        <time>2011-12-03T13:13:37Z</time>
      </trkpt>
      <trkpt lat="44.86029" lon="4.97407">
        <ele>156.83</ele>
        <time>2011-12-03T13:13:42Z</time>
      </trkpt>
      <trkpt lat="44.8605" lon="4.97385">
        <ele>156.83</ele>
        <time>2011-12-03T13:13:48Z</time>
      </trkpt>
      <trkpt lat="44.8607" lon="4.97371">
        <ele>156.83</ele>
        <time>2011-12-03T13:13:55Z</time>
      </trkpt>
      <trkpt lat="44.86089" lon="4.97358">
        <ele>156.83</ele>
        <time>2011-12-03T13:14:05Z</time>
      </trkpt>
      <trkpt lat="44.86103" lon="4.97331">
        <ele>156.83</ele>
        <time>2011-12-03T13:14:16Z</time>
      </trkpt>
      <trkpt lat="44.86086" lon="4.97328">
        <ele>155.87</ele>
        <time>2011-12-03T13:14:34Z</time>
      </trkpt>
      <trkpt lat="44.86065" lon="4.97346">
        <ele>156.35</ele>
        <time>2011-12-03T13:14:40Z</time>
      </trkpt>
      <trkpt lat="44.86047" lon="4.97361">
        <ele>156.35</ele>
        <time>2011-12-03T13:14:46Z</time>
      </trkpt>
      <trkpt lat="44.8603" lon="4.97378">
        <ele>157.31</ele>
        <time>2011-12-03T13:14:52Z</time>
      </trkpt>
      <trkpt lat="44.86005" lon="4.97394">
        <ele>157.31</ele>
        <time>2011-12-03T13:14:58Z</time>
      </trkpt>
      <trkpt lat="44.85986" lon="4.97407">
        <ele>157.79</ele>
        <time>2011-12-03T13:15:03Z</time>
      </trkpt>
      <trkpt lat="44.85968" lon="4.97421">
        <ele>158.27</ele>
        <time>2011-12-03T13:15:08Z</time>
      </trkpt>
      <trkpt lat="44.85953" lon="4.97447">
        <ele>158.75</ele>
        <time>2011-12-03T13:15:14Z</time>
      </trkpt>
      <trkpt lat="44.85942" lon="4.97476">
        <ele>158.27</ele>
        <time>2011-12-03T13:15:19Z</time>
      </trkpt>
      <trkpt lat="44.85933" lon="4.97507">
        <ele>157.79</ele>
        <time>2011-12-03T13:15:24Z</time>
      </trkpt>
      <trkpt lat="44.85925" lon="4.97532">
        <ele>158.75</ele>
        <time>2011-12-03T13:15:29Z</time>
      </trkpt>
      <trkpt lat="44.85924" lon="4.9756">
        <ele>159.24</ele>
        <time>2011-12-03T13:15:34Z</time>
      </trkpt>
      <trkpt lat="44.85931" lon="4.9759">
        <ele>159.24</ele>
        <time>2011-12-03T13:15:39Z</time>
      </trkpt>
      <trkpt lat="44.85932" lon="4.97619">
        <ele>159.24</ele>
        <time>2011-12-03T13:15:44Z</time>
      </trkpt>
      <trkpt lat="44.8593" lon="4.97651">
        <ele>159.72</ele>
        <time>2011-12-03T13:15:49Z</time>
      </trkpt>
      <trkpt lat="44.85923" lon="4.97678">
        <ele>159.72</ele>
        <time>2011-12-03T13:15:54Z</time>
      </trkpt>
      <trkpt lat="44.85913" lon="4.97706">
        <ele>159.72</ele>
        <time>2011-12-03T13:15:59Z</time>
      </trkpt>
      <trkpt lat="44.85903" lon="4.97728">
        <ele>159.72</ele>
        <time>2011-12-03T13:16:03Z</time>
      </trkpt>
      <trkpt lat="44.8589" lon="4.97751">
        <ele>159.72</ele>
        <time>2011-12-03T13:16:08Z</time>
      </trkpt>
      <trkpt lat="44.85877" lon="4.97771">
        <ele>160.2</ele>
        <time>2011-12-03T13:16:13Z</time>
      </trkpt>
      <trkpt lat="44.8586" lon="4.9779">
        <ele>160.2</ele>
        <time>2011-12-03T13:16:18Z</time>
      </trkpt>
      <trkpt lat="44.85842" lon="4.97796">
        <ele>160.2</ele>
        <time>2011-12-03T13:16:24Z</time>
      </trkpt>
      <trkpt lat="44.85824" lon="4.97766">
        <ele>160.2</ele>
        <time>2011-12-03T13:16:31Z</time>
      </trkpt>
      <trkpt lat="44.8582" lon="4.97725">
        <ele>160.68</ele>
        <time>2011-12-03T13:16:38Z</time>
      </trkpt>
      <trkpt lat="44.85799" lon="4.97709">
        <ele>160.68</ele>
        <time>2011-12-03T13:16:44Z</time>
      </trkpt>
      <trkpt lat="44.85777" lon="4.97695">
        <ele>160.68</ele>
        <time>2011-12-03T13:16:49Z</time>
      </trkpt>
      <trkpt lat="44.8576" lon="4.97683">
        <ele>160.2</ele>
        <time>2011-12-03T13:16:53Z</time>
      </trkpt>
      <trkpt lat="44.85743" lon="4.97671">
        <ele>160.68</ele>
        <time>2011-12-03T13:16:57Z</time>
      </trkpt>
      <trkpt lat="44.85726" lon="4.97657">
        <ele>160.2</ele>
        <time>2011-12-03T13:17:02Z</time>
      </trkpt>
      <trkpt lat="44.85724" lon="4.97627">
        <ele>161.16</ele>
        <time>2011-12-03T13:17:08Z</time>
      </trkpt>
      <trkpt lat="44.85737" lon="4.97588">
        <ele>161.16</ele>
        <time>2011-12-03T13:17:13Z</time>
      </trkpt>
      <trkpt lat="44.85743" lon="4.97556">
        <ele>161.16</ele>
        <time>2011-12-03T13:17:17Z</time>
      </trkpt>
      <trkpt lat="44.8575" lon="4.97525">
        <ele>160.68</ele>
        <time>2011-12-03T13:17:21Z</time>
      </trkpt>
      <trkpt lat="44.85756" lon="4.97495">
        <ele>160.2</ele>
        <time>2011-12-03T13:17:25Z</time>
      </trkpt>
      <trkpt lat="44.85741" lon="4.9748">
        <ele>159.24</ele>
        <time>2011-12-03T13:17:30Z</time>
      </trkpt>
      <trkpt lat="44.85722" lon="4.97475">
        <ele>159.24</ele>
        <time>2011-12-03T13:17:34Z</time>
      </trkpt>
      <trkpt lat="44.85703" lon="4.9747">
        <ele>159.72</ele>
        <time>2011-12-03T13:17:38Z</time>
      </trkpt>
      <trkpt lat="44.85685" lon="4.97465">
        <ele>159.72</ele>
        <time>2011-12-03T13:17:42Z</time>
      </trkpt>
      <trkpt lat="44.85666" lon="4.9746">
        <ele>159.72</ele>
        <time>2011-12-03T13:17:46Z</time>
      </trkpt>
      <trkpt lat="44.85648" lon="4.97455">
        <ele>159.72</ele>
        <time>2011-12-03T13:17:50Z</time>
      </trkpt>
      <trkpt lat="44.85629" lon="4.9745">
        <ele>159.72</ele>
        <time>2011-12-03T13:17:54Z</time>
      </trkpt>
      <trkpt lat="44.85611" lon="4.97446">
        <ele>159.72</ele>
        <time>2011-12-03T13:17:58Z</time>
      </trkpt>
      <trkpt lat="44.85592" lon="4.97442">
        <ele>160.2</ele>
        <time>2011-12-03T13:18:02Z</time>
      </trkpt>
      <trkpt lat="44.85572" lon="4.97439">
        <ele>160.2</ele>
        <time>2011-12-03T13:18:06Z</time>
      </trkpt>
      <trkpt lat="44.85553" lon="4.97436">
        <ele>160.2</ele>
        <time>2011-12-03T13:18:10Z</time>
      </trkpt>
      <trkpt lat="44.85533" lon="4.97433">
        <ele>160.2</ele>
        <time>2011-12-03T13:18:14Z</time>
      </trkpt>
      <trkpt lat="44.85513" lon="4.97429">
        <ele>160.68</ele>
        <time>2011-12-03T13:18:18Z</time>
      </trkpt>
      <trkpt lat="44.85494" lon="4.97427">
        <ele>160.2</ele>
        <time>2011-12-03T13:18:22Z</time>
      </trkpt>
      <trkpt lat="44.85474" lon="4.97426">
        <ele>160.68</ele>
        <time>2011-12-03T13:18:26Z</time>
      </trkpt>
      <trkpt lat="44.85455" lon="4.97425">
        <ele>161.64</ele>
        <time>2011-12-03T13:18:30Z</time>
      </trkpt>
      <trkpt lat="44.85435" lon="4.97421">
        <ele>161.16</ele>
        <time>2011-12-03T13:18:34Z</time>
      </trkpt>
      <trkpt lat="44.85416" lon="4.97416">
        <ele>161.64</ele>
        <time>2011-12-03T13:18:38Z</time>
      </trkpt>
      <trkpt lat="44.85398" lon="4.97409">
        <ele>162.12</ele>
        <time>2011-12-03T13:18:42Z</time>
      </trkpt>
      <trkpt lat="44.8538" lon="4.97401">
        <ele>162.12</ele>
        <time>2011-12-03T13:18:46Z</time>
      </trkpt>
      <trkpt lat="44.85361" lon="4.97394">
        <ele>162.6</ele>
        <time>2011-12-03T13:18:51Z</time>
      </trkpt>
      <trkpt lat="44.85343" lon="4.97386">
        <ele>163.08</ele>
        <time>2011-12-03T13:18:56Z</time>
      </trkpt>
      <trkpt lat="44.85323" lon="4.97376">
        <ele>163.56</ele>
        <time>2011-12-03T13:19:01Z</time>
      </trkpt>
      <trkpt lat="44.85304" lon="4.97368">
        <ele>163.08</ele>
        <time>2011-12-03T13:19:06Z</time>
      </trkpt>
      <trkpt lat="44.85284" lon="4.97362">
        <ele>164.04</ele>
        <time>2011-12-03T13:19:12Z</time>
      </trkpt>
      <trkpt lat="44.85265" lon="4.97354">
        <ele>165</ele>
        <time>2011-12-03T13:19:18Z</time>
      </trkpt>
      <trkpt lat="44.85246" lon="4.97346">
        <ele>165</ele>
        <time>2011-12-03T13:19:24Z</time>
      </trkpt>
      <trkpt lat="44.85227" lon="4.97341">
        <ele>165.96</ele>
        <time>2011-12-03T13:19:31Z</time>
      </trkpt>
      <trkpt lat="44.85208" lon="4.97334">
        <ele>167.41</ele>
        <time>2011-12-03T13:19:39Z</time>
      </trkpt>
      <trkpt lat="44.85188" lon="4.97326">
        <ele>167.89</ele>
        <time>2011-12-03T13:19:46Z</time>
      </trkpt>
      <trkpt lat="44.85176" lon="4.97308">
        <ele>168.85</ele>
        <time>2011-12-03T13:19:52Z</time>
      </trkpt>
      <trkpt lat="44.85177" lon="4.97277">
        <ele>167.89</ele>
        <time>2011-12-03T13:19:57Z</time>
      </trkpt>
      <trkpt lat="44.85174" lon="4.97248">
        <ele>166.93</ele>
        <time>2011-12-03T13:20:01Z</time>
      </trkpt>
      <trkpt lat="44.85166" lon="4.97221">
        <ele>166.45</ele>
        <time>2011-12-03T13:20:05Z</time>
      </trkpt>
      <trkpt lat="44.85156" lon="4.97198">
        <ele>166.93</ele>
        <time>2011-12-03T13:20:09Z</time>
      </trkpt>
      <trkpt lat="44.85146" lon="4.97173">
        <ele>167.41</ele>
        <time>2011-12-03T13:20:14Z</time>
      </trkpt>
      <trkpt lat="44.85136" lon="4.97149">
        <ele>167.41</ele>
        <time>2011-12-03T13:20:20Z</time>
      </trkpt>
      <trkpt lat="44.85133" lon="4.97121">
        <ele>165.96</ele>
        <time>2011-12-03T13:20:26Z</time>
      </trkpt>
      <trkpt lat="44.85131" lon="4.97095">
        <ele>165.96</ele>
        <time>2011-12-03T13:20:30Z</time>
      </trkpt>
      <trkpt lat="44.8513" lon="4.97066">
        <ele>165.96</ele>
        <time>2011-12-03T13:20:34Z</time>
      </trkpt>
      <trkpt lat="44.85127" lon="4.97037">
        <ele>165.48</ele>
        <time>2011-12-03T13:20:38Z</time>
      </trkpt>
      <trkpt lat="44.85126" lon="4.97005">
        <ele>165.48</ele>
        <time>2011-12-03T13:20:42Z</time>
      </trkpt>
      <trkpt lat="44.85125" lon="4.96971">
        <ele>165.48</ele>
        <time>2011-12-03T13:20:46Z</time>
      </trkpt>
      <trkpt lat="44.85123" lon="4.96937">
        <ele>164.52</ele>
        <time>2011-12-03T13:20:50Z</time>
      </trkpt>
      <trkpt lat="44.85122" lon="4.96904">
        <ele>165</ele>
        <time>2011-12-03T13:20:54Z</time>
      </trkpt>
      <trkpt lat="44.85115" lon="4.96872">
        <ele>164.52</ele>
        <time>2011-12-03T13:20:58Z</time>
      </trkpt>
      <trkpt lat="44.85109" lon="4.96844">
        <ele>165</ele>
        <time>2011-12-03T13:21:02Z</time>
      </trkpt>
      <trkpt lat="44.85103" lon="4.96817">
        <ele>164.52</ele>
        <time>2011-12-03T13:21:06Z</time>
      </trkpt>
      <trkpt lat="44.85098" lon="4.96791">
        <ele>164.52</ele>
        <time>2011-12-03T13:21:10Z</time>
      </trkpt>
      <trkpt lat="44.85095" lon="4.96763">
        <ele>164.52</ele>
        <time>2011-12-03T13:21:15Z</time>
      </trkpt>
      <trkpt lat="44.85088" lon="4.96739">
        <ele>164.52</ele>
        <time>2011-12-03T13:21:19Z</time>
      </trkpt>
      <trkpt lat="44.85083" lon="4.96714">
        <ele>165.48</ele>
        <time>2011-12-03T13:21:23Z</time>
      </trkpt>
      <trkpt lat="44.85066" lon="4.9671">
        <ele>164.52</ele>
        <time>2011-12-03T13:21:29Z</time>
      </trkpt>
      <trkpt lat="44.85053" lon="4.9673">
        <ele>165</ele>
        <time>2011-12-03T13:21:34Z</time>
      </trkpt>
      <trkpt lat="44.8504" lon="4.96752">
        <ele>165.96</ele>
        <time>2011-12-03T13:21:39Z</time>
      </trkpt>
      <trkpt lat="44.85022" lon="4.96754">
        <ele>166.93</ele>
        <time>2011-12-03T13:21:44Z</time>
      </trkpt>
      <trkpt lat="44.85004" lon="4.96739">
        <ele>167.41</ele>
        <time>2011-12-03T13:21:50Z</time>
      </trkpt>
      <trkpt lat="44.84985" lon="4.96742">
        <ele>168.37</ele>
        <time>2011-12-03T13:21:56Z</time>
      </trkpt>
      <trkpt lat="44.84967" lon="4.96745">
        <ele>168.37</ele>
        <time>2011-12-03T13:22:01Z</time>
      </trkpt>
      <trkpt lat="44.84947" lon="4.96749">
        <ele>169.81</ele>
        <time>2011-12-03T13:22:07Z</time>
      </trkpt>
      <trkpt lat="44.84928" lon="4.96748">
        <ele>170.77</ele>
        <time>2011-12-03T13:22:13Z</time>
      </trkpt>
      <trkpt lat="44.84909" lon="4.96743">
        <ele>172.21</ele>
        <time>2011-12-03T13:22:20Z</time>
      </trkpt>
      <trkpt lat="44.84889" lon="4.96742">
        <ele>173.17</ele>
        <time>2011-12-03T13:22:27Z</time>
      </trkpt>
      <trkpt lat="44.8487" lon="4.96734">
        <ele>174.62</ele>
        <time>2011-12-03T13:22:34Z</time>
      </trkpt>
      <trkpt lat="44.84858" lon="4.96714">
        <ele>174.62</ele>
        <time>2011-12-03T13:22:40Z</time>
      </trkpt>
      <trkpt lat="44.84848" lon="4.96701">
        <ele>175.58</ele>
        <time>2011-12-03T13:23:11Z</time>
      </trkpt>
      <trkpt lat="44.84832" lon="4.96685">
        <ele>176.54</ele>
        <time>2011-12-03T13:23:18Z</time>
      </trkpt>
      <trkpt lat="44.84815" lon="4.96669">
        <ele>177.5</ele>
        <time>2011-12-03T13:23:25Z</time>
      </trkpt>
      <trkpt lat="44.84797" lon="4.96666">
        <ele>178.94</ele>
        <time>2011-12-03T13:23:32Z</time>
      </trkpt>
      <trkpt lat="44.84779" lon="4.96661">
        <ele>179.9</ele>
        <time>2011-12-03T13:23:39Z</time>
      </trkpt>
      <trkpt lat="44.84759" lon="4.96657">
        <ele>180.87</ele>
        <time>2011-12-03T13:23:46Z</time>
      </trkpt>
      <trkpt lat="44.84744" lon="4.96641">
        <ele>181.83</ele>
        <time>2011-12-03T13:23:55Z</time>
      </trkpt>
      <trkpt lat="44.84734" lon="4.96628">
        <ele>186.15</ele>
        <time>2011-12-03T13:24:10Z</time>
      </trkpt>
      <trkpt lat="44.84715" lon="4.96633">
        <ele>188.08</ele>
        <time>2011-12-03T13:24:22Z</time>
      </trkpt>
      <trkpt lat="44.84697" lon="4.96643">
        <ele>190.48</ele>
        <time>2011-12-03T13:24:35Z</time>
      </trkpt>
      <trkpt lat="44.8468" lon="4.96657">
        <ele>192.88</ele>
        <time>2011-12-03T13:24:48Z</time>
      </trkpt>
      <trkpt lat="44.84664" lon="4.96673">
        <ele>195.28</ele>
        <time>2011-12-03T13:25:01Z</time>
      </trkpt>
      <trkpt lat="44.84647" lon="4.96688">
        <ele>197.21</ele>
        <time>2011-12-03T13:25:13Z</time>
      </trkpt>
      <trkpt lat="44.84634" lon="4.96704">
        <ele>201.05</ele>
        <time>2011-12-03T13:25:26Z</time>
      </trkpt>
      <trkpt lat="44.84618" lon="4.9672">
        <ele>204.42</ele>
        <time>2011-12-03T13:25:43Z</time>
      </trkpt>
      <trkpt lat="44.846" lon="4.96732">
        <ele>207.78</ele>
        <time>2011-12-03T13:25:59Z</time>
      </trkpt>
      <trkpt lat="44.84588" lon="4.96726">
        <ele>211.15</ele>
        <time>2011-12-03T13:26:59Z</time>
      </trkpt>
      <trkpt lat="44.84596" lon="4.96706">
        <ele>213.07</ele>
        <time>2011-12-03T13:27:13Z</time>
      </trkpt>
      <trkpt lat="44.84607" lon="4.96682">
        <ele>213.07</ele>
        <time>2011-12-03T13:27:23Z</time>
      </trkpt>
      <trkpt lat="44.8462" lon="4.96659">
        <ele>212.59</ele>
        <time>2011-12-03T13:27:29Z</time>
      </trkpt>
      <trkpt lat="44.8463" lon="4.96639">
        <ele>210.67</ele>
        <time>2011-12-03T13:27:35Z</time>
      </trkpt>
      <trkpt lat="44.84634" lon="4.96615">
        <ele>211.15</ele>
        <time>2011-12-03T13:27:42Z</time>
      </trkpt>
      <trkpt lat="44.84646" lon="4.96587">
        <ele>209.7</ele>
        <time>2011-12-03T13:27:49Z</time>
      </trkpt>
      <trkpt lat="44.84651" lon="4.96561">
        <ele>210.67</ele>
        <time>2011-12-03T13:27:54Z</time>
      </trkpt>
      <trkpt lat="44.84627" lon="4.96582">
        <ele>213.07</ele>
        <time>2011-12-03T13:28:05Z</time>
      </trkpt>
      <trkpt lat="44.84604" lon="4.96566">
        <ele>212.11</ele>
        <time>2011-12-03T13:28:13Z</time>
      </trkpt>
      <trkpt lat="44.84586" lon="4.96548">
        <ele>211.63</ele>
        <time>2011-12-03T13:28:18Z</time>
      </trkpt>
      <trkpt lat="44.84578" lon="4.96517">
        <ele>211.15</ele>
        <time>2011-12-03T13:28:24Z</time>
      </trkpt>
      <trkpt lat="44.84581" lon="4.96488">
        <ele>210.67</ele>
        <time>2011-12-03T13:28:29Z</time>
      </trkpt>
      <trkpt lat="44.846" lon="4.96461">
        <ele>207.3</ele>
        <time>2011-12-03T13:28:34Z</time>
      </trkpt>
      <trkpt lat="44.84626" lon="4.96448">
        <ele>204.9</ele>
        <time>2011-12-03T13:28:39Z</time>
      </trkpt>
      <trkpt lat="44.84647" lon="4.9644">
        <ele>204.42</ele>
        <time>2011-12-03T13:28:42Z</time>
      </trkpt>
      <trkpt lat="44.84666" lon="4.96431">
        <ele>202.01</ele>
        <time>2011-12-03T13:28:46Z</time>
      </trkpt>
      <trkpt lat="44.84689" lon="4.9643">
        <ele>202.49</ele>
        <time>2011-12-03T13:28:53Z</time>
      </trkpt>
      <trkpt lat="44.84714" lon="4.9643">
        <ele>202.98</ele>
        <time>2011-12-03T13:28:59Z</time>
      </trkpt>
      <trkpt lat="44.84736" lon="4.96441">
        <ele>202.01</ele>
        <time>2011-12-03T13:29:03Z</time>
      </trkpt>
      <trkpt lat="44.84755" lon="4.96458">
        <ele>199.61</ele>
        <time>2011-12-03T13:29:07Z</time>
      </trkpt>
      <trkpt lat="44.84774" lon="4.96465">
        <ele>197.21</ele>
        <time>2011-12-03T13:29:10Z</time>
      </trkpt>
      <trkpt lat="44.84789" lon="4.9648">
        <ele>191.92</ele>
        <time>2011-12-03T13:29:15Z</time>
      </trkpt>
      <trkpt lat="44.84808" lon="4.96494">
        <ele>186.63</ele>
        <time>2011-12-03T13:29:20Z</time>
      </trkpt>
      <trkpt lat="44.84826" lon="4.96486">
        <ele>184.71</ele>
        <time>2011-12-03T13:29:24Z</time>
      </trkpt>
      <trkpt lat="44.84845" lon="4.96468">
        <ele>182.79</ele>
        <time>2011-12-03T13:29:28Z</time>
      </trkpt>
      <trkpt lat="44.84864" lon="4.96462">
        <ele>180.87</ele>
        <time>2011-12-03T13:29:31Z</time>
      </trkpt>
      <trkpt lat="44.84882" lon="4.96437">
        <ele>178.94</ele>
        <time>2011-12-03T13:29:35Z</time>
      </trkpt>
      <trkpt lat="44.8489" lon="4.96415">
        <ele>177.02</ele>
        <time>2011-12-03T13:29:38Z</time>
      </trkpt>
      <trkpt lat="44.84896" lon="4.96381">
        <ele>176.06</ele>
        <time>2011-12-03T13:29:42Z</time>
      </trkpt>
      <trkpt lat="44.84906" lon="4.96354">
        <ele>175.1</ele>
        <time>2011-12-03T13:29:45Z</time>
      </trkpt>
      <trkpt lat="44.84917" lon="4.96327">
        <ele>173.17</ele>
        <time>2011-12-03T13:29:48Z</time>
      </trkpt>
      <trkpt lat="44.84923" lon="4.96308">
        <ele>170.77</ele>
        <time>2011-12-03T13:29:57Z</time>
      </trkpt>
      <trkpt lat="44.84911" lon="4.96286">
        <ele>171.73</ele>
        <time>2011-12-03T13:30:05Z</time>
      </trkpt>
      <trkpt lat="44.84896" lon="4.96265">
        <ele>172.21</ele>
        <time>2011-12-03T13:30:11Z</time>
      </trkpt>
      <trkpt lat="44.84879" lon="4.96249">
        <ele>173.17</ele>
        <time>2011-12-03T13:30:18Z</time>
      </trkpt>
      <trkpt lat="44.84862" lon="4.96235">
        <ele>173.66</ele>
        <time>2011-12-03T13:30:24Z</time>
      </trkpt>
      <trkpt lat="44.84845" lon="4.96216">
        <ele>174.62</ele>
        <time>2011-12-03T13:30:32Z</time>
      </trkpt>
      <trkpt lat="44.84838" lon="4.96193">
        <ele>179.42</ele>
        <time>2011-12-03T13:31:07Z</time>
      </trkpt>
      <trkpt lat="44.84853" lon="4.96176">
        <ele>184.71</ele>
        <time>2011-12-03T13:31:35Z</time>
      </trkpt>
      <trkpt lat="44.84851" lon="4.96151">
        <ele>189.52</ele>
        <time>2011-12-03T13:31:59Z</time>
      </trkpt>
      <trkpt lat="44.84868" lon="4.96146">
        <ele>192.88</ele>
        <time>2011-12-03T13:32:20Z</time>
      </trkpt>
      <trkpt lat="44.8488" lon="4.96126">
        <ele>196.73</ele>
        <time>2011-12-03T13:33:03Z</time>
      </trkpt>
      <trkpt lat="44.84885" lon="4.96102">
        <ele>198.17</ele>
        <time>2011-12-03T13:33:17Z</time>
      </trkpt>
      <trkpt lat="44.84879" lon="4.96076">
        <ele>193.36</ele>
        <time>2011-12-03T13:33:25Z</time>
      </trkpt>
      <trkpt lat="44.84872" lon="4.96036">
        <ele>187.11</ele>
        <time>2011-12-03T13:33:31Z</time>
      </trkpt>
      <trkpt lat="44.84854" lon="4.96017">
        <ele>185.67</ele>
        <time>2011-12-03T13:33:37Z</time>
      </trkpt>
      <trkpt lat="44.84823" lon="4.96025">
        <ele>184.23</ele>
        <time>2011-12-03T13:33:44Z</time>
      </trkpt>
      <trkpt lat="44.84788" lon="4.9605">
        <ele>182.31</ele>
        <time>2011-12-03T13:33:49Z</time>
      </trkpt>
      <trkpt lat="44.84762" lon="4.96065">
        <ele>178.46</ele>
        <time>2011-12-03T13:33:53Z</time>
      </trkpt>
      <trkpt lat="44.84752" lon="4.96049">
        <ele>178.46</ele>
        <time>2011-12-03T13:33:59Z</time>
      </trkpt>
      <trkpt lat="44.84742" lon="4.96029">
        <ele>178.46</ele>
        <time>2011-12-03T13:34:07Z</time>
      </trkpt>
      <trkpt lat="44.8473" lon="4.96009">
        <ele>178.46</ele>
        <time>2011-12-03T13:34:12Z</time>
      </trkpt>
      <trkpt lat="44.84717" lon="4.95983">
        <ele>178.46</ele>
        <time>2011-12-03T13:34:17Z</time>
      </trkpt>
      <trkpt lat="44.84714" lon="4.95954">
        <ele>179.9</ele>
        <time>2011-12-03T13:34:22Z</time>
      </trkpt>
      <trkpt lat="44.84718" lon="4.95927">
        <ele>181.83</ele>
        <time>2011-12-03T13:34:28Z</time>
      </trkpt>
      <trkpt lat="44.84732" lon="4.95909">
        <ele>185.19</ele>
        <time>2011-12-03T13:34:37Z</time>
      </trkpt>
      <trkpt lat="44.84744" lon="4.95884">
        <ele>187.59</ele>
        <time>2011-12-03T13:34:49Z</time>
      </trkpt>
      <trkpt lat="44.84763" lon="4.95864">
        <ele>190</ele>
        <time>2011-12-03T13:35:02Z</time>
      </trkpt>
      <trkpt lat="44.84781" lon="4.95843">
        <ele>192.88</ele>
        <time>2011-12-03T13:35:15Z</time>
      </trkpt>
      <trkpt lat="44.84797" lon="4.95819">
        <ele>196.25</ele>
        <time>2011-12-03T13:35:32Z</time>
      </trkpt>
      <trkpt lat="44.84808" lon="4.95792">
        <ele>200.57</ele>
        <time>2011-12-03T13:35:50Z</time>
      </trkpt>
      <trkpt lat="44.84822" lon="4.95768">
        <ele>203.46</ele>
        <time>2011-12-03T13:36:07Z</time>
      </trkpt>
      <trkpt lat="44.84839" lon="4.95743">
        <ele>202.49</ele>
        <time>2011-12-03T13:36:19Z</time>
      </trkpt>
      <trkpt lat="44.84853" lon="4.95717">
        <ele>199.61</ele>
        <time>2011-12-03T13:36:25Z</time>
      </trkpt>
      <trkpt lat="44.84866" lon="4.95686">
        <ele>202.01</ele>
        <time>2011-12-03T13:36:33Z</time>
      </trkpt>
      <trkpt lat="44.8487" lon="4.95654">
        <ele>204.42</ele>
        <time>2011-12-03T13:36:46Z</time>
      </trkpt>
      <trkpt lat="44.8488" lon="4.95628">
        <ele>205.86</ele>
        <time>2011-12-03T13:36:55Z</time>
      </trkpt>
      <trkpt lat="44.84892" lon="4.95606">
        <ele>206.34</ele>
        <time>2011-12-03T13:37:02Z</time>
      </trkpt>
      <trkpt lat="44.84893" lon="4.95581">
        <ele>205.86</ele>
        <time>2011-12-03T13:37:10Z</time>
      </trkpt>
      <trkpt lat="44.84872" lon="4.95571">
        <ele>203.46</ele>
        <time>2011-12-03T13:37:17Z</time>
      </trkpt>
      <trkpt lat="44.84867" lon="4.95543">
        <ele>201.53</ele>
        <time>2011-12-03T13:37:25Z</time>
      </trkpt>
      <trkpt lat="44.84882" lon="4.95505">
        <ele>199.61</ele>
        <time>2011-12-03T13:37:32Z</time>
      </trkpt>
      <trkpt lat="44.84912" lon="4.95505">
        <ele>203.94</ele>
        <time>2011-12-03T13:37:43Z</time>
      </trkpt>
      <trkpt lat="44.84926" lon="4.95501">
        <ele>203.94</ele>
        <time>2011-12-03T13:40:08Z</time>
      </trkpt>
      <trkpt lat="44.84941" lon="4.95478">
        <ele>202.98</ele>
        <time>2011-12-03T13:40:15Z</time>
      </trkpt>
      <trkpt lat="44.84956" lon="4.95456">
        <ele>201.05</ele>
        <time>2011-12-03T13:40:19Z</time>
      </trkpt>
      <trkpt lat="44.84967" lon="4.95432">
        <ele>199.13</ele>
        <time>2011-12-03T13:40:22Z</time>
      </trkpt>
      <trkpt lat="44.84979" lon="4.95405">
        <ele>198.17</ele>
        <time>2011-12-03T13:40:25Z</time>
      </trkpt>
      <trkpt lat="44.84988" lon="4.95378">
        <ele>197.69</ele>
        <time>2011-12-03T13:40:28Z</time>
      </trkpt>
      <trkpt lat="44.8499" lon="4.9535">
        <ele>197.69</ele>
        <time>2011-12-03T13:40:31Z</time>
      </trkpt>
      <trkpt lat="44.8499" lon="4.95323">
        <ele>197.21</ele>
        <time>2011-12-03T13:40:34Z</time>
      </trkpt>
      <trkpt lat="44.84988" lon="4.95296">
        <ele>196.25</ele>
        <time>2011-12-03T13:40:37Z</time>
      </trkpt>
      <trkpt lat="44.84985" lon="4.9527">
        <ele>195.77</ele>
        <time>2011-12-03T13:40:40Z</time>
      </trkpt>
      <trkpt lat="44.84979" lon="4.95245">
        <ele>195.28</ele>
        <time>2011-12-03T13:40:43Z</time>
      </trkpt>
      <trkpt lat="44.84979" lon="4.95217">
        <ele>194.32</ele>
        <time>2011-12-03T13:40:46Z</time>
      </trkpt>
      <trkpt lat="44.84987" lon="4.9519">
        <ele>193.84</ele>
        <time>2011-12-03T13:40:49Z</time>
      </trkpt>
      <trkpt lat="44.84999" lon="4.95169">
        <ele>192.88</ele>
        <time>2011-12-03T13:40:52Z</time>
      </trkpt>
      <trkpt lat="44.85013" lon="4.95144">
        <ele>191.44</ele>
        <time>2011-12-03T13:40:56Z</time>
      </trkpt>
      <trkpt lat="44.85025" lon="4.95117">
        <ele>191.44</ele>
        <time>2011-12-03T13:41:00Z</time>
      </trkpt>
      <trkpt lat="44.8503" lon="4.95093">
        <ele>191.44</ele>
        <time>2011-12-03T13:41:03Z</time>
      </trkpt>
      <trkpt lat="44.85039" lon="4.95062">
        <ele>191.92</ele>
        <time>2011-12-03T13:41:07Z</time>
      </trkpt>
      <trkpt lat="44.85045" lon="4.95035">
        <ele>191.44</ele>
        <time>2011-12-03T13:41:11Z</time>
      </trkpt>
      <trkpt lat="44.85042" lon="4.9501">
        <ele>192.4</ele>
        <time>2011-12-03T13:41:16Z</time>
      </trkpt>
      <trkpt lat="44.85043" lon="4.94983">
        <ele>192.4</ele>
        <time>2011-12-03T13:41:20Z</time>
      </trkpt>
      <trkpt lat="44.85041" lon="4.94953">
        <ele>191.44</ele>
        <time>2011-12-03T13:41:24Z</time>
      </trkpt>
      <trkpt lat="44.85042" lon="4.94927">
        <ele>190.48</ele>
        <time>2011-12-03T13:41:27Z</time>
      </trkpt>
      <trkpt lat="44.85044" lon="4.94893">
        <ele>189.04</ele>
        <time>2011-12-03T13:41:31Z</time>
      </trkpt>
      <trkpt lat="44.85053" lon="4.94865">
        <ele>188.08</ele>
        <time>2011-12-03T13:41:35Z</time>
      </trkpt>
      <trkpt lat="44.85066" lon="4.94846">
        <ele>188.08</ele>
        <time>2011-12-03T13:41:39Z</time>
      </trkpt>
      <trkpt lat="44.85078" lon="4.9482">
        <ele>187.59</ele>
        <time>2011-12-03T13:41:43Z</time>
      </trkpt>
      <trkpt lat="44.85088" lon="4.94792">
        <ele>187.11</ele>
        <time>2011-12-03T13:41:47Z</time>
      </trkpt>
      <trkpt lat="44.85083" lon="4.94763">
        <ele>186.15</ele>
        <time>2011-12-03T13:41:52Z</time>
      </trkpt>
      <trkpt lat="44.85072" lon="4.94737">
        <ele>185.67</ele>
        <time>2011-12-03T13:41:56Z</time>
      </trkpt>
      <trkpt lat="44.85062" lon="4.94712">
        <ele>184.23</ele>
        <time>2011-12-03T13:42:00Z</time>
      </trkpt>
      <trkpt lat="44.85055" lon="4.94688">
        <ele>183.75</ele>
        <time>2011-12-03T13:42:03Z</time>
      </trkpt>
      <trkpt lat="44.8505" lon="4.94655">
        <ele>182.31</ele>
        <time>2011-12-03T13:42:06Z</time>
      </trkpt>
      <trkpt lat="44.85049" lon="4.94621">
        <ele>180.87</ele>
        <time>2011-12-03T13:42:09Z</time>
      </trkpt>
      <trkpt lat="44.85047" lon="4.94589">
        <ele>180.38</ele>
        <time>2011-12-03T13:42:12Z</time>
      </trkpt>
      <trkpt lat="44.85044" lon="4.94558">
        <ele>179.42</ele>
        <time>2011-12-03T13:42:15Z</time>
      </trkpt>
      <trkpt lat="44.85042" lon="4.94527">
        <ele>178.46</ele>
        <time>2011-12-03T13:42:18Z</time>
      </trkpt>
      <trkpt lat="44.8504" lon="4.94497">
        <ele>177.98</ele>
        <time>2011-12-03T13:42:21Z</time>
      </trkpt>
      <trkpt lat="44.85038" lon="4.94465">
        <ele>176.54</ele>
        <time>2011-12-03T13:42:24Z</time>
      </trkpt>
      <trkpt lat="44.85036" lon="4.94429">
        <ele>174.62</ele>
        <time>2011-12-03T13:42:27Z</time>
      </trkpt>
      <trkpt lat="44.85031" lon="4.94395">
        <ele>171.25</ele>
        <time>2011-12-03T13:42:30Z</time>
      </trkpt>
      <trkpt lat="44.8503" lon="4.9437">
        <ele>170.29</ele>
        <time>2011-12-03T13:42:33Z</time>
      </trkpt>
      <trkpt lat="44.85048" lon="4.94371">
        <ele>165.96</ele>
        <time>2011-12-03T13:42:40Z</time>
      </trkpt>
      <trkpt lat="44.85069" lon="4.94388">
        <ele>162.6</ele>
        <time>2011-12-03T13:42:43Z</time>
      </trkpt>
      <trkpt lat="44.85094" lon="4.94404">
        <ele>159.24</ele>
        <time>2011-12-03T13:42:46Z</time>
      </trkpt>
      <trkpt lat="44.85117" lon="4.94407">
        <ele>156.35</ele>
        <time>2011-12-03T13:42:50Z</time>
      </trkpt>
      <trkpt lat="44.8512" lon="4.94394">
        <ele>156.35</ele>
        <time>2011-12-03T13:42:59Z</time>
      </trkpt>
      <trkpt lat="44.85117" lon="4.9437">
        <ele>155.87</ele>
        <time>2011-12-03T13:43:03Z</time>
      </trkpt>
      <trkpt lat="44.85111" lon="4.94339">
        <ele>155.39</ele>
        <time>2011-12-03T13:43:07Z</time>
      </trkpt>
      <trkpt lat="44.85106" lon="4.94307">
        <ele>154.91</ele>
        <time>2011-12-03T13:43:11Z</time>
      </trkpt>
      <trkpt lat="44.85104" lon="4.94274">
        <ele>154.43</ele>
        <time>2011-12-03T13:43:15Z</time>
      </trkpt>
      <trkpt lat="44.85109" lon="4.94242">
        <ele>153.47</ele>
        <time>2011-12-03T13:43:19Z</time>
      </trkpt>
      <trkpt lat="44.85118" lon="4.94218">
        <ele>152.99</ele>
        <time>2011-12-03T13:43:22Z</time>
      </trkpt>
      <trkpt lat="44.8513" lon="4.94189">
        <ele>152.51</ele>
        <time>2011-12-03T13:43:26Z</time>
      </trkpt>
      <trkpt lat="44.85132" lon="4.94158">
        <ele>152.03</ele>
        <time>2011-12-03T13:43:30Z</time>
      </trkpt>
      <trkpt lat="44.85119" lon="4.9413">
        <ele>151.54</ele>
        <time>2011-12-03T13:43:34Z</time>
      </trkpt>
      <trkpt lat="44.85103" lon="4.94112">
        <ele>151.06</ele>
        <time>2011-12-03T13:43:37Z</time>
      </trkpt>
      <trkpt lat="44.85089" lon="4.94091">
        <ele>150.58</ele>
        <time>2011-12-03T13:43:40Z</time>
      </trkpt>
      <trkpt lat="44.85076" lon="4.94067">
        <ele>149.14</ele>
        <time>2011-12-03T13:43:43Z</time>
      </trkpt>
      <trkpt lat="44.85062" lon="4.94041">
        <ele>148.66</ele>
        <time>2011-12-03T13:43:46Z</time>
      </trkpt>
      <trkpt lat="44.85048" lon="4.94016">
        <ele>146.74</ele>
        <time>2011-12-03T13:43:49Z</time>
      </trkpt>
      <trkpt lat="44.85042" lon="4.93985">
        <ele>144.82</ele>
        <time>2011-12-03T13:43:52Z</time>
      </trkpt>
      <trkpt lat="44.85045" lon="4.93959">
        <ele>143.37</ele>
        <time>2011-12-03T13:43:55Z</time>
      </trkpt>
      <trkpt lat="44.85054" lon="4.93939">
        <ele>143.85</ele>
        <time>2011-12-03T13:43:59Z</time>
      </trkpt>
      <trkpt lat="44.85069" lon="4.93922">
        <ele>143.37</ele>
        <time>2011-12-03T13:44:03Z</time>
      </trkpt>
      <trkpt lat="44.85083" lon="4.93899">
        <ele>143.37</ele>
        <time>2011-12-03T13:44:07Z</time>
      </trkpt>
      <trkpt lat="44.85094" lon="4.93875">
        <ele>143.37</ele>
        <time>2011-12-03T13:44:11Z</time>
      </trkpt>
      <trkpt lat="44.851" lon="4.93848">
        <ele>143.37</ele>
        <time>2011-12-03T13:44:15Z</time>
      </trkpt>
      <trkpt lat="44.85109" lon="4.93819">
        <ele>143.37</ele>
        <time>2011-12-03T13:44:19Z</time>
      </trkpt>
      <trkpt lat="44.85119" lon="4.93789">
        <ele>142.89</ele>
        <time>2011-12-03T13:44:23Z</time>
      </trkpt>
      <trkpt lat="44.85129" lon="4.93766">
        <ele>142.41</ele>
        <time>2011-12-03T13:44:26Z</time>
      </trkpt>
      <trkpt lat="44.85141" lon="4.93746">
        <ele>142.41</ele>
        <time>2011-12-03T13:44:29Z</time>
      </trkpt>
      <trkpt lat="44.85154" lon="4.93728">
        <ele>141.93</ele>
        <time>2011-12-03T13:44:32Z</time>
      </trkpt>
      <trkpt lat="44.85169" lon="4.93711">
        <ele>142.41</ele>
        <time>2011-12-03T13:44:35Z</time>
      </trkpt>
      <trkpt lat="44.85185" lon="4.93694">
        <ele>141.93</ele>
        <time>2011-12-03T13:44:38Z</time>
      </trkpt>
      <trkpt lat="44.85201" lon="4.93678">
        <ele>142.41</ele>
        <time>2011-12-03T13:44:41Z</time>
      </trkpt>
      <trkpt lat="44.85216" lon="4.93664">
        <ele>142.41</ele>
        <time>2011-12-03T13:44:44Z</time>
      </trkpt>
      <trkpt lat="44.85233" lon="4.93649">
        <ele>142.41</ele>
        <time>2011-12-03T13:44:47Z</time>
      </trkpt>
      <trkpt lat="44.85247" lon="4.93634">
        <ele>142.41</ele>
        <time>2011-12-03T13:44:50Z</time>
      </trkpt>
      <trkpt lat="44.85262" lon="4.93618">
        <ele>142.41</ele>
        <time>2011-12-03T13:44:53Z</time>
      </trkpt>
      <trkpt lat="44.8528" lon="4.93596">
        <ele>142.41</ele>
        <time>2011-12-03T13:44:57Z</time>
      </trkpt>
      <trkpt lat="44.85296" lon="4.93579">
        <ele>142.41</ele>
        <time>2011-12-03T13:45:01Z</time>
      </trkpt>
      <trkpt lat="44.85316" lon="4.93573">
        <ele>142.89</ele>
        <time>2011-12-03T13:45:05Z</time>
      </trkpt>
      <trkpt lat="44.85334" lon="4.93566">
        <ele>144.34</ele>
        <time>2011-12-03T13:45:10Z</time>
      </trkpt>
      <trkpt lat="44.85352" lon="4.93551">
        <ele>144.82</ele>
        <time>2011-12-03T13:45:16Z</time>
      </trkpt>
      <trkpt lat="44.85368" lon="4.93535">
        <ele>146.26</ele>
        <time>2011-12-03T13:45:22Z</time>
      </trkpt>
      <trkpt lat="44.85385" lon="4.93525">
        <ele>147.7</ele>
        <time>2011-12-03T13:45:28Z</time>
      </trkpt>
      <trkpt lat="44.85405" lon="4.93518">
        <ele>148.66</ele>
        <time>2011-12-03T13:45:35Z</time>
      </trkpt>
      <trkpt lat="44.85425" lon="4.93512">
        <ele>150.1</ele>
        <time>2011-12-03T13:45:42Z</time>
      </trkpt>
      <trkpt lat="44.85445" lon="4.93512">
        <ele>152.51</ele>
        <time>2011-12-03T13:45:50Z</time>
      </trkpt>
      <trkpt lat="44.85463" lon="4.9352">
        <ele>152.99</ele>
        <time>2011-12-03T13:45:58Z</time>
      </trkpt>
      <trkpt lat="44.85482" lon="4.93527">
        <ele>155.39</ele>
        <time>2011-12-03T13:46:08Z</time>
      </trkpt>
      <trkpt lat="44.85502" lon="4.93527">
        <ele>154.91</ele>
        <time>2011-12-03T13:46:17Z</time>
      </trkpt>
      <trkpt lat="44.85527" lon="4.9352">
        <ele>153.47</ele>
        <time>2011-12-03T13:46:23Z</time>
      </trkpt>
      <trkpt lat="44.85546" lon="4.93507">
        <ele>152.99</ele>
        <time>2011-12-03T13:46:27Z</time>
      </trkpt>
      <trkpt lat="44.85566" lon="4.93487">
        <ele>152.51</ele>
        <time>2011-12-03T13:46:31Z</time>
      </trkpt>
      <trkpt lat="44.85587" lon="4.93471">
        <ele>152.03</ele>
        <time>2011-12-03T13:46:35Z</time>
      </trkpt>
      <trkpt lat="44.85608" lon="4.93457">
        <ele>152.03</ele>
        <time>2011-12-03T13:46:39Z</time>
      </trkpt>
      <trkpt lat="44.8563" lon="4.93452">
        <ele>151.54</ele>
        <time>2011-12-03T13:46:43Z</time>
      </trkpt>
      <trkpt lat="44.8565" lon="4.93448">
        <ele>151.54</ele>
        <time>2011-12-03T13:46:47Z</time>
      </trkpt>
      <trkpt lat="44.85672" lon="4.93447">
        <ele>151.54</ele>
        <time>2011-12-03T13:46:52Z</time>
      </trkpt>
      <trkpt lat="44.85692" lon="4.9345">
        <ele>152.03</ele>
        <time>2011-12-03T13:46:56Z</time>
      </trkpt>
      <trkpt lat="44.85714" lon="4.93454">
        <ele>151.54</ele>
        <time>2011-12-03T13:47:01Z</time>
      </trkpt>
      <trkpt lat="44.85734" lon="4.9346">
        <ele>151.54</ele>
        <time>2011-12-03T13:47:05Z</time>
      </trkpt>
      <trkpt lat="44.85753" lon="4.93468">
        <ele>151.06</ele>
        <time>2011-12-03T13:47:09Z</time>
      </trkpt>
      <trkpt lat="44.85776" lon="4.93477">
        <ele>150.58</ele>
        <time>2011-12-03T13:47:13Z</time>
      </trkpt>
      <trkpt lat="44.85799" lon="4.93484">
        <ele>149.62</ele>
        <time>2011-12-03T13:47:17Z</time>
      </trkpt>
      <trkpt lat="44.85818" lon="4.93488">
        <ele>149.14</ele>
        <time>2011-12-03T13:47:20Z</time>
      </trkpt>
      <trkpt lat="44.85838" lon="4.93492">
        <ele>148.18</ele>
        <time>2011-12-03T13:47:23Z</time>
      </trkpt>
      <trkpt lat="44.85859" lon="4.93497">
        <ele>147.7</ele>
        <time>2011-12-03T13:47:26Z</time>
      </trkpt>
      <trkpt lat="44.85881" lon="4.93503">
        <ele>146.74</ele>
        <time>2011-12-03T13:47:29Z</time>
      </trkpt>
      <trkpt lat="44.85902" lon="4.93511">
        <ele>146.26</ele>
        <time>2011-12-03T13:47:32Z</time>
      </trkpt>
      <trkpt lat="44.85923" lon="4.93524">
        <ele>145.3</ele>
        <time>2011-12-03T13:47:35Z</time>
      </trkpt>
      <trkpt lat="44.85942" lon="4.93537">
        <ele>143.85</ele>
        <time>2011-12-03T13:47:38Z</time>
      </trkpt>
      <trkpt lat="44.85958" lon="4.93546">
        <ele>142.89</ele>
        <time>2011-12-03T13:47:42Z</time>
      </trkpt>
      <trkpt lat="44.85962" lon="4.93525">
        <ele>142.89</ele>
        <time>2011-12-03T13:47:49Z</time>
      </trkpt>
      <trkpt lat="44.85946" lon="4.93479">
        <ele>142.89</ele>
        <time>2011-12-03T13:47:53Z</time>
      </trkpt>
      <trkpt lat="44.85939" lon="4.9345">
        <ele>143.85</ele>
        <time>2011-12-03T13:47:57Z</time>
      </trkpt>
      <trkpt lat="44.85932" lon="4.93423">
        <ele>143.37</ele>
        <time>2011-12-03T13:48:01Z</time>
      </trkpt>
      <trkpt lat="44.85923" lon="4.93394">
        <ele>142.89</ele>
        <time>2011-12-03T13:48:05Z</time>
      </trkpt>
      <trkpt lat="44.85915" lon="4.93364">
        <ele>143.37</ele>
        <time>2011-12-03T13:48:09Z</time>
      </trkpt>
      <trkpt lat="44.85905" lon="4.93333">
        <ele>142.89</ele>
        <time>2011-12-03T13:48:13Z</time>
      </trkpt>
      <trkpt lat="44.85897" lon="4.93309">
        <ele>142.89</ele>
        <time>2011-12-03T13:48:16Z</time>
      </trkpt>
      <trkpt lat="44.85889" lon="4.93283">
        <ele>142.89</ele>
        <time>2011-12-03T13:48:19Z</time>
      </trkpt>
      <trkpt lat="44.85881" lon="4.93258">
        <ele>142.89</ele>
        <time>2011-12-03T13:48:22Z</time>
      </trkpt>
      <trkpt lat="44.85871" lon="4.93234">
        <ele>142.89</ele>
        <time>2011-12-03T13:48:25Z</time>
      </trkpt>
      <trkpt lat="44.85856" lon="4.93215">
        <ele>142.41</ele>
        <time>2011-12-03T13:48:28Z</time>
      </trkpt>
      <trkpt lat="44.85837" lon="4.93203">
        <ele>142.41</ele>
        <time>2011-12-03T13:48:31Z</time>
      </trkpt>
      <trkpt lat="44.85817" lon="4.93194">
        <ele>141.93</ele>
        <time>2011-12-03T13:48:34Z</time>
      </trkpt>
      <trkpt lat="44.85796" lon="4.93182">
        <ele>141.93</ele>
        <time>2011-12-03T13:48:37Z</time>
      </trkpt>
      <trkpt lat="44.85777" lon="4.93165">
        <ele>140.97</ele>
        <time>2011-12-03T13:48:40Z</time>
      </trkpt>
      <trkpt lat="44.85758" lon="4.93148">
        <ele>141.45</ele>
        <time>2011-12-03T13:48:43Z</time>
      </trkpt>
      <trkpt lat="44.85738" lon="4.9313">
        <ele>141.45</ele>
        <time>2011-12-03T13:48:46Z</time>
      </trkpt>
      <trkpt lat="44.85717" lon="4.93111">
        <ele>140.97</ele>
        <time>2011-12-03T13:48:49Z</time>
      </trkpt>
      <trkpt lat="44.85696" lon="4.93091">
        <ele>141.45</ele>
        <time>2011-12-03T13:48:52Z</time>
      </trkpt>
      <trkpt lat="44.85674" lon="4.93073">
        <ele>140.49</ele>
        <time>2011-12-03T13:48:55Z</time>
      </trkpt>
      <trkpt lat="44.85651" lon="4.93057">
        <ele>140.01</ele>
        <time>2011-12-03T13:48:58Z</time>
      </trkpt>
      <trkpt lat="44.8563" lon="4.93044">
        <ele>139.53</ele>
        <time>2011-12-03T13:49:01Z</time>
      </trkpt>
      <trkpt lat="44.85611" lon="4.9303">
        <ele>137.61</ele>
        <time>2011-12-03T13:49:04Z</time>
      </trkpt>
      <trkpt lat="44.85608" lon="4.93004">
        <ele>136.64</ele>
        <time>2011-12-03T13:49:09Z</time>
      </trkpt>
      <trkpt lat="44.85611" lon="4.92988">
        <ele>136.64</ele>
        <time>2011-12-03T13:49:26Z</time>
      </trkpt>
      <trkpt lat="44.85613" lon="4.93002">
        <ele>135.68</ele>
        <time>2011-12-03T13:53:02Z</time>
      </trkpt>
      <trkpt lat="44.8561" lon="4.92995">
        <ele>135.2</ele>
        <time>2011-12-03T14:02:14Z</time>
      </trkpt>
      <trkpt lat="44.85605" lon="4.92999">
        <ele>134.72</ele>
        <time>2011-12-03T14:02:48Z</time>
      </trkpt>
      <trkpt lat="44.85593" lon="4.9297">
        <ele>133.76</ele>
        <time>2011-12-03T14:02:56Z</time>
      </trkpt>
      <trkpt lat="44.85612" lon="4.92932">
        <ele>133.28</ele>
        <time>2011-12-03T14:03:11Z</time>
      </trkpt>
      <trkpt lat="44.85595" lon="4.92915">
        <ele>132.32</ele>
        <time>2011-12-03T14:03:18Z</time>
      </trkpt>
      <trkpt lat="44.8558" lon="4.92897">
        <ele>132.32</ele>
        <time>2011-12-03T14:03:22Z</time>
      </trkpt>
      <trkpt lat="44.85564" lon="4.92874">
        <ele>133.28</ele>
        <time>2011-12-03T14:03:27Z</time>
      </trkpt>
      <trkpt lat="44.85567" lon="4.92843">
        <ele>133.28</ele>
        <time>2011-12-03T14:03:34Z</time>
      </trkpt>
      <trkpt lat="44.85591" lon="4.92802">
        <ele>132.8</ele>
        <time>2011-12-03T14:03:40Z</time>
      </trkpt>
      <trkpt lat="44.85608" lon="4.92774">
        <ele>133.28</ele>
        <time>2011-12-03T14:03:44Z</time>
      </trkpt>
      <trkpt lat="44.85618" lon="4.9275">
        <ele>132.8</ele>
        <time>2011-12-03T14:03:48Z</time>
      </trkpt>
      <trkpt lat="44.85627" lon="4.92725">
        <ele>132.8</ele>
        <time>2011-12-03T14:03:52Z</time>
      </trkpt>
      <trkpt lat="44.85636" lon="4.92702">
        <ele>132.8</ele>
        <time>2011-12-03T14:03:56Z</time>
      </trkpt>
      <trkpt lat="44.85646" lon="4.9268">
        <ele>133.28</ele>
        <time>2011-12-03T14:04:00Z</time>
      </trkpt>
      <trkpt lat="44.85656" lon="4.92658">
        <ele>132.32</ele>
        <time>2011-12-03T14:04:04Z</time>
      </trkpt>
      <trkpt lat="44.85667" lon="4.92631">
        <ele>132.32</ele>
        <time>2011-12-03T14:04:09Z</time>
      </trkpt>
      <trkpt lat="44.85676" lon="4.92608">
        <ele>132.32</ele>
        <time>2011-12-03T14:04:13Z</time>
      </trkpt>
      <trkpt lat="44.85686" lon="4.92586">
        <ele>132.32</ele>
        <time>2011-12-03T14:04:17Z</time>
      </trkpt>
      <trkpt lat="44.85697" lon="4.92562">
        <ele>131.84</ele>
        <time>2011-12-03T14:04:21Z</time>
      </trkpt>
      <trkpt lat="44.85706" lon="4.92538">
        <ele>131.84</ele>
        <time>2011-12-03T14:04:25Z</time>
      </trkpt>
      <trkpt lat="44.85716" lon="4.92513">
        <ele>132.32</ele>
        <time>2011-12-03T14:04:29Z</time>
      </trkpt>
      <trkpt lat="44.85725" lon="4.92488">
        <ele>132.32</ele>
        <time>2011-12-03T14:04:33Z</time>
      </trkpt>
      <trkpt lat="44.85732" lon="4.92462">
        <ele>131.84</ele>
        <time>2011-12-03T14:04:37Z</time>
      </trkpt>
      <trkpt lat="44.85745" lon="4.92444">
        <ele>131.84</ele>
        <time>2011-12-03T14:04:42Z</time>
      </trkpt>
      <trkpt lat="44.85764" lon="4.92432">
        <ele>131.36</ele>
        <time>2011-12-03T14:04:51Z</time>
      </trkpt>
      <trkpt lat="44.8578" lon="4.9242">
        <ele>131.84</ele>
        <time>2011-12-03T14:04:55Z</time>
      </trkpt>
      <trkpt lat="44.85793" lon="4.92397">
        <ele>131.36</ele>
        <time>2011-12-03T14:04:59Z</time>
      </trkpt>
      <trkpt lat="44.85802" lon="4.92371">
        <ele>131.36</ele>
        <time>2011-12-03T14:05:03Z</time>
      </trkpt>
      <trkpt lat="44.85809" lon="4.92342">
        <ele>131.36</ele>
        <time>2011-12-03T14:05:07Z</time>
      </trkpt>
      <trkpt lat="44.85814" lon="4.92312">
        <ele>130.88</ele>
        <time>2011-12-03T14:05:11Z</time>
      </trkpt>
      <trkpt lat="44.85818" lon="4.92285">
        <ele>130.88</ele>
        <time>2011-12-03T14:05:15Z</time>
      </trkpt>
      <trkpt lat="44.85829" lon="4.9226">
        <ele>131.36</ele>
        <time>2011-12-03T14:05:19Z</time>
      </trkpt>
      <trkpt lat="44.85848" lon="4.92244">
        <ele>130.88</ele>
        <time>2011-12-03T14:05:23Z</time>
      </trkpt>
      <trkpt lat="44.8587" lon="4.92244">
        <ele>131.36</ele>
        <time>2011-12-03T14:05:27Z</time>
      </trkpt>
      <trkpt lat="44.85892" lon="4.92252">
        <ele>130.88</ele>
        <time>2011-12-03T14:05:31Z</time>
      </trkpt>
      <trkpt lat="44.85915" lon="4.92261">
        <ele>130.4</ele>
        <time>2011-12-03T14:05:35Z</time>
      </trkpt>
      <trkpt lat="44.85936" lon="4.92274">
        <ele>129.92</ele>
        <time>2011-12-03T14:05:39Z</time>
      </trkpt>
      <trkpt lat="44.85956" lon="4.92287">
        <ele>129.92</ele>
        <time>2011-12-03T14:05:43Z</time>
      </trkpt>
      <trkpt lat="44.85976" lon="4.923">
        <ele>129.92</ele>
        <time>2011-12-03T14:05:47Z</time>
      </trkpt>
      <trkpt lat="44.85998" lon="4.92309">
        <ele>129.92</ele>
        <time>2011-12-03T14:05:51Z</time>
      </trkpt>
      <trkpt lat="44.8602" lon="4.92311">
        <ele>129.43</ele>
        <time>2011-12-03T14:05:55Z</time>
      </trkpt>
      <trkpt lat="44.8604" lon="4.92319">
        <ele>129.43</ele>
        <time>2011-12-03T14:05:59Z</time>
      </trkpt>
      <trkpt lat="44.86059" lon="4.92332">
        <ele>129.43</ele>
        <time>2011-12-03T14:06:03Z</time>
      </trkpt>
      <trkpt lat="44.86077" lon="4.92341">
        <ele>129.43</ele>
        <time>2011-12-03T14:06:08Z</time>
      </trkpt>
      <trkpt lat="44.86097" lon="4.9233">
        <ele>129.43</ele>
        <time>2011-12-03T14:06:14Z</time>
      </trkpt>
      <trkpt lat="44.86109" lon="4.9231">
        <ele>129.43</ele>
        <time>2011-12-03T14:06:18Z</time>
      </trkpt>
      <trkpt lat="44.86124" lon="4.92288">
        <ele>129.43</ele>
        <time>2011-12-03T14:06:22Z</time>
      </trkpt>
      <trkpt lat="44.8614" lon="4.92268">
        <ele>128.47</ele>
        <time>2011-12-03T14:06:26Z</time>
      </trkpt>
      <trkpt lat="44.86158" lon="4.92245">
        <ele>128.47</ele>
        <time>2011-12-03T14:06:30Z</time>
      </trkpt>
      <trkpt lat="44.8617" lon="4.92218">
        <ele>127.99</ele>
        <time>2011-12-03T14:06:34Z</time>
      </trkpt>
      <trkpt lat="44.86178" lon="4.92189">
        <ele>128.47</ele>
        <time>2011-12-03T14:06:38Z</time>
      </trkpt>
      <trkpt lat="44.86186" lon="4.92161">
        <ele>128.47</ele>
        <time>2011-12-03T14:06:42Z</time>
      </trkpt>
      <trkpt lat="44.86194" lon="4.92134">
        <ele>127.99</ele>
        <time>2011-12-03T14:06:46Z</time>
      </trkpt>
      <trkpt lat="44.86197" lon="4.92108">
        <ele>124.63</ele>
        <time>2011-12-03T14:06:51Z</time>
      </trkpt>
      <trkpt lat="44.86202" lon="4.92106">
        <ele>127.03</ele>
        <time>2011-12-03T14:08:55Z</time>
      </trkpt>
      <trkpt lat="44.86211" lon="4.9208">
        <ele>126.55</ele>
        <time>2011-12-03T14:09:08Z</time>
      </trkpt>
      <trkpt lat="44.86214" lon="4.92052">
        <ele>127.03</ele>
        <time>2011-12-03T14:09:14Z</time>
      </trkpt>
      <trkpt lat="44.86223" lon="4.92025">
        <ele>127.03</ele>
        <time>2011-12-03T14:09:19Z</time>
      </trkpt>
      <trkpt lat="44.86232" lon="4.91994">
        <ele>127.03</ele>
        <time>2011-12-03T14:09:25Z</time>
      </trkpt>
      <trkpt lat="44.86239" lon="4.91966">
        <ele>127.03</ele>
        <time>2011-12-03T14:09:32Z</time>
      </trkpt>
      <trkpt lat="44.86247" lon="4.91936">
        <ele>127.03</ele>
        <time>2011-12-03T14:09:38Z</time>
      </trkpt>
      <trkpt lat="44.86256" lon="4.91908">
        <ele>127.03</ele>
        <time>2011-12-03T14:09:43Z</time>
      </trkpt>
      <trkpt lat="44.86268" lon="4.91877">
        <ele>127.03</ele>
        <time>2011-12-03T14:09:48Z</time>
      </trkpt>
      <trkpt lat="44.86277" lon="4.91851">
        <ele>126.55</ele>
        <time>2011-12-03T14:09:52Z</time>
      </trkpt>
      <trkpt lat="44.86286" lon="4.91818">
        <ele>127.03</ele>
        <time>2011-12-03T14:09:57Z</time>
      </trkpt>
      <trkpt lat="44.86295" lon="4.91791">
        <ele>126.07</ele>
        <time>2011-12-03T14:10:02Z</time>
      </trkpt>
      <trkpt lat="44.86302" lon="4.91766">
        <ele>125.59</ele>
        <time>2011-12-03T14:10:09Z</time>
      </trkpt>
      <trkpt lat="44.8631" lon="4.91735">
        <ele>126.07</ele>
        <time>2011-12-03T14:10:17Z</time>
      </trkpt>
      <trkpt lat="44.86321" lon="4.91702">
        <ele>126.07</ele>
        <time>2011-12-03T14:10:23Z</time>
      </trkpt>
      <trkpt lat="44.86336" lon="4.91688">
        <ele>126.55</ele>
        <time>2011-12-03T14:10:33Z</time>
      </trkpt>
      <trkpt lat="44.86358" lon="4.91779">
        <ele>127.03</ele>
        <time>2011-12-03T14:10:42Z</time>
      </trkpt>
      <trkpt lat="44.8637" lon="4.91818">
        <ele>127.03</ele>
        <time>2011-12-03T14:10:48Z</time>
      </trkpt>
      <trkpt lat="44.86375" lon="4.91853">
        <ele>127.51</ele>
        <time>2011-12-03T14:10:53Z</time>
      </trkpt>
      <trkpt lat="44.8638" lon="4.9188">
        <ele>127.03</ele>
        <time>2011-12-03T14:10:57Z</time>
      </trkpt>
      <trkpt lat="44.86376" lon="4.9191">
        <ele>127.03</ele>
        <time>2011-12-03T14:11:01Z</time>
      </trkpt>
      <trkpt lat="44.86366" lon="4.91941">
        <ele>126.55</ele>
        <time>2011-12-03T14:11:05Z</time>
      </trkpt>
      <trkpt lat="44.86358" lon="4.91967">
        <ele>127.03</ele>
        <time>2011-12-03T14:11:09Z</time>
      </trkpt>
      <trkpt lat="44.86352" lon="4.91992">
        <ele>127.51</ele>
        <time>2011-12-03T14:11:13Z</time>
      </trkpt>
      <trkpt lat="44.86347" lon="4.92019">
        <ele>127.51</ele>
        <time>2011-12-03T14:11:17Z</time>
      </trkpt>
      <trkpt lat="44.86341" lon="4.92045">
        <ele>127.51</ele>
        <time>2011-12-03T14:11:21Z</time>
      </trkpt>
      <trkpt lat="44.86334" lon="4.92075">
        <ele>127.51</ele>
        <time>2011-12-03T14:11:26Z</time>
      </trkpt>
      <trkpt lat="44.86329" lon="4.92101">
        <ele>127.51</ele>
        <time>2011-12-03T14:11:30Z</time>
      </trkpt>
      <trkpt lat="44.86329" lon="4.92132">
        <ele>127.51</ele>
        <time>2011-12-03T14:11:35Z</time>
      </trkpt>
      <trkpt lat="44.8634" lon="4.92159">
        <ele>127.51</ele>
        <time>2011-12-03T14:11:40Z</time>
      </trkpt>
      <trkpt lat="44.86356" lon="4.92179">
        <ele>127.51</ele>
        <time>2011-12-03T14:11:45Z</time>
      </trkpt>
      <trkpt lat="44.86371" lon="4.92198">
        <ele>128.47</ele>
        <time>2011-12-03T14:11:50Z</time>
      </trkpt>
      <trkpt lat="44.86385" lon="4.92219">
        <ele>127.99</ele>
        <time>2011-12-03T14:11:55Z</time>
      </trkpt>
      <trkpt lat="44.86401" lon="4.92239">
        <ele>128.95</ele>
        <time>2011-12-03T14:12:01Z</time>
      </trkpt>
      <trkpt lat="44.86417" lon="4.92241">
        <ele>130.88</ele>
        <time>2011-12-03T14:12:16Z</time>
      </trkpt>
      <trkpt lat="44.86425" lon="4.92223">
        <ele>129.43</ele>
        <time>2011-12-03T14:12:27Z</time>
      </trkpt>
      <trkpt lat="44.86408" lon="4.92204">
        <ele>128.95</ele>
        <time>2011-12-03T14:12:37Z</time>
      </trkpt>
      <trkpt lat="44.86392" lon="4.92183">
        <ele>128.95</ele>
        <time>2011-12-03T14:12:43Z</time>
      </trkpt>
      <trkpt lat="44.86378" lon="4.92162">
        <ele>128.95</ele>
        <time>2011-12-03T14:12:48Z</time>
      </trkpt>
      <trkpt lat="44.86365" lon="4.92138">
        <ele>129.43</ele>
        <time>2011-12-03T14:12:53Z</time>
      </trkpt>
      <trkpt lat="44.86356" lon="4.9211">
        <ele>128.95</ele>
        <time>2011-12-03T14:12:58Z</time>
      </trkpt>
      <trkpt lat="44.8635" lon="4.92077">
        <ele>128.95</ele>
        <time>2011-12-03T14:13:04Z</time>
      </trkpt>
      <trkpt lat="44.86361" lon="4.92037">
        <ele>128.47</ele>
        <time>2011-12-03T14:13:10Z</time>
      </trkpt>
      <trkpt lat="44.86387" lon="4.91989">
        <ele>129.43</ele>
        <time>2011-12-03T14:13:15Z</time>
      </trkpt>
      <trkpt lat="44.86394" lon="4.91961">
        <ele>129.43</ele>
        <time>2011-12-03T14:13:19Z</time>
      </trkpt>
      <trkpt lat="44.864" lon="4.91934">
        <ele>128.95</ele>
        <time>2011-12-03T14:13:23Z</time>
      </trkpt>
      <trkpt lat="44.86402" lon="4.91907">
        <ele>128.47</ele>
        <time>2011-12-03T14:13:27Z</time>
      </trkpt>
      <trkpt lat="44.86398" lon="4.91881">
        <ele>127.99</ele>
        <time>2011-12-03T14:13:31Z</time>
      </trkpt>
      <trkpt lat="44.86392" lon="4.91855">
        <ele>127.99</ele>
        <time>2011-12-03T14:13:35Z</time>
      </trkpt>
      <trkpt lat="44.86387" lon="4.9183">
        <ele>128.47</ele>
        <time>2011-12-03T14:13:39Z</time>
      </trkpt>
      <trkpt lat="44.86382" lon="4.91801">
        <ele>127.51</ele>
        <time>2011-12-03T14:13:43Z</time>
      </trkpt>
      <trkpt lat="44.86377" lon="4.91771">
        <ele>127.99</ele>
        <time>2011-12-03T14:13:47Z</time>
      </trkpt>
      <trkpt lat="44.86372" lon="4.91744">
        <ele>127.51</ele>
        <time>2011-12-03T14:13:52Z</time>
      </trkpt>
      <trkpt lat="44.86358" lon="4.91719">
        <ele>127.99</ele>
        <time>2011-12-03T14:14:01Z</time>
      </trkpt>
      <trkpt lat="44.86345" lon="4.91699">
        <ele>128.47</ele>
        <time>2011-12-03T14:14:05Z</time>
      </trkpt>
      <trkpt lat="44.86332" lon="4.91676">
        <ele>127.51</ele>
        <time>2011-12-03T14:14:09Z</time>
      </trkpt>
      <trkpt lat="44.86323" lon="4.91656">
        <ele>127.03</ele>
        <time>2011-12-03T14:14:35Z</time>
      </trkpt>
      <trkpt lat="44.86315" lon="4.91633">
        <ele>127.99</ele>
        <time>2011-12-03T14:14:43Z</time>
      </trkpt>
      <trkpt lat="44.86311" lon="4.91603">
        <ele>127.51</ele>
        <time>2011-12-03T14:14:48Z</time>
      </trkpt>
      <trkpt lat="44.86308" lon="4.91575">
        <ele>127.03</ele>
        <time>2011-12-03T14:14:52Z</time>
      </trkpt>
      <trkpt lat="44.86308" lon="4.91544">
        <ele>127.51</ele>
        <time>2011-12-03T14:14:56Z</time>
      </trkpt>
      <trkpt lat="44.86304" lon="4.9151">
        <ele>127.51</ele>
        <time>2011-12-03T14:15:00Z</time>
      </trkpt>
      <trkpt lat="44.86301" lon="4.91477">
        <ele>127.51</ele>
        <time>2011-12-03T14:15:04Z</time>
      </trkpt>
      <trkpt lat="44.86297" lon="4.91442">
        <ele>127.51</ele>
        <time>2011-12-03T14:15:08Z</time>
      </trkpt>
      <trkpt lat="44.86295" lon="4.91415">
        <ele>127.99</ele>
        <time>2011-12-03T14:15:11Z</time>
      </trkpt>
      <trkpt lat="44.86292" lon="4.91381">
        <ele>127.03</ele>
        <time>2011-12-03T14:15:15Z</time>
      </trkpt>
      <trkpt lat="44.86289" lon="4.91348">
        <ele>127.03</ele>
        <time>2011-12-03T14:15:19Z</time>
      </trkpt>
      <trkpt lat="44.86287" lon="4.91321">
        <ele>127.51</ele>
        <time>2011-12-03T14:15:22Z</time>
      </trkpt>
      <trkpt lat="44.86284" lon="4.91296">
        <ele>127.99</ele>
        <time>2011-12-03T14:15:25Z</time>
      </trkpt>
      <trkpt lat="44.86281" lon="4.91269">
        <ele>126.55</ele>
        <time>2011-12-03T14:15:28Z</time>
      </trkpt>
      <trkpt lat="44.86277" lon="4.91243">
        <ele>127.51</ele>
        <time>2011-12-03T14:15:31Z</time>
      </trkpt>
      <trkpt lat="44.86272" lon="4.91217">
        <ele>127.03</ele>
        <time>2011-12-03T14:15:34Z</time>
      </trkpt>
      <trkpt lat="44.86267" lon="4.91192">
        <ele>126.55</ele>
        <time>2011-12-03T14:15:37Z</time>
      </trkpt>
      <trkpt lat="44.86261" lon="4.91167">
        <ele>127.51</ele>
        <time>2011-12-03T14:15:40Z</time>
      </trkpt>
      <trkpt lat="44.86255" lon="4.91142">
        <ele>127.03</ele>
        <time>2011-12-03T14:15:43Z</time>
      </trkpt>
      <trkpt lat="44.86248" lon="4.91117">
        <ele>126.55</ele>
        <time>2011-12-03T14:15:46Z</time>
      </trkpt>
      <trkpt lat="44.86239" lon="4.91093">
        <ele>126.55</ele>
        <time>2011-12-03T14:15:49Z</time>
      </trkpt>
      <trkpt lat="44.86231" lon="4.91069">
        <ele>126.55</ele>
        <time>2011-12-03T14:15:52Z</time>
      </trkpt>
      <trkpt lat="44.86221" lon="4.91046">
        <ele>126.55</ele>
        <time>2011-12-03T14:15:55Z</time>
      </trkpt>
      <trkpt lat="44.86213" lon="4.91022">
        <ele>126.55</ele>
        <time>2011-12-03T14:15:58Z</time>
      </trkpt>
      <trkpt lat="44.86206" lon="4.90999">
        <ele>126.07</ele>
        <time>2011-12-03T14:16:01Z</time>
      </trkpt>
      <trkpt lat="44.86197" lon="4.90968">
        <ele>126.07</ele>
        <time>2011-12-03T14:16:05Z</time>
      </trkpt>
      <trkpt lat="44.86188" lon="4.90937">
        <ele>126.55</ele>
        <time>2011-12-03T14:16:09Z</time>
      </trkpt>
      <trkpt lat="44.86181" lon="4.90913">
        <ele>126.55</ele>
        <time>2011-12-03T14:16:12Z</time>
      </trkpt>
      <trkpt lat="44.86175" lon="4.90888">
        <ele>126.55</ele>
        <time>2011-12-03T14:16:15Z</time>
      </trkpt>
      <trkpt lat="44.86168" lon="4.90855">
        <ele>126.07</ele>
        <time>2011-12-03T14:16:19Z</time>
      </trkpt>
      <trkpt lat="44.86163" lon="4.90831">
        <ele>126.07</ele>
        <time>2011-12-03T14:16:22Z</time>
      </trkpt>
      <trkpt lat="44.86155" lon="4.90799">
        <ele>126.55</ele>
        <time>2011-12-03T14:16:26Z</time>
      </trkpt>
      <trkpt lat="44.86146" lon="4.90767">
        <ele>126.07</ele>
        <time>2011-12-03T14:16:30Z</time>
      </trkpt>
      <trkpt lat="44.8614" lon="4.90742">
        <ele>126.55</ele>
        <time>2011-12-03T14:16:33Z</time>
      </trkpt>
      <trkpt lat="44.86133" lon="4.90712">
        <ele>126.07</ele>
        <time>2011-12-03T14:16:37Z</time>
      </trkpt>
      <trkpt lat="44.86124" lon="4.90682">
        <ele>126.07</ele>
        <time>2011-12-03T14:16:41Z</time>
      </trkpt>
      <trkpt lat="44.86118" lon="4.90651">
        <ele>126.07</ele>
        <time>2011-12-03T14:16:45Z</time>
      </trkpt>
      <trkpt lat="44.86126" lon="4.90625">
        <ele>125.59</ele>
        <time>2011-12-03T14:16:48Z</time>
      </trkpt>
      <trkpt lat="44.86139" lon="4.90603">
        <ele>125.11</ele>
        <time>2011-12-03T14:16:51Z</time>
      </trkpt>
      <trkpt lat="44.86153" lon="4.90581">
        <ele>124.63</ele>
        <time>2011-12-03T14:16:54Z</time>
      </trkpt>
      <trkpt lat="44.86167" lon="4.90561">
        <ele>125.59</ele>
        <time>2011-12-03T14:16:57Z</time>
      </trkpt>
      <trkpt lat="44.86184" lon="4.90538">
        <ele>124.63</ele>
        <time>2011-12-03T14:17:01Z</time>
      </trkpt>
      <trkpt lat="44.86195" lon="4.90516">
        <ele>124.15</ele>
        <time>2011-12-03T14:17:04Z</time>
      </trkpt>
      <trkpt lat="44.86202" lon="4.90491">
        <ele>124.15</ele>
        <time>2011-12-03T14:17:07Z</time>
      </trkpt>
      <trkpt lat="44.86206" lon="4.90464">
        <ele>124.15</ele>
        <time>2011-12-03T14:17:10Z</time>
      </trkpt>
      <trkpt lat="44.8621" lon="4.90437">
        <ele>123.67</ele>
        <time>2011-12-03T14:17:13Z</time>
      </trkpt>
      <trkpt lat="44.86212" lon="4.90404">
        <ele>123.67</ele>
        <time>2011-12-03T14:17:17Z</time>
      </trkpt>
      <trkpt lat="44.8621" lon="4.90375">
        <ele>123.67</ele>
        <time>2011-12-03T14:17:21Z</time>
      </trkpt>
      <trkpt lat="44.86206" lon="4.90348">
        <ele>123.67</ele>
        <time>2011-12-03T14:17:27Z</time>
      </trkpt>
      <trkpt lat="44.86197" lon="4.90325">
        <ele>121.26</ele>
        <time>2011-12-03T14:17:35Z</time>
      </trkpt>
      <trkpt lat="44.86188" lon="4.90299">
        <ele>122.22</ele>
        <time>2011-12-03T14:17:42Z</time>
      </trkpt>
      <trkpt lat="44.86178" lon="4.90271">
        <ele>121.74</ele>
        <time>2011-12-03T14:17:47Z</time>
      </trkpt>
      <trkpt lat="44.86169" lon="4.90246">
        <ele>121.26</ele>
        <time>2011-12-03T14:17:51Z</time>
      </trkpt>
      <trkpt lat="44.86158" lon="4.90221">
        <ele>121.74</ele>
        <time>2011-12-03T14:17:55Z</time>
      </trkpt>
      <trkpt lat="44.86145" lon="4.90201">
        <ele>121.74</ele>
        <time>2011-12-03T14:17:59Z</time>
      </trkpt>
      <trkpt lat="44.86135" lon="4.90177">
        <ele>123.19</ele>
        <time>2011-12-03T14:18:04Z</time>
      </trkpt>
      <trkpt lat="44.86121" lon="4.90153">
        <ele>123.67</ele>
        <time>2011-12-03T14:18:09Z</time>
      </trkpt>
      <trkpt lat="44.86107" lon="4.90135">
        <ele>123.67</ele>
        <time>2011-12-03T14:18:13Z</time>
      </trkpt>
      <trkpt lat="44.8609" lon="4.90118">
        <ele>123.19</ele>
        <time>2011-12-03T14:18:17Z</time>
      </trkpt>
      <trkpt lat="44.86073" lon="4.90102">
        <ele>123.19</ele>
        <time>2011-12-03T14:18:21Z</time>
      </trkpt>
      <trkpt lat="44.86057" lon="4.90086">
        <ele>123.67</ele>
        <time>2011-12-03T14:18:25Z</time>
      </trkpt>
      <trkpt lat="44.86042" lon="4.90069">
        <ele>123.67</ele>
        <time>2011-12-03T14:18:30Z</time>
      </trkpt>
      <trkpt lat="44.86027" lon="4.90047">
        <ele>123.19</ele>
        <time>2011-12-03T14:18:37Z</time>
      </trkpt>
      <trkpt lat="44.86008" lon="4.90028">
        <ele>123.67</ele>
        <time>2011-12-03T14:18:44Z</time>
      </trkpt>
      <trkpt lat="44.85991" lon="4.90015">
        <ele>124.15</ele>
        <time>2011-12-03T14:18:58Z</time>
      </trkpt>
      <trkpt lat="44.85973" lon="4.90024">
        <ele>124.15</ele>
        <time>2011-12-03T14:19:04Z</time>
      </trkpt>
      <trkpt lat="44.85956" lon="4.9003">
        <ele>124.15</ele>
        <time>2011-12-03T14:19:10Z</time>
      </trkpt>
      <trkpt lat="44.85939" lon="4.9001">
        <ele>122.71</ele>
        <time>2011-12-03T14:19:15Z</time>
      </trkpt>
      <trkpt lat="44.85925" lon="4.89985">
        <ele>123.19</ele>
        <time>2011-12-03T14:19:19Z</time>
      </trkpt>
      <trkpt lat="44.85915" lon="4.89957">
        <ele>122.71</ele>
        <time>2011-12-03T14:19:23Z</time>
      </trkpt>
      <trkpt lat="44.85906" lon="4.89929">
        <ele>122.71</ele>
        <time>2011-12-03T14:19:27Z</time>
      </trkpt>
      <trkpt lat="44.85899" lon="4.89901">
        <ele>123.19</ele>
        <time>2011-12-03T14:19:31Z</time>
      </trkpt>
      <trkpt lat="44.85894" lon="4.89872">
        <ele>122.71</ele>
        <time>2011-12-03T14:19:35Z</time>
      </trkpt>
      <trkpt lat="44.85889" lon="4.89845">
        <ele>122.22</ele>
        <time>2011-12-03T14:19:39Z</time>
      </trkpt>
      <trkpt lat="44.85883" lon="4.89817">
        <ele>122.71</ele>
        <time>2011-12-03T14:19:43Z</time>
      </trkpt>
      <trkpt lat="44.85875" lon="4.89788">
        <ele>122.22</ele>
        <time>2011-12-03T14:19:47Z</time>
      </trkpt>
      <trkpt lat="44.85867" lon="4.89758">
        <ele>122.22</ele>
        <time>2011-12-03T14:19:51Z</time>
      </trkpt>
      <trkpt lat="44.85857" lon="4.89731">
        <ele>121.74</ele>
        <time>2011-12-03T14:19:55Z</time>
      </trkpt>
      <trkpt lat="44.85844" lon="4.89708">
        <ele>122.22</ele>
        <time>2011-12-03T14:19:59Z</time>
      </trkpt>
      <trkpt lat="44.85828" lon="4.89686">
        <ele>121.74</ele>
        <time>2011-12-03T14:20:03Z</time>
      </trkpt>
      <trkpt lat="44.85814" lon="4.89665">
        <ele>121.74</ele>
        <time>2011-12-03T14:20:07Z</time>
      </trkpt>
      <trkpt lat="44.85799" lon="4.89643">
        <ele>121.26</ele>
        <time>2011-12-03T14:20:11Z</time>
      </trkpt>
      <trkpt lat="44.85786" lon="4.89622">
        <ele>121.26</ele>
        <time>2011-12-03T14:20:15Z</time>
      </trkpt>
      <trkpt lat="44.85771" lon="4.89601">
        <ele>120.78</ele>
        <time>2011-12-03T14:20:19Z</time>
      </trkpt>
      <trkpt lat="44.85755" lon="4.89579">
        <ele>121.26</ele>
        <time>2011-12-03T14:20:25Z</time>
      </trkpt>
      <trkpt lat="44.85741" lon="4.89559">
        <ele>120.78</ele>
        <time>2011-12-03T14:20:32Z</time>
      </trkpt>
      <trkpt lat="44.85724" lon="4.89539">
        <ele>120.78</ele>
        <time>2011-12-03T14:20:37Z</time>
      </trkpt>
      <trkpt lat="44.85709" lon="4.89523">
        <ele>121.26</ele>
        <time>2011-12-03T14:20:41Z</time>
      </trkpt>
      <trkpt lat="44.85695" lon="4.89505">
        <ele>121.26</ele>
        <time>2011-12-03T14:20:45Z</time>
      </trkpt>
      <trkpt lat="44.8568" lon="4.89488">
        <ele>121.26</ele>
        <time>2011-12-03T14:20:49Z</time>
      </trkpt>
      <trkpt lat="44.85666" lon="4.89469">
        <ele>121.26</ele>
        <time>2011-12-03T14:20:53Z</time>
      </trkpt>
      <trkpt lat="44.85651" lon="4.8945">
        <ele>120.78</ele>
        <time>2011-12-03T14:20:58Z</time>
      </trkpt>
      <trkpt lat="44.85635" lon="4.89431">
        <ele>120.78</ele>
        <time>2011-12-03T14:21:02Z</time>
      </trkpt>
      <trkpt lat="44.85616" lon="4.89411">
        <ele>121.26</ele>
        <time>2011-12-03T14:21:06Z</time>
      </trkpt>
      <trkpt lat="44.85597" lon="4.89391">
        <ele>121.26</ele>
        <time>2011-12-03T14:21:10Z</time>
      </trkpt>
      <trkpt lat="44.85578" lon="4.89371">
        <ele>121.26</ele>
        <time>2011-12-03T14:21:14Z</time>
      </trkpt>
      <trkpt lat="44.85562" lon="4.89347">
        <ele>121.26</ele>
        <time>2011-12-03T14:21:18Z</time>
      </trkpt>
      <trkpt lat="44.85548" lon="4.89321">
        <ele>121.74</ele>
        <time>2011-12-03T14:21:22Z</time>
      </trkpt>
      <trkpt lat="44.85535" lon="4.89295">
        <ele>121.26</ele>
        <time>2011-12-03T14:21:26Z</time>
      </trkpt>
      <trkpt lat="44.8552" lon="4.89273">
        <ele>120.3</ele>
        <time>2011-12-03T14:21:30Z</time>
      </trkpt>
      <trkpt lat="44.85505" lon="4.89253">
        <ele>120.78</ele>
        <time>2011-12-03T14:21:34Z</time>
      </trkpt>
      <trkpt lat="44.85487" lon="4.89242">
        <ele>120.3</ele>
        <time>2011-12-03T14:21:38Z</time>
      </trkpt>
      <trkpt lat="44.85466" lon="4.89232">
        <ele>120.3</ele>
        <time>2011-12-03T14:21:42Z</time>
      </trkpt>
      <trkpt lat="44.85445" lon="4.89221">
        <ele>120.3</ele>
        <time>2011-12-03T14:21:46Z</time>
      </trkpt>
      <trkpt lat="44.85423" lon="4.89208">
        <ele>119.82</ele>
        <time>2011-12-03T14:21:50Z</time>
      </trkpt>
      <trkpt lat="44.85404" lon="4.89191">
        <ele>119.82</ele>
        <time>2011-12-03T14:21:54Z</time>
      </trkpt>
      <trkpt lat="44.85386" lon="4.8917">
        <ele>119.82</ele>
        <time>2011-12-03T14:21:58Z</time>
      </trkpt>
      <trkpt lat="44.85371" lon="4.89146">
        <ele>120.3</ele>
        <time>2011-12-03T14:22:02Z</time>
      </trkpt>
      <trkpt lat="44.8536" lon="4.8912">
        <ele>120.78</ele>
        <time>2011-12-03T14:22:06Z</time>
      </trkpt>
      <trkpt lat="44.85352" lon="4.89091">
        <ele>120.78</ele>
        <time>2011-12-03T14:22:10Z</time>
      </trkpt>
      <trkpt lat="44.85347" lon="4.89058">
        <ele>120.78</ele>
        <time>2011-12-03T14:22:14Z</time>
      </trkpt>
      <trkpt lat="44.85342" lon="4.89026">
        <ele>120.3</ele>
        <time>2011-12-03T14:22:18Z</time>
      </trkpt>
      <trkpt lat="44.85338" lon="4.88996">
        <ele>120.3</ele>
        <time>2011-12-03T14:22:22Z</time>
      </trkpt>
      <trkpt lat="44.85334" lon="4.88966">
        <ele>120.78</ele>
        <time>2011-12-03T14:22:26Z</time>
      </trkpt>
      <trkpt lat="44.85329" lon="4.88936">
        <ele>120.3</ele>
        <time>2011-12-03T14:22:30Z</time>
      </trkpt>
      <trkpt lat="44.85323" lon="4.88906">
        <ele>120.3</ele>
        <time>2011-12-03T14:22:34Z</time>
      </trkpt>
      <trkpt lat="44.85312" lon="4.88879">
        <ele>120.3</ele>
        <time>2011-12-03T14:22:38Z</time>
      </trkpt>
      <trkpt lat="44.85296" lon="4.88858">
        <ele>119.82</ele>
        <time>2011-12-03T14:22:42Z</time>
      </trkpt>
      <trkpt lat="44.85278" lon="4.88847">
        <ele>120.3</ele>
        <time>2011-12-03T14:22:46Z</time>
      </trkpt>
      <trkpt lat="44.85256" lon="4.88838">
        <ele>119.82</ele>
        <time>2011-12-03T14:22:50Z</time>
      </trkpt>
      <trkpt lat="44.85236" lon="4.88827">
        <ele>119.34</ele>
        <time>2011-12-03T14:22:54Z</time>
      </trkpt>
      <trkpt lat="44.85216" lon="4.88814">
        <ele>119.34</ele>
        <time>2011-12-03T14:22:58Z</time>
      </trkpt>
      <trkpt lat="44.85198" lon="4.88797">
        <ele>119.34</ele>
        <time>2011-12-03T14:23:02Z</time>
      </trkpt>
      <trkpt lat="44.85181" lon="4.88776">
        <ele>119.82</ele>
        <time>2011-12-03T14:23:06Z</time>
      </trkpt>
      <trkpt lat="44.85167" lon="4.8875">
        <ele>119.34</ele>
        <time>2011-12-03T14:23:10Z</time>
      </trkpt>
      <trkpt lat="44.85153" lon="4.88725">
        <ele>119.34</ele>
        <time>2011-12-03T14:23:14Z</time>
      </trkpt>
      <trkpt lat="44.85136" lon="4.88703">
        <ele>119.34</ele>
        <time>2011-12-03T14:23:18Z</time>
      </trkpt>
      <trkpt lat="44.85119" lon="4.88684">
        <ele>119.82</ele>
        <time>2011-12-03T14:23:22Z</time>
      </trkpt>
      <trkpt lat="44.85098" lon="4.8867">
        <ele>119.34</ele>
        <time>2011-12-03T14:23:26Z</time>
      </trkpt>
      <trkpt lat="44.85075" lon="4.88663">
        <ele>119.34</ele>
        <time>2011-12-03T14:23:30Z</time>
      </trkpt>
      <trkpt lat="44.85053" lon="4.8866">
        <ele>118.86</ele>
        <time>2011-12-03T14:23:34Z</time>
      </trkpt>
      <trkpt lat="44.85031" lon="4.88654">
        <ele>118.86</ele>
        <time>2011-12-03T14:23:38Z</time>
      </trkpt>
      <trkpt lat="44.85009" lon="4.8865">
        <ele>118.38</ele>
        <time>2011-12-03T14:23:42Z</time>
      </trkpt>
      <trkpt lat="44.84986" lon="4.88645">
        <ele>118.86</ele>
        <time>2011-12-03T14:23:46Z</time>
      </trkpt>
      <trkpt lat="44.84964" lon="4.88641">
        <ele>118.38</ele>
        <time>2011-12-03T14:23:50Z</time>
      </trkpt>
      <trkpt lat="44.84942" lon="4.88637">
        <ele>117.9</ele>
        <time>2011-12-03T14:23:54Z</time>
      </trkpt>
      <trkpt lat="44.8492" lon="4.88634">
        <ele>118.38</ele>
        <time>2011-12-03T14:23:58Z</time>
      </trkpt>
      <trkpt lat="44.84897" lon="4.8863">
        <ele>117.9</ele>
        <time>2011-12-03T14:24:02Z</time>
      </trkpt>
      <trkpt lat="44.84873" lon="4.88624">
        <ele>118.38</ele>
        <time>2011-12-03T14:24:06Z</time>
      </trkpt>
      <trkpt lat="44.84851" lon="4.88618">
        <ele>118.38</ele>
        <time>2011-12-03T14:24:10Z</time>
      </trkpt>
      <trkpt lat="44.84831" lon="4.8861">
        <ele>117.9</ele>
        <time>2011-12-03T14:24:14Z</time>
      </trkpt>
      <trkpt lat="44.84811" lon="4.88603">
        <ele>117.9</ele>
        <time>2011-12-03T14:24:18Z</time>
      </trkpt>
      <trkpt lat="44.84791" lon="4.88595">
        <ele>118.38</ele>
        <time>2011-12-03T14:24:22Z</time>
      </trkpt>
      <trkpt lat="44.84771" lon="4.88585">
        <ele>117.9</ele>
        <time>2011-12-03T14:24:26Z</time>
      </trkpt>
      <trkpt lat="44.84752" lon="4.88574">
        <ele>117.9</ele>
        <time>2011-12-03T14:24:30Z</time>
      </trkpt>
      <trkpt lat="44.84733" lon="4.88562">
        <ele>118.38</ele>
        <time>2011-12-03T14:24:34Z</time>
      </trkpt>
      <trkpt lat="44.84713" lon="4.8855">
        <ele>117.42</ele>
        <time>2011-12-03T14:24:38Z</time>
      </trkpt>
      <trkpt lat="44.84692" lon="4.88537">
        <ele>118.38</ele>
        <time>2011-12-03T14:24:42Z</time>
      </trkpt>
      <trkpt lat="44.84668" lon="4.88527">
        <ele>117.9</ele>
        <time>2011-12-03T14:24:46Z</time>
      </trkpt>
      <trkpt lat="44.84646" lon="4.8852">
        <ele>117.9</ele>
        <time>2011-12-03T14:24:50Z</time>
      </trkpt>
      <trkpt lat="44.84624" lon="4.88514">
        <ele>117.9</ele>
        <time>2011-12-03T14:24:54Z</time>
      </trkpt>
      <trkpt lat="44.846" lon="4.88508">
        <ele>116.94</ele>
        <time>2011-12-03T14:24:58Z</time>
      </trkpt>
      <trkpt lat="44.84576" lon="4.88505">
        <ele>117.42</ele>
        <time>2011-12-03T14:25:02Z</time>
      </trkpt>
      <trkpt lat="44.8455" lon="4.88499">
        <ele>117.42</ele>
        <time>2011-12-03T14:25:06Z</time>
      </trkpt>
      <trkpt lat="44.84529" lon="4.88495">
        <ele>117.42</ele>
        <time>2011-12-03T14:25:10Z</time>
      </trkpt>
      <trkpt lat="44.84507" lon="4.88493">
        <ele>116.94</ele>
        <time>2011-12-03T14:25:14Z</time>
      </trkpt>
      <trkpt lat="44.84483" lon="4.88489">
        <ele>117.42</ele>
        <time>2011-12-03T14:25:18Z</time>
      </trkpt>
      <trkpt lat="44.84463" lon="4.88484">
        <ele>116.94</ele>
        <time>2011-12-03T14:25:22Z</time>
      </trkpt>
      <trkpt lat="44.84443" lon="4.88478">
        <ele>117.42</ele>
        <time>2011-12-03T14:25:26Z</time>
      </trkpt>
      <trkpt lat="44.8442" lon="4.8847">
        <ele>116.94</ele>
        <time>2011-12-03T14:25:30Z</time>
      </trkpt>
      <trkpt lat="44.84399" lon="4.88464">
        <ele>116.94</ele>
        <time>2011-12-03T14:25:34Z</time>
      </trkpt>
      <trkpt lat="44.84378" lon="4.88459">
        <ele>116.94</ele>
        <time>2011-12-03T14:25:38Z</time>
      </trkpt>
      <trkpt lat="44.84357" lon="4.88452">
        <ele>116.94</ele>
        <time>2011-12-03T14:25:42Z</time>
      </trkpt>
      <trkpt lat="44.84335" lon="4.88445">
        <ele>116.94</ele>
        <time>2011-12-03T14:25:46Z</time>
      </trkpt>
      <trkpt lat="44.84313" lon="4.88438">
        <ele>116.46</ele>
        <time>2011-12-03T14:25:50Z</time>
      </trkpt>
      <trkpt lat="44.84292" lon="4.88431">
        <ele>116.46</ele>
        <time>2011-12-03T14:25:54Z</time>
      </trkpt>
      <trkpt lat="44.84273" lon="4.88424">
        <ele>116.94</ele>
        <time>2011-12-03T14:25:58Z</time>
      </trkpt>
      <trkpt lat="44.84251" lon="4.8842">
        <ele>116.46</ele>
        <time>2011-12-03T14:26:03Z</time>
      </trkpt>
      <trkpt lat="44.84229" lon="4.88422">
        <ele>116.94</ele>
        <time>2011-12-03T14:26:08Z</time>
      </trkpt>
      <trkpt lat="44.84211" lon="4.88419">
        <ele>117.9</ele>
        <time>2011-12-03T14:26:14Z</time>
      </trkpt>
      <trkpt lat="44.84206" lon="4.88396">
        <ele>118.86</ele>
        <time>2011-12-03T14:26:22Z</time>
      </trkpt>
      <trkpt lat="44.84212" lon="4.88367">
        <ele>119.34</ele>
        <time>2011-12-03T14:26:28Z</time>
      </trkpt>
      <trkpt lat="44.84219" lon="4.88344">
        <ele>116.94</ele>
        <time>2011-12-03T14:26:35Z</time>
      </trkpt>
      <trkpt lat="44.84237" lon="4.88356">
        <ele>116.46</ele>
        <time>2011-12-03T14:26:40Z</time>
      </trkpt>
      <trkpt lat="44.84259" lon="4.88367">
        <ele>116.46</ele>
        <time>2011-12-03T14:26:46Z</time>
      </trkpt>
      <trkpt lat="44.84279" lon="4.88377">
        <ele>116.46</ele>
        <time>2011-12-03T14:26:51Z</time>
      </trkpt>
      <trkpt lat="44.84301" lon="4.88384">
        <ele>116.94</ele>
        <time>2011-12-03T14:26:56Z</time>
      </trkpt>
      <trkpt lat="44.84325" lon="4.88393">
        <ele>116.94</ele>
        <time>2011-12-03T14:27:01Z</time>
      </trkpt>
      <trkpt lat="44.84346" lon="4.88398">
        <ele>116.94</ele>
        <time>2011-12-03T14:27:05Z</time>
      </trkpt>
      <trkpt lat="44.84364" lon="4.88404">
        <ele>116.94</ele>
        <time>2011-12-03T14:27:09Z</time>
      </trkpt>
      <trkpt lat="44.84386" lon="4.88411">
        <ele>116.94</ele>
        <time>2011-12-03T14:27:14Z</time>
      </trkpt>
      <trkpt lat="44.84404" lon="4.88417">
        <ele>116.94</ele>
        <time>2011-12-03T14:27:18Z</time>
      </trkpt>
      <trkpt lat="44.84423" lon="4.88422">
        <ele>117.42</ele>
        <time>2011-12-03T14:27:22Z</time>
      </trkpt>
      <trkpt lat="44.84444" lon="4.88429">
        <ele>117.42</ele>
        <time>2011-12-03T14:27:26Z</time>
      </trkpt>
      <trkpt lat="44.84464" lon="4.88433">
        <ele>117.42</ele>
        <time>2011-12-03T14:27:30Z</time>
      </trkpt>
      <trkpt lat="44.84484" lon="4.88439">
        <ele>117.42</ele>
        <time>2011-12-03T14:27:34Z</time>
      </trkpt>
      <trkpt lat="44.84504" lon="4.88445">
        <ele>117.9</ele>
        <time>2011-12-03T14:27:38Z</time>
      </trkpt>
      <trkpt lat="44.84524" lon="4.88449">
        <ele>118.38</ele>
        <time>2011-12-03T14:27:42Z</time>
      </trkpt>
      <trkpt lat="44.84545" lon="4.88453">
        <ele>118.38</ele>
        <time>2011-12-03T14:27:46Z</time>
      </trkpt>
      <trkpt lat="44.84567" lon="4.88455">
        <ele>117.9</ele>
        <time>2011-12-03T14:27:50Z</time>
      </trkpt>
      <trkpt lat="44.84588" lon="4.88458">
        <ele>117.9</ele>
        <time>2011-12-03T14:27:54Z</time>
      </trkpt>
      <trkpt lat="44.84609" lon="4.88461">
        <ele>117.9</ele>
        <time>2011-12-03T14:27:58Z</time>
      </trkpt>
      <trkpt lat="44.84629" lon="4.88467">
        <ele>117.9</ele>
        <time>2011-12-03T14:28:02Z</time>
      </trkpt>
      <trkpt lat="44.84649" lon="4.88473">
        <ele>118.38</ele>
        <time>2011-12-03T14:28:06Z</time>
      </trkpt>
      <trkpt lat="44.84668" lon="4.8848">
        <ele>117.9</ele>
        <time>2011-12-03T14:28:10Z</time>
      </trkpt>
      <trkpt lat="44.84688" lon="4.88489">
        <ele>117.9</ele>
        <time>2011-12-03T14:28:14Z</time>
      </trkpt>
      <trkpt lat="44.84708" lon="4.88499">
        <ele>117.9</ele>
        <time>2011-12-03T14:28:18Z</time>
      </trkpt>
      <trkpt lat="44.84727" lon="4.88511">
        <ele>117.9</ele>
        <time>2011-12-03T14:28:22Z</time>
      </trkpt>
      <trkpt lat="44.84747" lon="4.88522">
        <ele>117.9</ele>
        <time>2011-12-03T14:28:26Z</time>
      </trkpt>
      <trkpt lat="44.84766" lon="4.88533">
        <ele>118.38</ele>
        <time>2011-12-03T14:28:30Z</time>
      </trkpt>
      <trkpt lat="44.84784" lon="4.88545">
        <ele>118.38</ele>
        <time>2011-12-03T14:28:34Z</time>
      </trkpt>
      <trkpt lat="44.84803" lon="4.88554">
        <ele>117.9</ele>
        <time>2011-12-03T14:28:38Z</time>
      </trkpt>
      <trkpt lat="44.84822" lon="4.88562">
        <ele>118.38</ele>
        <time>2011-12-03T14:28:42Z</time>
      </trkpt>
      <trkpt lat="44.84841" lon="4.88569">
        <ele>118.38</ele>
        <time>2011-12-03T14:28:46Z</time>
      </trkpt>
      <trkpt lat="44.8486" lon="4.88576">
        <ele>117.9</ele>
        <time>2011-12-03T14:28:50Z</time>
      </trkpt>
      <trkpt lat="44.84881" lon="4.88581">
        <ele>118.86</ele>
        <time>2011-12-03T14:28:55Z</time>
      </trkpt>
      <trkpt lat="44.84899" lon="4.88585">
        <ele>118.38</ele>
        <time>2011-12-03T14:28:59Z</time>
      </trkpt>
      <trkpt lat="44.84917" lon="4.88589">
        <ele>118.38</ele>
        <time>2011-12-03T14:29:03Z</time>
      </trkpt>
      <trkpt lat="44.84936" lon="4.88593">
        <ele>118.86</ele>
        <time>2011-12-03T14:29:07Z</time>
      </trkpt>
      <trkpt lat="44.84958" lon="4.88597">
        <ele>118.86</ele>
        <time>2011-12-03T14:29:12Z</time>
      </trkpt>
      <trkpt lat="44.8498" lon="4.886">
        <ele>118.86</ele>
        <time>2011-12-03T14:29:17Z</time>
      </trkpt>
      <trkpt lat="44.84998" lon="4.88604">
        <ele>118.86</ele>
        <time>2011-12-03T14:29:21Z</time>
      </trkpt>
      <trkpt lat="44.8502" lon="4.88607">
        <ele>118.86</ele>
        <time>2011-12-03T14:29:26Z</time>
      </trkpt>
      <trkpt lat="44.85041" lon="4.8861">
        <ele>118.86</ele>
        <time>2011-12-03T14:29:31Z</time>
      </trkpt>
      <trkpt lat="44.85063" lon="4.88616">
        <ele>119.34</ele>
        <time>2011-12-03T14:29:36Z</time>
      </trkpt>
      <trkpt lat="44.8508" lon="4.88619">
        <ele>119.34</ele>
        <time>2011-12-03T14:29:40Z</time>
      </trkpt>
      <trkpt lat="44.85102" lon="4.88629">
        <ele>119.34</ele>
        <time>2011-12-03T14:29:45Z</time>
      </trkpt>
      <trkpt lat="44.85122" lon="4.88636">
        <ele>118.86</ele>
        <time>2011-12-03T14:29:50Z</time>
      </trkpt>
      <trkpt lat="44.8514" lon="4.8865">
        <ele>119.34</ele>
        <time>2011-12-03T14:29:55Z</time>
      </trkpt>
      <trkpt lat="44.85157" lon="4.88668">
        <ele>119.82</ele>
        <time>2011-12-03T14:30:00Z</time>
      </trkpt>
      <trkpt lat="44.85173" lon="4.88687">
        <ele>119.34</ele>
        <time>2011-12-03T14:30:05Z</time>
      </trkpt>
      <trkpt lat="44.85187" lon="4.88705">
        <ele>119.34</ele>
        <time>2011-12-03T14:30:09Z</time>
      </trkpt>
      <trkpt lat="44.85202" lon="4.88724">
        <ele>120.3</ele>
        <time>2011-12-03T14:30:14Z</time>
      </trkpt>
      <trkpt lat="44.85215" lon="4.88745">
        <ele>120.3</ele>
        <time>2011-12-03T14:30:19Z</time>
      </trkpt>
      <trkpt lat="44.8523" lon="4.88765">
        <ele>120.78</ele>
        <time>2011-12-03T14:30:24Z</time>
      </trkpt>
      <trkpt lat="44.85249" lon="4.88782">
        <ele>120.3</ele>
        <time>2011-12-03T14:30:29Z</time>
      </trkpt>
      <trkpt lat="44.85269" lon="4.88794">
        <ele>120.78</ele>
        <time>2011-12-03T14:30:34Z</time>
      </trkpt>
      <trkpt lat="44.85289" lon="4.88803">
        <ele>121.26</ele>
        <time>2011-12-03T14:30:39Z</time>
      </trkpt>
      <trkpt lat="44.85307" lon="4.88811">
        <ele>121.26</ele>
        <time>2011-12-03T14:30:44Z</time>
      </trkpt>
      <trkpt lat="44.85327" lon="4.88811">
        <ele>121.26</ele>
        <time>2011-12-03T14:30:50Z</time>
      </trkpt>
      <trkpt lat="44.85348" lon="4.88812">
        <ele>121.26</ele>
        <time>2011-12-03T14:30:56Z</time>
      </trkpt>
      <trkpt lat="44.85367" lon="4.88814">
        <ele>121.26</ele>
        <time>2011-12-03T14:31:01Z</time>
      </trkpt>
      <trkpt lat="44.85387" lon="4.88817">
        <ele>121.26</ele>
        <time>2011-12-03T14:31:06Z</time>
      </trkpt>
      <trkpt lat="44.85406" lon="4.8882">
        <ele>120.78</ele>
        <time>2011-12-03T14:31:11Z</time>
      </trkpt>
      <trkpt lat="44.85426" lon="4.88823">
        <ele>121.26</ele>
        <time>2011-12-03T14:31:16Z</time>
      </trkpt>
      <trkpt lat="44.85448" lon="4.88825">
        <ele>120.78</ele>
        <time>2011-12-03T14:31:21Z</time>
      </trkpt>
      <trkpt lat="44.8547" lon="4.88827">
        <ele>121.26</ele>
        <time>2011-12-03T14:31:26Z</time>
      </trkpt>
      <trkpt lat="44.85492" lon="4.88829">
        <ele>121.26</ele>
        <time>2011-12-03T14:31:31Z</time>
      </trkpt>
      <trkpt lat="44.8551" lon="4.88831">
        <ele>121.26</ele>
        <time>2011-12-03T14:31:35Z</time>
      </trkpt>
      <trkpt lat="44.85529" lon="4.88833">
        <ele>121.74</ele>
        <time>2011-12-03T14:31:39Z</time>
      </trkpt>
      <trkpt lat="44.85547" lon="4.88835">
        <ele>121.74</ele>
        <time>2011-12-03T14:31:43Z</time>
      </trkpt>
      <trkpt lat="44.85566" lon="4.88836">
        <ele>121.26</ele>
        <time>2011-12-03T14:31:47Z</time>
      </trkpt>
      <trkpt lat="44.85584" lon="4.88839">
        <ele>121.74</ele>
        <time>2011-12-03T14:31:51Z</time>
      </trkpt>
      <trkpt lat="44.85601" lon="4.88841">
        <ele>121.74</ele>
        <time>2011-12-03T14:31:55Z</time>
      </trkpt>
      <trkpt lat="44.85619" lon="4.88844">
        <ele>122.22</ele>
        <time>2011-12-03T14:31:59Z</time>
      </trkpt>
      <trkpt lat="44.85641" lon="4.88849">
        <ele>122.22</ele>
        <time>2011-12-03T14:32:04Z</time>
      </trkpt>
      <trkpt lat="44.8566" lon="4.88855">
        <ele>122.22</ele>
        <time>2011-12-03T14:32:09Z</time>
      </trkpt>
      <trkpt lat="44.8568" lon="4.88858">
        <ele>123.19</ele>
        <time>2011-12-03T14:32:15Z</time>
      </trkpt>
      <trkpt lat="44.85699" lon="4.88851">
        <ele>124.15</ele>
        <time>2011-12-03T14:32:20Z</time>
      </trkpt>
      <trkpt lat="44.85721" lon="4.88845">
        <ele>124.15</ele>
        <time>2011-12-03T14:32:25Z</time>
      </trkpt>
      <trkpt lat="44.85739" lon="4.88842">
        <ele>124.63</ele>
        <time>2011-12-03T14:32:29Z</time>
      </trkpt>
      <trkpt lat="44.85761" lon="4.88838">
        <ele>124.63</ele>
        <time>2011-12-03T14:32:34Z</time>
      </trkpt>
      <trkpt lat="44.8578" lon="4.88836">
        <ele>124.63</ele>
        <time>2011-12-03T14:32:38Z</time>
      </trkpt>
      <trkpt lat="44.85798" lon="4.88835">
        <ele>125.11</ele>
        <time>2011-12-03T14:32:42Z</time>
      </trkpt>
      <trkpt lat="44.85818" lon="4.88833">
        <ele>125.11</ele>
        <time>2011-12-03T14:32:46Z</time>
      </trkpt>
      <trkpt lat="44.85838" lon="4.88832">
        <ele>125.59</ele>
        <time>2011-12-03T14:32:50Z</time>
      </trkpt>
      <trkpt lat="44.85858" lon="4.8883">
        <ele>125.59</ele>
        <time>2011-12-03T14:32:54Z</time>
      </trkpt>
      <trkpt lat="44.85879" lon="4.88829">
        <ele>125.59</ele>
        <time>2011-12-03T14:32:58Z</time>
      </trkpt>
      <trkpt lat="44.85899" lon="4.88827">
        <ele>125.59</ele>
        <time>2011-12-03T14:33:02Z</time>
      </trkpt>
      <trkpt lat="44.8592" lon="4.88825">
        <ele>125.59</ele>
        <time>2011-12-03T14:33:06Z</time>
      </trkpt>
      <trkpt lat="44.8594" lon="4.88824">
        <ele>125.59</ele>
        <time>2011-12-03T14:33:10Z</time>
      </trkpt>
      <trkpt lat="44.8596" lon="4.88824">
        <ele>125.59</ele>
        <time>2011-12-03T14:33:14Z</time>
      </trkpt>
      <trkpt lat="44.85981" lon="4.88824">
        <ele>125.59</ele>
        <time>2011-12-03T14:33:18Z</time>
      </trkpt>
      <trkpt lat="44.86002" lon="4.88827">
        <ele>125.59</ele>
        <time>2011-12-03T14:33:22Z</time>
      </trkpt>
      <trkpt lat="44.86023" lon="4.88831">
        <ele>125.59</ele>
        <time>2011-12-03T14:33:26Z</time>
      </trkpt>
      <trkpt lat="44.86044" lon="4.88838">
        <ele>125.59</ele>
        <time>2011-12-03T14:33:30Z</time>
      </trkpt>
      <trkpt lat="44.86065" lon="4.88846">
        <ele>125.59</ele>
        <time>2011-12-03T14:33:34Z</time>
      </trkpt>
      <trkpt lat="44.86085" lon="4.88853">
        <ele>126.07</ele>
        <time>2011-12-03T14:33:38Z</time>
      </trkpt>
      <trkpt lat="44.86104" lon="4.88861">
        <ele>126.07</ele>
        <time>2011-12-03T14:33:42Z</time>
      </trkpt>
      <trkpt lat="44.86125" lon="4.88868">
        <ele>126.55</ele>
        <time>2011-12-03T14:33:46Z</time>
      </trkpt>
      <trkpt lat="44.86144" lon="4.88873">
        <ele>127.03</ele>
        <time>2011-12-03T14:33:50Z</time>
      </trkpt>
      <trkpt lat="44.86166" lon="4.88878">
        <ele>127.51</ele>
        <time>2011-12-03T14:33:55Z</time>
      </trkpt>
      <trkpt lat="44.86189" lon="4.88883">
        <ele>127.51</ele>
        <time>2011-12-03T14:34:00Z</time>
      </trkpt>
      <trkpt lat="44.8621" lon="4.88886">
        <ele>127.99</ele>
        <time>2011-12-03T14:34:05Z</time>
      </trkpt>
      <trkpt lat="44.86229" lon="4.88886">
        <ele>127.51</ele>
        <time>2011-12-03T14:34:09Z</time>
      </trkpt>
      <trkpt lat="44.86252" lon="4.88889">
        <ele>127.03</ele>
        <time>2011-12-03T14:34:13Z</time>
      </trkpt>
      <trkpt lat="44.8627" lon="4.88892">
        <ele>127.03</ele>
        <time>2011-12-03T14:34:16Z</time>
      </trkpt>
      <trkpt lat="44.86288" lon="4.88895">
        <ele>126.55</ele>
        <time>2011-12-03T14:34:19Z</time>
      </trkpt>
      <trkpt lat="44.86307" lon="4.88898">
        <ele>127.03</ele>
        <time>2011-12-03T14:34:22Z</time>
      </trkpt>
      <trkpt lat="44.86331" lon="4.889">
        <ele>127.03</ele>
        <time>2011-12-03T14:34:26Z</time>
      </trkpt>
      <trkpt lat="44.86355" lon="4.88903">
        <ele>126.55</ele>
        <time>2011-12-03T14:34:30Z</time>
      </trkpt>
      <trkpt lat="44.86377" lon="4.88907">
        <ele>126.55</ele>
        <time>2011-12-03T14:34:34Z</time>
      </trkpt>
      <trkpt lat="44.864" lon="4.8891">
        <ele>126.55</ele>
        <time>2011-12-03T14:34:38Z</time>
      </trkpt>
      <trkpt lat="44.86422" lon="4.88911">
        <ele>127.03</ele>
        <time>2011-12-03T14:34:42Z</time>
      </trkpt>
      <trkpt lat="44.86444" lon="4.88913">
        <ele>127.51</ele>
        <time>2011-12-03T14:34:46Z</time>
      </trkpt>
      <trkpt lat="44.86465" lon="4.88913">
        <ele>127.03</ele>
        <time>2011-12-03T14:34:50Z</time>
      </trkpt>
      <trkpt lat="44.86486" lon="4.88911">
        <ele>127.51</ele>
        <time>2011-12-03T14:34:54Z</time>
      </trkpt>
      <trkpt lat="44.86505" lon="4.8891">
        <ele>127.03</ele>
        <time>2011-12-03T14:34:58Z</time>
      </trkpt>
      <trkpt lat="44.86525" lon="4.88906">
        <ele>128.47</ele>
        <time>2011-12-03T14:35:03Z</time>
      </trkpt>
      <trkpt lat="44.86543" lon="4.8891">
        <ele>129.92</ele>
        <time>2011-12-03T14:35:11Z</time>
      </trkpt>
      <trkpt lat="44.86562" lon="4.889">
        <ele>128.95</ele>
        <time>2011-12-03T14:35:16Z</time>
      </trkpt>
      <trkpt lat="44.8658" lon="4.88889">
        <ele>128.47</ele>
        <time>2011-12-03T14:35:20Z</time>
      </trkpt>
      <trkpt lat="44.86599" lon="4.8888">
        <ele>127.99</ele>
        <time>2011-12-03T14:35:24Z</time>
      </trkpt>
      <trkpt lat="44.86616" lon="4.88872">
        <ele>127.03</ele>
        <time>2011-12-03T14:35:30Z</time>
      </trkpt>
      <trkpt lat="44.86631" lon="4.88871">
        <ele>127.03</ele>
        <time>2011-12-03T14:36:54Z</time>
      </trkpt>
      <trkpt lat="44.86651" lon="4.88861">
        <ele>126.55</ele>
        <time>2011-12-03T14:37:02Z</time>
      </trkpt>
      <trkpt lat="44.86672" lon="4.88855">
        <ele>126.55</ele>
        <time>2011-12-03T14:37:09Z</time>
      </trkpt>
      <trkpt lat="44.86693" lon="4.88846">
        <ele>126.55</ele>
        <time>2011-12-03T14:37:15Z</time>
      </trkpt>
      <trkpt lat="44.86713" lon="4.88841">
        <ele>127.03</ele>
        <time>2011-12-03T14:37:20Z</time>
      </trkpt>
      <trkpt lat="44.86733" lon="4.88834">
        <ele>127.51</ele>
        <time>2011-12-03T14:37:25Z</time>
      </trkpt>
      <trkpt lat="44.86754" lon="4.88832">
        <ele>127.99</ele>
        <time>2011-12-03T14:37:30Z</time>
      </trkpt>
      <trkpt lat="44.86775" lon="4.88829">
        <ele>127.99</ele>
        <time>2011-12-03T14:37:35Z</time>
      </trkpt>
      <trkpt lat="44.86797" lon="4.88826">
        <ele>127.99</ele>
        <time>2011-12-03T14:37:40Z</time>
      </trkpt>
      <trkpt lat="44.86816" lon="4.88823">
        <ele>127.99</ele>
        <time>2011-12-03T14:37:44Z</time>
      </trkpt>
      <trkpt lat="44.86837" lon="4.88821">
        <ele>127.99</ele>
        <time>2011-12-03T14:37:48Z</time>
      </trkpt>
      <trkpt lat="44.86859" lon="4.88819">
        <ele>127.51</ele>
        <time>2011-12-03T14:37:52Z</time>
      </trkpt>
      <trkpt lat="44.86881" lon="4.88814">
        <ele>127.99</ele>
        <time>2011-12-03T14:37:56Z</time>
      </trkpt>
      <trkpt lat="44.86903" lon="4.88811">
        <ele>127.51</ele>
        <time>2011-12-03T14:38:00Z</time>
      </trkpt>
      <trkpt lat="44.86926" lon="4.88807">
        <ele>127.51</ele>
        <time>2011-12-03T14:38:04Z</time>
      </trkpt>
      <trkpt lat="44.86949" lon="4.88801">
        <ele>127.03</ele>
        <time>2011-12-03T14:38:08Z</time>
      </trkpt>
      <trkpt lat="44.86972" lon="4.88796">
        <ele>126.55</ele>
        <time>2011-12-03T14:38:12Z</time>
      </trkpt>
      <trkpt lat="44.86996" lon="4.88791">
        <ele>126.07</ele>
        <time>2011-12-03T14:38:16Z</time>
      </trkpt>
      <trkpt lat="44.87019" lon="4.88787">
        <ele>126.07</ele>
        <time>2011-12-03T14:38:20Z</time>
      </trkpt>
      <trkpt lat="44.87041" lon="4.88781">
        <ele>125.59</ele>
        <time>2011-12-03T14:38:24Z</time>
      </trkpt>
      <trkpt lat="44.87059" lon="4.88773">
        <ele>125.11</ele>
        <time>2011-12-03T14:38:29Z</time>
      </trkpt>
      <trkpt lat="44.8707" lon="4.88754">
        <ele>123.19</ele>
        <time>2011-12-03T14:38:34Z</time>
      </trkpt>
      <trkpt lat="44.87091" lon="4.88748">
        <ele>121.74</ele>
        <time>2011-12-03T14:38:37Z</time>
      </trkpt>
      <trkpt lat="44.87113" lon="4.88746">
        <ele>121.26</ele>
        <time>2011-12-03T14:38:40Z</time>
      </trkpt>
      <trkpt lat="44.87136" lon="4.88744">
        <ele>120.78</ele>
        <time>2011-12-03T14:38:43Z</time>
      </trkpt>
      <trkpt lat="44.87157" lon="4.88743">
        <ele>120.78</ele>
        <time>2011-12-03T14:38:46Z</time>
      </trkpt>
      <trkpt lat="44.87176" lon="4.88741">
        <ele>120.3</ele>
        <time>2011-12-03T14:38:49Z</time>
      </trkpt>
      <trkpt lat="44.87199" lon="4.8874">
        <ele>120.3</ele>
        <time>2011-12-03T14:38:53Z</time>
      </trkpt>
      <trkpt lat="44.87221" lon="4.88745">
        <ele>119.82</ele>
        <time>2011-12-03T14:38:57Z</time>
      </trkpt>
      <trkpt lat="44.87243" lon="4.88753">
        <ele>120.3</ele>
        <time>2011-12-03T14:39:01Z</time>
      </trkpt>
      <trkpt lat="44.87265" lon="4.88755">
        <ele>119.34</ele>
        <time>2011-12-03T14:39:05Z</time>
      </trkpt>
      <trkpt lat="44.87286" lon="4.88762">
        <ele>119.82</ele>
        <time>2011-12-03T14:39:09Z</time>
      </trkpt>
      <trkpt lat="44.87306" lon="4.88769">
        <ele>119.82</ele>
        <time>2011-12-03T14:39:13Z</time>
      </trkpt>
      <trkpt lat="44.87328" lon="4.88771">
        <ele>119.82</ele>
        <time>2011-12-03T14:39:17Z</time>
      </trkpt>
      <trkpt lat="44.87351" lon="4.88776">
        <ele>119.34</ele>
        <time>2011-12-03T14:39:21Z</time>
      </trkpt>
      <trkpt lat="44.87373" lon="4.88782">
        <ele>119.34</ele>
        <time>2011-12-03T14:39:25Z</time>
      </trkpt>
      <trkpt lat="44.87394" lon="4.88783">
        <ele>119.34</ele>
        <time>2011-12-03T14:39:29Z</time>
      </trkpt>
      <trkpt lat="44.87416" lon="4.88789">
        <ele>119.34</ele>
        <time>2011-12-03T14:39:33Z</time>
      </trkpt>
      <trkpt lat="44.87439" lon="4.88792">
        <ele>119.34</ele>
        <time>2011-12-03T14:39:37Z</time>
      </trkpt>
      <trkpt lat="44.87461" lon="4.88798">
        <ele>118.86</ele>
        <time>2011-12-03T14:39:41Z</time>
      </trkpt>
      <trkpt lat="44.87482" lon="4.88803">
        <ele>118.38</ele>
        <time>2011-12-03T14:39:45Z</time>
      </trkpt>
      <trkpt lat="44.87501" lon="4.88807">
        <ele>117.9</ele>
        <time>2011-12-03T14:39:49Z</time>
      </trkpt>
      <trkpt lat="44.87522" lon="4.8881">
        <ele>117.42</ele>
        <time>2011-12-03T14:39:54Z</time>
      </trkpt>
      <trkpt lat="44.8754" lon="4.88814">
        <ele>117.9</ele>
        <time>2011-12-03T14:40:03Z</time>
      </trkpt>
      <trkpt lat="44.8756" lon="4.88819">
        <ele>118.86</ele>
        <time>2011-12-03T14:40:09Z</time>
      </trkpt>
      <trkpt lat="44.8758" lon="4.88825">
        <ele>118.38</ele>
        <time>2011-12-03T14:40:14Z</time>
      </trkpt>
      <trkpt lat="44.87589" lon="4.88844">
        <ele>118.86</ele>
        <time>2011-12-03T14:40:22Z</time>
      </trkpt>
      <trkpt lat="44.87581" lon="4.88826">
        <ele>118.86</ele>
        <time>2011-12-03T14:40:31Z</time>
      </trkpt>
      <trkpt lat="44.87557" lon="4.88822">
        <ele>118.86</ele>
        <time>2011-12-03T14:40:36Z</time>
      </trkpt>
      <trkpt lat="44.87536" lon="4.88816">
        <ele>117.42</ele>
        <time>2011-12-03T14:40:41Z</time>
      </trkpt>
      <trkpt lat="44.87515" lon="4.88809">
        <ele>117.42</ele>
        <time>2011-12-03T14:40:46Z</time>
      </trkpt>
      <trkpt lat="44.8751" lon="4.88783">
        <ele>116.94</ele>
        <time>2011-12-03T14:40:52Z</time>
      </trkpt>
      <trkpt lat="44.87516" lon="4.88756">
        <ele>115.98</ele>
        <time>2011-12-03T14:41:00Z</time>
      </trkpt>
      <trkpt lat="44.87518" lon="4.88728">
        <ele>116.46</ele>
        <time>2011-12-03T14:41:07Z</time>
      </trkpt>
      <trkpt lat="44.87525" lon="4.88702">
        <ele>115.98</ele>
        <time>2011-12-03T14:41:12Z</time>
      </trkpt>
      <trkpt lat="44.87534" lon="4.88679">
        <ele>115.01</ele>
        <time>2011-12-03T14:41:17Z</time>
      </trkpt>
      <trkpt lat="44.87545" lon="4.8866">
        <ele>115.01</ele>
        <time>2011-12-03T14:41:23Z</time>
      </trkpt>
      <trkpt lat="44.87547" lon="4.88635">
        <ele>115.01</ele>
        <time>2011-12-03T14:41:28Z</time>
      </trkpt>
      <trkpt lat="44.87556" lon="4.88604">
        <ele>115.01</ele>
        <time>2011-12-03T14:41:34Z</time>
      </trkpt>
      <trkpt lat="44.87563" lon="4.88575">
        <ele>114.53</ele>
        <time>2011-12-03T14:41:39Z</time>
      </trkpt>
      <trkpt lat="44.87573" lon="4.88547">
        <ele>114.05</ele>
        <time>2011-12-03T14:41:44Z</time>
      </trkpt>
      <trkpt lat="44.87573" lon="4.88523">
        <ele>114.53</ele>
        <time>2011-12-03T14:41:50Z</time>
      </trkpt>
      <trkpt lat="44.87565" lon="4.88502">
        <ele>115.01</ele>
        <time>2011-12-03T14:41:56Z</time>
      </trkpt>
      <trkpt lat="44.87564" lon="4.88474">
        <ele>115.5</ele>
        <time>2011-12-03T14:42:06Z</time>
      </trkpt>
      <trkpt lat="44.87569" lon="4.88447">
        <ele>116.94</ele>
        <time>2011-12-03T14:42:12Z</time>
      </trkpt>
      <trkpt lat="44.87576" lon="4.88425">
        <ele>117.9</ele>
        <time>2011-12-03T14:42:24Z</time>
      </trkpt>
      <trkpt lat="44.87595" lon="4.8843">
        <ele>117.9</ele>
        <time>2011-12-03T14:42:31Z</time>
      </trkpt>
      <trkpt lat="44.87616" lon="4.88436">
        <ele>117.9</ele>
        <time>2011-12-03T14:42:37Z</time>
      </trkpt>
      <trkpt lat="44.87635" lon="4.88442">
        <ele>117.9</ele>
        <time>2011-12-03T14:42:42Z</time>
      </trkpt>
      <trkpt lat="44.87658" lon="4.88447">
        <ele>118.86</ele>
        <time>2011-12-03T14:42:47Z</time>
      </trkpt>
      <trkpt lat="44.87678" lon="4.88454">
        <ele>118.86</ele>
        <time>2011-12-03T14:42:52Z</time>
      </trkpt>
      <trkpt lat="44.87698" lon="4.88459">
        <ele>118.38</ele>
        <time>2011-12-03T14:42:57Z</time>
      </trkpt>
      <trkpt lat="44.87716" lon="4.88465">
        <ele>116.94</ele>
        <time>2011-12-03T14:43:03Z</time>
      </trkpt>
      <trkpt lat="44.87719" lon="4.88445">
        <ele>117.9</ele>
        <time>2011-12-03T14:43:13Z</time>
      </trkpt>
      <trkpt lat="44.87722" lon="4.88415">
        <ele>118.38</ele>
        <time>2011-12-03T14:43:19Z</time>
      </trkpt>
      <trkpt lat="44.87725" lon="4.88387">
        <ele>118.38</ele>
        <time>2011-12-03T14:43:24Z</time>
      </trkpt>
      <trkpt lat="44.87727" lon="4.88358">
        <ele>118.38</ele>
        <time>2011-12-03T14:43:29Z</time>
      </trkpt>
      <trkpt lat="44.87729" lon="4.88328">
        <ele>118.38</ele>
        <time>2011-12-03T14:43:34Z</time>
      </trkpt>
      <trkpt lat="44.8773" lon="4.88297">
        <ele>118.86</ele>
        <time>2011-12-03T14:43:39Z</time>
      </trkpt>
      <trkpt lat="44.87731" lon="4.8827">
        <ele>118.86</ele>
        <time>2011-12-03T14:43:44Z</time>
      </trkpt>
      <trkpt lat="44.87732" lon="4.88246">
        <ele>118.86</ele>
        <time>2011-12-03T14:43:52Z</time>
      </trkpt>
      <trkpt lat="44.87735" lon="4.8822">
        <ele>119.82</ele>
        <time>2011-12-03T14:43:58Z</time>
      </trkpt>
      <trkpt lat="44.87738" lon="4.88192">
        <ele>119.34</ele>
        <time>2011-12-03T14:44:03Z</time>
      </trkpt>
      <trkpt lat="44.87742" lon="4.88162">
        <ele>119.34</ele>
        <time>2011-12-03T14:44:08Z</time>
      </trkpt>
      <trkpt lat="44.87742" lon="4.88136">
        <ele>119.34</ele>
        <time>2011-12-03T14:44:12Z</time>
      </trkpt>
      <trkpt lat="44.87743" lon="4.88105">
        <ele>118.86</ele>
        <time>2011-12-03T14:44:17Z</time>
      </trkpt>
      <trkpt lat="44.87737" lon="4.88081">
        <ele>119.34</ele>
        <time>2011-12-03T14:44:23Z</time>
      </trkpt>
      <trkpt lat="44.87729" lon="4.88057">
        <ele>118.38</ele>
        <time>2011-12-03T14:44:29Z</time>
      </trkpt>
      <trkpt lat="44.87723" lon="4.88029">
        <ele>118.86</ele>
        <time>2011-12-03T14:44:35Z</time>
      </trkpt>
      <trkpt lat="44.87709" lon="4.8801">
        <ele>118.86</ele>
        <time>2011-12-03T14:44:41Z</time>
      </trkpt>
      <trkpt lat="44.8769" lon="4.88001">
        <ele>119.34</ele>
        <time>2011-12-03T14:44:46Z</time>
      </trkpt>
      <trkpt lat="44.87671" lon="4.88006">
        <ele>119.34</ele>
        <time>2011-12-03T14:44:51Z</time>
      </trkpt>
      <trkpt lat="44.87651" lon="4.88009">
        <ele>119.82</ele>
        <time>2011-12-03T14:44:56Z</time>
      </trkpt>
      <trkpt lat="44.87634" lon="4.88009">
        <ele>119.82</ele>
        <time>2011-12-03T14:45:01Z</time>
      </trkpt>
      <trkpt lat="44.87618" lon="4.87993">
        <ele>119.82</ele>
        <time>2011-12-03T14:45:08Z</time>
      </trkpt>
      <trkpt lat="44.87607" lon="4.87983">
        <ele>117.9</ele>
        <time>2011-12-03T14:45:18Z</time>
      </trkpt>
      <trkpt lat="44.87593" lon="4.87952">
        <ele>114.53</ele>
        <time>2011-12-03T14:45:27Z</time>
      </trkpt>
      <trkpt lat="44.87594" lon="4.87903">
        <ele>114.05</ele>
        <time>2011-12-03T14:45:33Z</time>
      </trkpt>
      <trkpt lat="44.87589" lon="4.87872">
        <ele>114.05</ele>
        <time>2011-12-03T14:45:38Z</time>
      </trkpt>
      <trkpt lat="44.87589" lon="4.87841">
        <ele>114.53</ele>
        <time>2011-12-03T14:45:43Z</time>
      </trkpt>
      <trkpt lat="44.87587" lon="4.87812">
        <ele>113.57</ele>
        <time>2011-12-03T14:45:49Z</time>
      </trkpt>
      <trkpt lat="44.87577" lon="4.87791">
        <ele>113.57</ele>
        <time>2011-12-03T14:45:55Z</time>
      </trkpt>
      <trkpt lat="44.87555" lon="4.87791">
        <ele>113.09</ele>
        <time>2011-12-03T14:46:05Z</time>
      </trkpt>
    </trkseg>
  </trk>
</gpx>